     2.10           OBSERVATION DATA    G (GPS)             RINEX VERSION / TYPE
teqc 2005May6 SOPAC 20050707 00:37:10UTC                    PGM / RUN BY / DATE
Linux 2.4.20-8|Pentium IV|gcc|Linux|486/DX+                 COMMENT
BIT 2 OF LLI FLAGS DATA COLLECTED UNDER A/S CONDITION       COMMENT
1 MEN 59.95                                                 MARKER NAME
1213                                                        MARKER NUMBER
Rick Beale                                                  OBSERVER / AGENCY
0220188104 TRIMBLE 5700 1.30                                REC # / TYPE / VERS
0220187081 TRM33429.00+GP NONE                              ANT # / TYPE
 -2745161.0000 -4099442.0000  4028640.0000                  APPROX POSITION XYZ
        1.8000        0.0000        0.0000                  ANTENNA: DELTA H/E/N
     1     1                                                WAVELENGTH FACT L1/2
     6    L1    L2    C1    P2    P1    D1                  # / TYPES OF OBSERV
    15.0000                                                 INTERVAL
Northern California Height Modernization 2004               COMMENT
                                                            COMMENT
SOPAC - Scripps Orbit and Permanent Array Center            COMMENT
IGPP - Institute of Geophysics and Planetary Physics        COMMENT
SIO - Scripps Institution of Oceanography                   COMMENT
UCSD - University of California, San Diego                  COMMENT
                                                            COMMENT
email: archive@gpsmail.ucsd.edu                             COMMENT
ftp://garner.ucsd.edu                                       COMMENT
http://sopac.ucsd.edu                                       COMMENT
                                                            COMMENT
                                                            COMMENT
Approximate Lat, Lon : 39.421, -123.808                     COMMENT
                                                            COMMENT
SNR is mapped to RINEX snr flag value [0-9]                 COMMENT
L1 & L2: 2-19 dBHz = 1, 20-27 dBHz = 2, 28-31 dBHz = 3      COMMENT
32-35 dBHz = 4, 36-38 dBHz = 5, 39-41 dBHz = 6              COMMENT
42-44 dBHz = 7, 45-48 dBHz = 8, >= 49 dBHz = 9              COMMENT
  2004     9    13    20    53    0.0000000     GPS         TIME OF FIRST OBS
                                                            END OF HEADER
 04  9 13 20 53  0.0000000  0  6G 3G 8G13G19G23G27
    -47934.16658    -31008.80954  23237292.8364   23237293.3634
      1288.0474
   -107775.82759    -64113.63355  22607802.8984   22607801.8954
      2891.0314
    -15478.71159    -12972.43957  20320200.5784   20320196.8524
       414.9534
   -111478.93857    -66172.43253  24005514.0474   24005513.2274
      2989.5004
     71202.95359     35558.50657  21817446.8754   21817442.3134
     -1907.7664
    -61071.05059    -39060.68357  21397945.8524   21397943.7274
      1631.1564
 04  9 13 20 53 15.0000000  0  6G 3G 8G13G19G23G27
    -67223.44648    -46039.40643  23233622.5314   23233622.7304
      1283.6414
   -151151.24649    -97912.64445  22599549.2734   22599547.9184
      2892.1414
    -21681.59949    -17805.88147  20319019.9454   20319016.4064
       411.9384
   -156328.50148   -101120.09143  23996978.9844   23996978.5594
      2990.2344
     99828.70649     57864.23147  21822893.7974   21822889.6294
     -1909.0944
    -85548.34049    -58133.90647  21393288.4454   21393285.9454
      1632.3914
 04  9 13 20 53 30.0000000  0  6G 3G 8G13G19G23G27
    -86438.28048    -61012.00744  23229966.1414   23229966.6134
      1278.1094
   -194537.74248   -131720.28945  22591292.9224   22591291.5164
      2892.3914
    -27830.88549    -22597.54647  20317850.1884   20317846.1374
       407.7504
   -201179.70347   -136068.99043  23988443.7664   23988443.2504
      2989.7504
    128483.15849     80192.33546  21828346.5704   21828342.1134
     -1911.6254
   -110036.92549    -77215.92347  21388628.3284   21388626.0704
      1632.5474
 04  9 13 20 53 45.0000000  0  6G 3G 8G13G19G23G27
   -105564.32648    -75915.40044  23226326.5864   23226326.7074
      1272.0634
   -237921.04849   -165525.45445  22583037.6804   22583036.2704
      2892.0474
    -33912.34649    -27336.36247  20316692.6024   20316688.6844
       403.0944
   -246018.03647   -171007.88643  23979911.5474   23979911.0904
      2988.7664
    157180.34949    102553.73647  21833807.2974   21833803.6764
     -1914.6094
   -134522.72549    -96295.76747  21383968.6724   21383966.5554
      1632.2034
 04  9 13 20 54  0.0000000  0  6G 3G 8G13G19G23G27
   -124593.21448    -90743.08244  23222705.4534   23222706.1454
      1265.2504
   -281293.25849   -199321.96745  22574783.8444   22574782.6804
      2890.9694
    -39917.62549    -32015.81847  20315550.1884   20315546.2194
       397.7194
   -290835.11147   -205930.19943  23971383.1724   23971382.4924
      2986.9844
    185928.31849    124954.70747  21839278.5234   21839273.9304
     -1918.3284
   -158997.62749   -115367.12047  21379311.3674   21379309.2304
      1631.1414
 04  9 13 20 54 15.0000000  0  6G 3G 8G13G19G23G27
   -143512.57648   -105485.43344  23219105.2274   23219105.7424
      1257.4064
   -324641.92449   -233100.11945  22566534.8204   22566533.7074
      2888.8594
    -45834.57149    -36626.43747  20314423.9144   20314420.0904
       391.2664
   -335618.36847   -240826.16143  23962860.9454   23962860.1294
      2984.0634
    214739.06149    147404.59747  21844760.9534   21844756.4844
     -1923.1094
   -183449.54249   -134420.56347  21374658.3444   21374656.1884
      1629.1564
 04  9 13 20 54 30.0000000  0  6G 3G 8G13G19G23G27
   -162312.10548   -120134.39744  23215527.7194   23215527.8834
      1248.8914
   -367956.86249   -266851.99745  22558292.1484   22558291.2894
      2886.1884
    -51652.76449    -41160.09747  20313316.8364   20313313.1604
       384.2504
   -380357.30247   -275687.60243  23954347.1484   23954346.8674
      2980.7814
    243622.68849    169911.28046  21850257.1414   21850252.7814
     -1928.3444
   -207868.23549   -153448.11347  21370011.5474   21370009.4774
      1626.5004
 04  9 13 20 54 45.0000000  0  6G 3G 8G13G19G23G27
   -180982.11348   -134682.44144  23211974.7584   23211975.9184
      1240.2814
   -411228.72749   -300570.30845  22550057.6644   22550056.7424
      2883.3284
    -57362.71549    -45609.42547  20312230.0394   20312226.4494
       377.0164
   -425041.89947   -310506.69143  23945844.4224   23945844.1764
      2977.1414
    272588.72649    192482.18246  21855769.1484   21855764.6094
     -1933.8594
   -232244.28149   -172442.42947  21365372.9384   21365370.9924
      1623.6414
 04  9 13 20 55  0.0000000  0  6G 3G 8G13G19G23G27
   -199521.24148   -149128.51243  23208447.0704   23208446.7814
      1231.7194
   -454456.11049   -334253.96046  22541832.2034   22541831.0744
      2880.4844
    -62962.90749    -49973.22247  20311164.2664   20311160.8444
       369.7664
   -469670.63047   -345282.27243  23937351.1334   23937350.7624
      2973.5634
    301638.16049    215118.06246  21861297.1644   21861292.7304
     -1939.3124
   -256576.43349   -191402.54647  21360742.6644   21360740.6524
      1620.7664
 04  9 13 20 55 15.0000000  0  6G 3G 8G13G19G23G27
   -217928.60848   -163471.90144  23204943.8984   23204944.6804
      1222.5784
   -497638.65948   -367902.67746  22533614.7664   22533613.7704
      2877.1884
    -68452.62249    -54250.93447  20310119.8914   20310116.0204
       362.1414
   -514242.51347   -380013.51243  23928870.1094   23928868.8134
      2969.5004
    330771.62249    237819.42646  21866841.3754   21866836.6134
     -1945.1724
   -280864.15149   -210328.03047  21356120.8204   21356118.6054
      1617.5784
 04  9 13 20 55 30.0000000  0  6G 3G 8G13G19G23G27
   -236200.76348   -177709.94144  23201467.0084   23201467.0354
      1213.5164
   -540772.77649   -401513.65045  22525406.5314   22525405.6604
      2873.9534
    -73828.73949    -58440.12647  20309096.8284   20309093.2464
       354.5784
   -558753.89247   -414697.61343  23920399.8674   23920398.8404
      2965.2814
    359992.19849    260588.66246  21872401.5554   21872397.2704
     -1951.0164
   -305104.18249   -229216.37047  21351508.1094   21351505.8284
      1614.3444
 04  9 13 20 55 45.0000000  0  6G 3G 8G13G19G23G27
   -254337.43148   -191842.40844  23198015.4224   23198015.6174
      1204.3754
   -583858.25149   -435086.72445  22517207.2344   22517206.5554
      2870.5314
    -79090.96749    -62540.57147  20308095.4304   20308091.5784
       346.7344
   -603204.38447   -449334.31443  23911940.9924   23911939.9104
      2961.1254
    389299.76949    283425.68546  21877978.6644   21877974.0084
     -1956.8914
   -329296.53849   -248067.54947  21346904.5554   21346902.4144
      1611.0314
 04  9 13 20 56  0.0000000  0  6G 3G 8G13G19G23G27
   -272336.67248   -205867.76543  23194590.7114   23194590.5164
      1195.3594
   -626893.63448   -468620.75945  22509018.0314   22509017.0664
      2867.3134
    -84237.38549    -66550.77947  20307115.9774   20307112.3094
       339.2034
   -647591.74647   -483921.77943  23903494.1724   23903493.0984
      2956.9224
    418696.21949    306331.98246  21883572.7344   21883568.0124
     -1962.8284
   -353439.30449   -266880.08347  21342309.7584   21342308.1054
      1607.8754
 04  9 13 20 56 15.0000000  0  6G 3G 8G13G19G23G27
   -290199.33848   -219786.71443  23191191.6334   23191190.8794
      1186.3134
   -669879.57049   -502116.27845  22500838.0084   22500837.2384
      2864.0164
    -89268.93849    -70471.47047  20306158.5314   20306154.5474
       331.5314
   -691916.61047   -518460.57343  23895059.5634   23895058.5434
      2952.9224
    448180.26849    329306.52946  21889183.5944   21889179.2894
     -1968.5944
   -377533.52349   -285654.80147  21337725.3674   21337722.9574
      1604.6094
 04  9 13 20 56 30.0000000  0  6G 3G 8G13G19G23G27
   -307925.93348   -233599.64143  23187818.2584   23187818.1214
      1177.1884
   -712816.90748   -535573.91745  22492667.5084   22492666.4964
      2860.7974
    -94186.18249    -74303.10047  20305222.5784   20305218.9304
       323.9694
   -736179.39947   -552950.97144  23886635.9304   23886635.5554
      2948.7974
    477751.16149    352348.74046  21894810.5234   21894806.2034
     -1974.3754
   -401579.98549   -304392.29947  21333149.2974   21333147.5704
      1601.4844
 04  9 13 20 56 45.0000000  0  6G 3G 8G13G19G23G27
   -325515.74648   -247305.96143  23184470.8284   23184470.5594
      1168.0944
   -755705.00948   -568993.19645  22484506.0004   22484504.9184
      2857.5944
    -98988.35749    -78045.06047  20304309.2584   20304305.6564
       316.3444
   -780379.08447   -587392.20743  23878225.7814   23878224.9734
      2944.5634
    507409.41149    375459.01947  21900454.4534   21900450.3404
     -1980.1724
   -425578.19249   -323092.20247  21328582.9064   21328580.4654
      1598.2664
 04  9 13 20 57  0.0000000  0  6G 3G 8G13G19G23G27
   -342968.95048   -260905.84144  23181149.9924   23181149.0044
      1158.9844
   -798544.28949   -602374.41145  22476353.7894   22476353.1054
      2854.2814
   -103675.70449    -81697.54147  20303417.0314   20303413.0234
       308.5634
   -824515.66547   -621784.30443  23869826.4384   23869825.4844
      2940.2664
    537154.50249    398636.97546  21906115.0084   21906110.6804
     -1985.9844
   -449528.42949   -341754.71147  21324025.1884   21324022.7584
      1595.0004
 04  9 13 20 57 15.0000000  0  6G 3G 8G13G19G23G27
   -360283.03048   -274397.31844  23177855.2504   23177855.3054
      1149.7344
   -841332.52449   -635715.88845  22468211.5704   22468210.6054
      2850.9844
   -108246.06149    -85258.86547  20302547.1724   20302543.2974
       300.9224
   -868586.60847   -656125.23144  23861439.6174   23861439.2854
      2936.0164
    566988.51749    421884.21847  21911792.0704   21911787.8054
     -1991.8284
   -473428.64349   -360378.25847  21319477.1414   21319474.9224
      1591.7664
 04  9 13 20 57 30.0000000  0  6G 3G 8G13G19G23G27
   -377459.83848   -287781.84444  23174586.4144   23174586.0864
      1140.4224
   -884071.43649   -669018.89845  22460078.6884   22460077.6524
      2847.4694
   -112701.15949    -88730.37047  20301699.9064   20301695.9344
       293.0004
   -912593.37947   -690416.14644  23853065.2274   23853064.8164
      2931.4694
    596909.50649    445199.23646  21917485.8914   21917481.1764
     -1997.7814
   -497280.59249   -378964.18747  21314938.1484   21314935.9064
      1588.3914
 04  9 13 20 57 45.0000000  0  6G 3G 8G13G19G23G27
   -394497.63948   -301058.04744  23171344.0704   23171344.0354
      1131.3134
   -926759.46249   -702282.27445  22451955.2114   22451954.4734
      2844.2504
   -117039.34149    -92110.78047  20300874.2424   20300870.1174
       285.3754
   -956534.09047   -724655.59144  23844704.4844   23844703.0084
      2927.1884
    626918.94649    468583.17146  21923196.7194   21923192.1914
     -2003.5164
   -521082.73349   -397511.31047  21310408.8204   21310406.5354
      1585.2504
 04  9 13 20 58  0.0000000  0  6G 3G 8G13G19G23G27
   -411399.01748   -314227.92843  23168127.7814   23168128.2774
      1122.2814
   -969399.29749   -735508.10745  22443841.1724   22443839.8984
      2841.1414
   -121263.30349    -95402.18047  20300070.6094   20300066.4654
       277.8444
  -1000411.22047   -758845.49044  23836354.7584   23836353.9574
      2923.0634
    657013.82049    492033.69446  21928923.1804   21928919.0864
     -2009.1414
   -544838.01449   -416021.90147  21305888.3134   21305885.8754
      1582.1564
 04  9 13 20 58 15.0000000  0  6G 3G 8G13G19G23G27
   -428163.47348   -327291.13044  23164937.8524   23164937.8754
      1113.1414
  -1011990.84749   -768696.29545  22435736.2034   22435735.1684
      2837.8754
   -125372.66849    -98604.29447  20299288.2034   20299284.4384
       270.1564
  -1044224.02747   -792985.26843  23828017.2894   23828016.4694
      2918.7344
    687194.42249    515550.99746  21934666.8204   21934662.3714
     -2014.8594
   -568546.05649   -434495.69747  21301376.8754   21301374.6804
      1579.0164
 04  9 13 20 58 30.0000000  0  6G 3G 8G13G19G23G27
   -444790.51648   -340247.25543  23161773.8834   23161773.5984
      1104.0634
  -1054533.36449   -801846.29045  22427640.9224   22427639.3364
      2834.6564
   -129366.85249   -101716.64347  20298528.4534   20298524.3484
       262.6094
  -1087971.66947   -827074.27643  23819692.2814   23819691.7384
      2914.5474
    717461.04149    539135.35146  21940426.2814   21940422.2814
     -2020.4064
   -592206.42249   -452932.34747  21296874.5554   21296872.1524
      1575.9534
 04  9 13 20 58 45.0000000  0  6G 3G 8G13G19G23G27
   -461280.50048   -353096.56243  23158635.9924   23158635.6174
      1094.6414
  -1097027.38249   -834958.47945  22419554.4384   22419553.0004
      2831.2344
   -133246.15849   -104739.48047  20297790.3594   20297786.1724
       254.6564
  -1131654.17147   -861112.53444  23811379.2894   23811378.6804
      2909.9064
    747813.22349    562786.36446  21946202.2274   21946197.8364
     -2026.4064
   -615819.67249   -471332.27947  21292380.7274   21292378.4844
      1572.5784
 04  9 13 20 59  0.0000000  0  6G 3G 8G13G19G23G27
   -477632.52448   -365838.38043  23155524.2664   23155523.7114
      1085.5784
  -1139472.32049   -868032.44445  22411477.0554   22411476.1994
      2828.0634
   -137009.89849   -107672.27547  20297073.9224   20297070.4384
       247.0634
  -1175270.63446   -895099.32144  23803079.1804   23803078.4964
      2905.5634
    778251.40649    586504.38446  21951994.4774   21951989.9264
     -2032.0004
   -639385.11549   -489694.95647  21287896.4924   21287894.2304
      1569.4534
 04  9 13 20 59 15.0000000  0  6G 3G 8G13G19G23G27
   -493848.34948   -378474.06944  23152438.0314   23152437.9184
      1076.4064
  -1181870.20149   -901069.72845  22403409.4304   22403408.1254
      2824.9384
   -140659.98249   -110516.49647  20296379.3284   20296375.7424
       239.4694
  -1218822.68347   -929035.92444  23794792.1094   23794791.1644
      2901.3134
    808773.48549    610287.78046  21957802.4064   21957798.1334
     -2037.6414
   -662904.84649   -508022.01947  21283421.1954   21283418.5824
      1566.4224
 04  9 13 20 59 30.0000000  0  6G 3G 8G13G19G23G27
   -509926.79548   -391002.69843  23149379.0634   23149378.4774
      1067.3914
  -1224219.82049   -934069.40545  22395350.3284   22395349.1804
      2821.7194
   -144195.20749   -113271.22247  20295706.4924   20295703.1024
       231.8754
  -1262308.91547   -962921.23144  23786516.8524   23786516.2854
      2896.9384
    839380.33849    634137.23946  21963627.1024   21963622.5394
     -2043.2034
   -686377.79749   -526312.61747  21278954.4224   21278952.0044
      1563.3284
 04  9 13 20 59 45.0000000  0  6G 3G 8G13G19G23G27
   -525868.16248   -403424.51743  23146344.9224   23146344.1804
      1058.1414
  -1266521.62449   -967031.83246  22387300.6174   22387299.7194
      2818.5784
   -147616.03349   -115936.80247  20295055.3834   20295052.2664
       224.2664
  -1305729.37647   -996755.29043  23778253.5704   23778253.0824
      2892.4534
    870071.43949    658052.34346  21969466.9694   21969462.8404
     -2048.9224
   -709804.47249   -544567.15947  21274496.1484   21274493.9264
      1560.1724
 04  9 13 21  0  0.0000000  0  6G 3G 8G13G19G23G27
   -541672.81848   -415739.81244  23143337.6024   23143337.4104
      1049.0004
  -1308776.09249   -999957.36945  22379260.0164   22379258.5394
      2815.3134
   -150922.82649   -118513.53147  20294425.9844   20294422.4384
       216.5784
  -1349084.16347  -1030538.19043  23770003.5234   23770002.3834
      2888.0164
    900846.28549    682032.71146  21975323.2274   21975319.1294
     -2054.5164
   -733185.17849   -562785.88947  21270046.7664   21270044.6914
      1557.1724
 04  9 13 21  0 15.0000000  0  6G 3G 8G13G19G23G27
   -557338.90348   -427947.14444  23140356.4454   23140355.5664
      1039.8134
  -1350981.47448  -1032844.66145  22371228.7504   22371227.1564
      2812.1254
   -154113.78049   -120999.98847  20293819.1804   20293815.1914
       209.0004
  -1392371.12647  -1064268.23744  23761766.6094   23761765.5124
      2883.5474
    931706.45149    706079.55446  21981196.1414   21981191.5664
     -2060.1254
   -756518.55349   -580967.73247  21265606.7344   21265604.2154
      1554.0164
 04  9 13 21  0 30.0000000  0  6G 3G 8G13G19G23G27
   -572869.16548   -440048.60644  23137401.3284   23137400.7464
      1030.7814
  -1393140.77049  -1065696.04246  22363206.0864   22363204.3594
      2809.0314
   -157191.72749   -123398.39247  20293233.3914   20293229.7704
       201.3594
  -1435592.96047  -1097947.50244  23753541.5394   23753540.4024
      2879.1724
    962648.72349    730190.37946  21987084.0164   21987079.9924
     -2065.6254
   -779807.32049   -599114.81147  21261175.2034   21261172.4884
      1551.0634
 04  9 13 21  0 45.0000000  0  6G 3G 8G13G19G23G27
   -588260.93248   -452042.16444  23134471.9304   23134471.4844
      1021.5474
  -1435251.39649  -1098509.49746  22355192.5084   22355190.8714
      2805.7814
   -160154.03149   -125706.68547  20292669.7814   20292666.0044
       193.6254
  -1478746.69347  -1131573.71943  23745329.2194   23745328.4924
      2874.6094
    993675.58649    754367.12046  21992988.2734   21992984.1804
     -2071.2504
   -803049.07749   -617225.26847  21256752.2114   21256749.3284
      1547.8754
 04  9 13 21  1  0.0000000  0  6G 3G 8G13G19G23G27
   -603515.23248   -463928.61944  23131569.0394   23131568.8984
      1012.3594
  -1477314.32649  -1131285.77446  22347188.1174   22347187.5164
      2802.5314
   -163001.81949   -127925.74147  20292128.0234   20292124.0314
       185.9534
  -1521833.22447  -1165147.57844  23737130.8364   23737129.1254
      2870.1254
   1024785.75149    778608.78046  21998908.2504   21998903.8134
     -2076.8124
   -826244.91249   -635299.93247  21252338.1414   21252335.9774
      1544.7814
 04  9 13 21  1 15.0000000  0  6G 3G 8G13G19G23G27
   -618633.19348   -475708.81544  23128692.6564   23128692.2154
      1003.3134
  -1519330.95249  -1164025.98945  22339192.6024   22339191.3594
      2799.5004
   -165736.30449   -130056.51447  20291607.4144   20291603.8484
       178.5164
  -1564853.56347  -1198669.86043  23728944.4454   23728942.8134
      2865.7664
   1055977.83549    802914.25346  22004843.7114   22004839.9924
     -2082.1874
   -849396.20649   -653339.89847  21247932.5864   21247930.1054
      1541.9534
 04  9 13 21  1 30.0000000  0  6G 3G 8G13G19G23G27
   -633614.16148   -487382.28844  23125842.1954   23125841.5004
       994.0784
  -1561300.73349  -1196729.68946  22331205.7584   22331204.2664
      2796.4224
   -168356.76049   -132098.43147  20291108.5944   20291104.9924
       170.8594
  -1607806.76047  -1232139.82144  23720770.2114   23720769.1994
      2861.2034
   1087252.27249    827283.90946  22010795.7424   22010791.4344
     -2087.7034
   -872502.51649   -671344.80047  21243536.1644   21243533.2974
      1538.8754
 04  9 13 21  1 45.0000000  0  6G 3G 8G13G19G23G27
   -648457.31248   -498948.35844  23123017.3834   23123016.8984
       984.8444
  -1603223.01849  -1229396.37946  22323228.1334   22323227.5514
      2793.1564
   -170862.35849   -134050.85147  20290631.9614   20290628.1414
       163.1414
  -1650691.68747  -1265556.60444  23712609.5784   23712608.3794
      2856.6254
   1118609.64749    851718.17946  22016762.5314   22016758.5744
     -2093.3754
   -895563.02949   -689314.02847  21239147.4694   21239144.8244
      1535.7344
 04  9 13 21  2  0.0000000  0  6G 3G 8G13G19G23G27
   -663161.33048   -510406.01144  23120218.8364   23120218.7774
       975.7194
  -1645096.56749  -1262025.10046  22315260.1174   22315258.7894
      2790.0474
   -173252.02949   -135912.93947  20290176.9694   20290173.2734
       155.5634
  -1693506.76447  -1298918.92644  23704461.9224   23704460.9694
      2852.1094
   1150050.90149    876217.82946  22022745.6644   22022741.3754
     -2098.7344
   -918576.79149   -707246.82447  21234768.2424   21234765.3404
      1532.7974
 04  9 13 21  2 15.0000000  0  6G 3G 8G13G19G23G27
   -677727.26048   -521756.03944  23117446.8204   23117446.6564
       966.3914
  -1686922.38749  -1294616.62846  22307300.9694   22307299.6884
      2786.7974
   -175526.86549   -137685.53347  20289744.3914   20289740.7154
       147.7664
  -1736252.88047  -1332227.52344  23696327.7814   23696326.8954
      2847.3754
   1181574.81149    900781.87946  22028744.6564   22028740.2194
     -2104.3914
   -941544.90349   -725144.03947  21230397.4774   21230394.6174
      1529.6884
 04  9 13 21  2 30.0000000  0  6G 3G 8G13G19G23G27
   -692154.27348   -532997.85744  23114701.5084   23114701.7304
       957.2504
  -1728700.10949  -1327170.68345  22299350.4774   22299349.3364
      2783.5944
   -177685.97149   -139367.95947  20289333.3524   20289329.9844
       140.1884
  -1778928.98646  -1365481.57044  23688206.3834   23688205.2384
      2842.8284
   1213181.93849    925410.77946  22034759.0704   22034754.7424
     -2109.8754
   -964466.67249   -743005.15247  21226035.6174   21226032.9774
      1526.6414
 04  9 13 21  2 45.0000000  0  6G 3G 8G13G19G23G27
   -706443.52047   -544132.31243  23111982.2274   23111982.8284
       948.0004
  -1770430.53848  -1359687.86946  22291409.6484   22291408.1564
      2780.3914
   -179730.55249   -140961.14447  20288944.4224   20288940.7664
       132.3914
  -1821535.89946  -1398681.69044  23680098.4064   23680097.2814
      2838.0634
   1244870.88349    950103.42346  22040789.2734   22040785.1294
     -2115.4374
   -987343.34549   -760831.11747  21221682.3984   21221679.9844
      1523.5164
 04  9 13 21  3  0.0000000  0  6G 3G 8G13G19G23G27
   -720594.68448   -555159.16644  23109289.7814   23109289.0474
       938.8754
  -1812113.66749  -1392168.20645  22283477.7194   22283476.1294
      2777.3754
   -181660.47949   -142464.97747  20288577.1414   20288573.6024
       124.8914
  -1864073.22747  -1431827.61444  23672004.2274   23672002.7974
      2833.4844
   1276641.64349    974859.82946  22046835.2194   22046831.2544
     -2120.7664
  -1010174.91949   -778621.94747  21217337.5004   21217334.8094
      1520.6564
 04  9 13 21  3 15.0000000  0  6G 3G 8G13G19G23G27
   -734607.79047   -566078.46444  23106622.7504   23106622.6994
       929.5314
  -1853749.60749  -1424611.76346  22275554.6254   22275552.7384
      2774.1094
   -183475.78549   -143879.50347  20288231.9144   20288228.0904
       117.1254
  -1906540.72347  -1464919.09544  23663922.7894   23663921.5234
      2828.7504
   1308493.85549    999679.70546  22052896.6174   22052892.6524
     -2126.2194
  -1032961.47449   -796377.68847  21213001.2584   21212998.7544
      1517.5784
 04  9 13 21  3 30.0000000  0  6G 3G 8G13G19G23G27
   -748481.16248   -576888.86644  23103983.1564   23103982.8054
       920.2344
  -1895336.95949  -1457017.47746  22267641.1724   22267639.6564
      2770.9064
   -185174.90149   -145203.49647  20287908.1644   20287904.7274
       109.4534
  -1948936.60847  -1497954.76444  23655854.9534   23655854.1094
      2824.0474
   1340429.01748   1024564.19146  22058973.6954   22058969.7074
     -2131.7344
  -1055701.61449   -814097.27547  21208674.0234   21208671.7624
      1514.5004
 04  9 13 21  3 45.0000000  0  6G 3G 8G13G19G23G27
   -762216.24148   -587591.48844  23101369.2344   23101368.8014
       910.9694
  -1936877.32949  -1489386.56946  22259735.8674   22259734.6414
      2767.7034
   -186759.17749   -146438.00047  20287606.7894   20287603.2194
       101.7194
  -1991261.96147  -1530935.51544  23647800.2344   23647799.8874
      2819.2344
   1372445.52948   1049512.09346  22065066.3984   22065062.1094
     -2137.0784
  -1078396.80349   -831781.82547  21204355.3834   21204352.8134
      1511.4694
 04  9 13 21  4  0.0000000  0  6G 3G 8G13G19G23G27
   -775813.33048   -598186.61444  23098781.9064   23098781.7464
       901.7344
  -1978370.96649  -1521719.24046  22251840.1644   22251838.4454
      2764.6564
   -188228.97849   -147583.30247  20287327.2114   20287323.6054
        94.2034
  -2033516.68747  -1563861.20844  23639759.7114   23639758.8324
      2814.6094
   1404542.87249   1074522.97246  22071173.9774   22071169.8914
     -2142.5624
  -1101047.43749   -849431.67147  21200045.0554   21200042.5664
      1508.5004
 04  9 13 21  4 15.0000000  0  6G 3G 8G13G19G23G27
   -789270.53847   -608672.71144  23096220.8444   23096220.0594
       892.4844
  -2019816.04749  -1554014.08946  22243953.2424   22243951.8014
      2761.3594
   -189582.51949   -148638.00447  20287069.5164   20287066.1524
        86.4064
  -2075698.85547  -1596730.36644  23631732.8754   23631731.6564
      2809.6094
   1436722.51848   1099597.98946  22077297.8834   22077293.9184
     -2148.0474
  -1123651.84949   -867045.47947  21195743.9694   21195741.6134
      1505.4384
 04  9 13 21  4 30.0000000  0  6G 3G 8G13G19G23G27
   -802587.42647   -619049.48544  23093687.0704   23093686.2974
       883.2034
  -2061212.35548  -1586270.91446  22236075.6804   22236073.8794
      2758.2814
   -190819.46549   -149601.85847  20286834.1644   20286830.5314
        78.7194
  -2117807.76846  -1629542.43144  23623719.8204   23623718.7504
      2804.8594
   1468984.64949   1124737.27046  22083436.6024   22083432.6174
     -2153.4374
  -1146209.84449   -884623.13647  21191451.2034   21191448.6994
      1502.4534
 04  9 13 21  4 45.0000000  0  6G 3G 8G13G19G23G27
   -815764.80548   -629317.56344  23091179.9844   23091178.6724
       873.8444
  -2102560.71748  -1618490.38846  22228207.7034   22228205.7504
      2754.9064
   -191940.60849   -150475.48447  20286621.1954   20286617.2304
        70.8444
  -2159843.99646  -1662297.87044  23615720.0004   23615719.2854
      2799.9224
   1501328.32548   1149940.11746  22089591.8524   22089588.1214
     -2159.0164
  -1168722.26249   -902165.26947  21187166.9534   21187164.4614
      1499.2504
 04  9 13 21  5  0.0000000  0  6G 3G 8G13G19G23G27
   -828804.08748   -639478.03644  23088698.0634   23088697.7664
       864.7344
  -2143862.68749  -1650673.71646  22220347.8674   22220346.0004
      2751.9844
   -192947.40949   -151260.00547  20286429.3364   20286426.0004
        63.3594
  -2201808.77047  -1694997.63644  23607735.1724   23607733.8674
      2795.3284
   1533751.80048   1175205.10846  22095761.6484   22095757.9304
     -2164.1094
  -1191190.74649   -919673.18247  21182891.2274   21182889.0394
      1496.5784
 04  9 13 21  5 15.0000000  0  6G 3G 8G13G19G23G27
   -841704.74048   -649530.45644  23086243.1884   23086242.6764
       855.3754
  -2185117.75549  -1682820.49646  22212497.2734   22212496.3204
      2748.7344
   -193839.43049   -151955.09347  20286259.5164   20286255.3014
        55.5634
  -2243701.27047  -1727641.08844  23599762.9694   23599761.5984
      2790.3754
   1566255.39649   1200532.55446  22101946.8444   22101943.7034
     -2169.6414
  -1213614.72949   -937146.40647  21178624.5234   21178621.3014
      1493.3754
 04  9 13 21  5 30.0000000  0  6G 3G 8G13G19G23G27
   -854465.38748   -659473.79644  23083814.9844   23083814.7034
       846.0164
  -2226324.54949  -1714929.65946  22204655.9384   22204654.0704
      2745.5314
   -194615.31149   -152559.68247  20286111.9844   20286108.4224
        47.8284
  -2285519.92247  -1760226.97944  23591804.3524   23591803.5314
      2785.4694
   1598840.17449   1225923.25046  22108147.7344   22108143.8714
     -2175.0944
  -1235993.10049   -954584.08347  21174365.5234   21174363.2814
      1490.3594
 04  9 13 21  5 45.0000000  0  6G 3G 8G13G19G23G27
   -867086.83847   -669308.68444  23081413.1564   23081412.1294
       836.7974
  -2267484.19049  -1747002.06946  22196823.4534   22196822.1334
      2742.3444
   -195276.01749   -153074.52347  20285986.4224   20285982.8324
        40.2034
  -2327265.30747  -1792755.78444  23583860.9534   23583859.6844
      2780.5474
   1631505.10548   1251376.39846  22114363.6094   22114360.1994
     -2180.4224
  -1258326.81649   -971986.96747  21170115.7894   21170113.0904
      1487.4844
 04  9 13 21  6  0.0000000  0  6G 3G 8G13G19G23G27
   -879569.22147   -679035.20044  23079037.7194   23079037.2034
       827.6254
  -2308596.70349  -1779037.77546  22188999.7664   22188998.5164
      2739.3444
   -195821.45749   -153499.54647  20285882.3914   20285878.8014
        32.5944
  -2368937.20747  -1825227.34444  23575931.4224   23575930.0864
      2775.7504
   1664249.84649   1276891.75546  22120594.7814   22120591.4104
     -2185.5624
  -1280616.10149   -989355.23347  21165874.3054   21165871.6484
      1484.5314
 04  9 13 21  6 15.0000000  0  6G 3G 8G13G19G23G27
   -891911.50948   -688652.54144  23076688.9694   23076688.1724
       818.2664
  -2349661.27149  -1811036.10846  22181185.6724   22181184.3244
      2736.1564
   -196250.82649   -153834.11447  20285800.8914   20285797.1724
        24.9064
  -2410534.42147  -1857640.67444  23568015.3834   23568014.1914
      2770.7194
   1697075.03448   1302469.79246  22126841.3524   22126837.5434
     -2190.9064
  -1302860.09049  -1006688.20647  21161641.7584   21161639.2934
      1481.5784
 04  9 13 21  6 30.0000000  0  6G 3G 8G13G19G23G27
   -904114.78548   -698161.58844  23074366.3134   23074366.1094
       808.7974
  -2390679.08549  -1842998.00546  22173380.1804   22173378.8634
      2732.9064
   -196565.26249   -154079.14247  20285740.8364   20285737.6374
        17.0944
  -2452057.86347  -1889996.53344  23560113.2814   23560112.4574
      2765.7974
   1729979.44348   1328109.55146  22133102.9454   22133098.9534
     -2196.2664
  -1325060.02249  -1023986.84547  21157417.0234   21157414.5824
      1478.5634
 04  9 13 21  6 45.0000000  0  6G 3G 8G13G19G23G27
   -916177.41248   -707561.00144  23072071.2664   23072070.8594
       799.5634
  -2431648.65649  -1874922.33146  22165583.8674   22165582.4454
      2729.7504
   -196763.03149   -154233.24747  20285703.5164   20285699.6174
         9.3444
  -2493505.60547  -1922293.41544  23552225.9614   23552225.2034
      2760.6564
   1762964.44349   1353812.11546  22139379.8284   22139375.9774
     -2201.6564
  -1347214.33049  -1041249.92747  21153200.7114   21153198.5234
      1475.4694
 04  9 13 21  7  0.0000000  0  6G 3G 8G13G19G23G27
   -928100.96548   -716852.07444  23069802.0164   23069801.5784
       790.2344
  -2472571.80748  -1906810.47146  22157796.4454   22157795.3094
      2726.5944
   -196845.86749   -154297.80647  20285687.1414   20285683.9184
         1.5944
  -2534878.96546  -1954532.32644  23544353.0164   23544352.3554
      2755.7194
   1796028.31848   1379576.12846  22145672.0084   22145667.8524
     -2206.9844
  -1369324.85749  -1058478.91047  21148993.3594   21148991.0124
      1472.5314
 04  9 13 21  7 15.0000000  0  6G 3G 8G13G19G23G27
   -939883.26347   -726033.08044  23067560.3914   23067560.0354
       780.8284
  -2513446.12248  -1938660.56546  22150018.1804   22150016.4534
      2723.3594
   -196811.60249   -154271.11047  20285694.0864   20285690.3984
        -6.2034
  -2576175.43846  -1986711.34044  23536494.5704   23536493.3094
      2750.5634
   1829172.98449   1405403.10346  22151979.0314   22151975.2194
     -2212.2974
  -1391389.39649  -1075672.05047  21144794.7344   21144792.3204
      1469.4694
 04  9 13 21  7 30.0000000  0  6G 3G 8G13G19G23G27
   -951525.09647   -735104.60944  23065344.8834   23065344.7544
       771.5164
  -2554272.59048  -1970473.37346  22142249.1644   22142247.9344
      2720.2034
   -196661.20749   -154153.92547  20285722.4064   20285719.2894
       -13.8914
  -2617395.79946  -2018831.02844  23528650.1564   23528649.1724
      2745.6254
   1862397.21348   1431292.08246  22158301.1174   22158297.5634
     -2217.5164
  -1413409.04749  -1092830.20647  21140604.3594   21140602.0704
      1466.5784
 04  9 13 21  7 45.0000000  0  6G 3G 8G13G19G23G27
   -963027.86347   -744067.78644  23063155.7584   23063155.9774
       762.1724
  -2595052.59748  -2002249.97146  22134489.1564   22134487.5944
      2717.0474
   -196396.03249   -153947.29847  20285773.2974   20285769.6214
       -21.5474
  -2658541.08246  -2050892.22144  23520820.8134   23520820.2774
      2740.4384
   1895699.52248   1457241.89346  22164638.7194   22164634.8484
     -2222.9064
  -1435385.19349  -1109954.46947  21136422.6884   21136420.1334
      1463.5474
 04  9 13 21  8  0.0000000  0  6G 3G 8G13G19G23G27
   -974391.97047   -752922.93744  23060992.9534   23060993.3914
       752.9534
  -2635786.84948  -2033990.91846  22126737.6094   22126736.2154
      2714.0634
   -196016.43849   -153651.52347  20285845.6254   20285841.8714
       -29.1724
  -2699611.43447  -2082895.01444  23513005.3284   23513004.4024
      2735.5474
   1929079.13148   1483251.94346  22170990.6484   22170986.8094
     -2227.8914
  -1457318.30449  -1127045.19447  21132249.1254   21132246.7624
      1460.7504
 04  9 13 21  8 15.0000000  0  6G 3G 8G13G19G23G27
   -985615.82647   -761668.77944  23058857.1334   23058857.1174
       743.5474
  -2676473.68648  -2065694.93046  22118995.0474   22118993.8094
      2710.8134
   -195520.95249   -153265.42847  20285939.4614   20285935.8364
       -36.8914
  -2740605.02947  -2114838.01544  23505204.2194   23505203.1054
      2730.2664
   1962537.42148   1509323.30046  22177357.3594   22177353.6804
     -2233.2194
  -1479207.05449  -1144101.35047  21128083.4384   21128081.3524
      1457.7194
 04  9 13 21  8 30.0000000  0  6G 3G 8G13G19G23G27
   -996699.24747   -770305.19644  23056747.6804   23056747.7894
       734.4224
  -2717112.99448  -2097361.89146  22111261.5554   22111259.8874
      2707.7814
   -194909.45149   -152788.93947  20286056.1174   20286052.4224
       -44.5164
  -2781521.42247  -2146720.85744  23497418.1564   23497416.5394
      2725.2504
   1996074.41148   1535455.97746  22183739.2664   22183735.2894
     -2238.2664
  -1501051.31349  -1161122.84747  21123926.7194   21123924.3324
      1454.8914
 04  9 13 21  8 45.0000000  0  6G 3G 8G13G19G23G27
  -1007642.99947   -778832.76143  23054665.3134   23054665.6804
       724.9224
  -2757705.57648  -2128992.45346  22103536.9844   22103535.7464
      2704.5314
   -194182.62149   -152222.59347  20286194.4224   20286190.7074
       -52.3754
  -2822361.04147  -2178543.85544  23489647.1954   23489645.6954
      2720.0164
   2029689.27948   1561649.33346  22190136.4304   22190132.2584
     -2243.6874
  -1522851.81449  -1178110.23847  21119778.3914   21119775.4734
      1451.8594
 04  9 13 21  9  0.0000000  0  6G 3G 8G13G19G23G27
  -1018445.43947   -787250.24544  23052609.9844   23052609.8834
       715.5004
  -2798249.98749  -2160585.47846  22095822.0554   22095820.0704
      2701.3284
   -193338.93949   -151565.18547  20286355.2664   20286351.8674
       -60.1564
  -2863122.04047  -2210305.60144  23481890.0084   23481889.0634
      2714.7344
   2063383.22148   1587904.32046  22196547.7034   22196543.9184
     -2248.8754
  -1544607.32149  -1195062.56847  21115638.0004   21115635.9654
      1448.9064
 04  9 13 21  9 15.0000000  0  6G 3G 8G13G19G23G27
  -1029106.79347   -795557.77743  23050581.1804   23050580.5704
       706.1564
  -2838746.35548  -2192141.06746  22088115.3594   22088113.9574
      2698.1884
   -192378.63249   -150816.89947  20286537.4844   20286533.8984
       -67.8124
  -2903804.43747  -2242006.10644  23474148.5004   23474147.3634
      2709.5944
   2097155.79948   1614220.56646  22202974.7194   22202970.7894
     -2254.0164
  -1566317.98249  -1211979.96747  21111506.8594   21111504.3484
      1446.0314
 04  9 13 21  9 30.0000000  0  6G 3G 8G13G19G23G27
  -1039628.58148   -803756.55544  23048579.3834   23048578.3324
       696.8284
  -2879196.34248  -2223660.51046  22080417.9534   22080416.4924
      2695.0634
   -191302.89749   -149978.66747  20286742.4614   20286738.8754
       -75.5944
  -2944409.31647  -2273646.18744  23466421.5704   23466419.9024
      2704.3284
   2131005.40648   1640596.83946  22209416.2114   22209412.3954
     -2259.2194
  -1587985.25849  -1228863.54047  21107383.9064   21107380.8404
      1443.0004
 04  9 13 21  9 45.0000000  0  6G 3G 8G13G19G23G27
  -1050008.77247   -811844.98544  23046603.6644   23046603.3244
       687.2344
  -2919598.02848  -2255142.32346  22072730.0084   22072728.6174
      2691.7344
   -190110.37349   -149049.42347  20286969.4534   20286965.8554
       -83.5164
  -2984934.54447  -2305224.21944  23458710.0474   23458708.3134
      2698.9534
   2164933.51048   1667034.29546  22215872.4224   22215868.3404
     -2264.5314
  -1609607.58949  -1245712.09647  21103268.8134   21103266.3794
      1439.9224
 04  9 13 21 10  0.0000000  0  6G 3G 8G13G19G23G27
  -1060246.16947   -819822.15444  23044655.9774   23044655.4844
       677.7194
  -2959950.35148  -2286585.66846  22065051.3834   22065049.4224
      2688.5634
   -188799.70849   -148028.14047  20287218.9224   20287215.2114
       -91.3594
  -3025378.74347  -2336739.10244  23451013.7664   23451011.8164
      2693.5634
   2198941.28448   1693533.80646  22222344.1024   22222339.7234
     -2269.8594
  -1631183.74949  -1262524.68048  21099163.1644   21099160.5554
      1436.8914
 04  9 13 21 10 15.0000000  0  6G 3G 8G13G19G23G27
  -1070342.40147   -827689.35444  23042734.7424   23042734.3404
       668.3754
  -3000254.91848  -2317991.78346  22057381.4224   22057380.0594
      2685.4064
   -187372.48849   -146916.02247  20287490.4774   20287486.5744
       -99.0164
  -3065743.31947  -2368191.96744  23443332.1414   23443330.6484
      2688.2974
   2233026.76148   1720093.89546  22228830.2034   22228826.1254
     -2274.9694
  -1652715.50349  -1279302.66047  21095065.8054   21095063.4494
      1433.9694
 04  9 13 21 10 30.0000000  0  6G 3G 8G13G19G23G27
  -1080297.34547   -835446.44944  23040839.5554   23040839.9654
       658.9694
  -3040511.64248  -2349360.64146  22049720.6094   22049719.0084
      2682.1414
   -185828.71149   -145713.08347  20287784.0004   20287780.3404
      -106.8284
  -3106027.72447  -2399582.33844  23435666.0554   23435664.8164
      2682.8754
   2267189.92548   1746714.48346  22235330.8054   22235327.2344
     -2280.1724
  -1674202.82649  -1296046.01047  21090976.7734   21090974.1954
      1431.0164
 04  9 13 21 10 45.0000000  0  6G 3G 8G13G19G23G27
  -1090111.59747   -843093.91444  23038972.2424   23038972.1604
       649.6564
  -3080721.15248  -2380692.70146  22042068.8524   22042067.6374
      2679.0944
   -184168.90049   -144419.72447  20288099.7814   20288096.2424
      -114.5164
  -3146232.36347  -2430910.57144  23428014.8594   23428014.1994
      2677.7034
   2301429.92248   1773394.96646  22241846.9144   22241843.0474
     -2285.2344
  -1695646.36249  -1312755.24647  21086896.3914   21086894.0234
      1428.1724
 04  9 13 21 11  0.0000000  0  6G 3G 8G13G19G23G27
  -1099785.22747   -850631.79844  23037131.3054   23037131.4924
       640.1724
  -3120883.78248  -2411988.23946  22034426.6484   22034424.5314
      2675.9064
   -182393.19349   -143036.05947  20288437.6804   20288434.1174
      -122.3124
  -3186357.00847  -2462176.44144  23420380.5944   23420378.5554
      2672.2194
   2335746.41748   1800135.03746  22248377.2424   22248373.3914
     -2290.3754
  -1717046.34949  -1329430.55547  21082824.3284   21082821.7194
      1425.1564
 04  9 13 21 11 15.0000000  0  6G 3G 8G13G19G23G27
  -1109316.89347   -858059.05644  23035317.9454   23035317.6764
       630.7504
  -3160998.09148  -2443246.10946  22026792.9224   22026791.4884
      2672.6564
   -180500.16849   -141560.97847  20288798.1414   20288794.2304
      -130.1094
  -3226400.03447  -2493378.73544  23412760.2114   23412758.7424
      2666.8284
   2370140.54648   1826935.62446  22254921.8054   22254918.4304
     -2295.5944
  -1738401.49849  -1346070.92247  21078760.2894   21078757.8484
      1422.1724
 04  9 13 21 11 30.0000000  0  6G 3G 8G13G19G23G27
  -1118708.95847   -865377.52444  23033530.7194   23033530.6684
       621.4384
  -3201066.76948  -2474468.43246  22019168.0944   22019166.0824
      2669.6564
   -178492.26849   -139996.38847  20289180.3204   20289176.5314
      -137.7504
  -3266363.56047  -2524519.07844  23405155.2584   23405153.3634
      2661.5164
   2404609.74148   1853794.69346  22261481.3754   22261477.8954
     -2300.5624
  -1759714.16149  -1362678.17547  21074704.8204   21074701.9344
      1419.3284
 04  9 13 21 11 45.0000000  0  6G 3G 8G13G19G23G27
  -1127959.97147   -872586.09243  23031770.1254   23031769.9454
       611.9844
  -3241088.28748  -2505654.01146  22011552.2664   22011550.7074
      2666.4384
   -176368.23249   -138341.29947  20289584.2734   20289580.9104
      -145.5314
  -3306245.93248  -2555596.17944  23397565.7114   23397564.2504
      2656.0634
   2439155.18648   1880713.18445  22268055.1484   22268051.5434
     -2305.6414
  -1780983.16449  -1379251.41347  21070657.3444   21070654.6764
      1416.3754
 04  9 13 21 12  0.0000000  0  6G 3G 8G13G19G23G27
  -1137068.25647   -879683.44944  23030036.3834   23030036.1174
       602.5784
  -3281060.80948  -2536801.41546  22003945.5474   22003943.9534
      2663.2034
   -174126.26149   -136594.31247  20290010.9304   20290007.3164
      -153.3124
  -3346045.06948  -2586608.44144  23389992.4924   23389990.4694
      2650.4534
   2473778.43948   1907692.29545  22274643.7424   22274640.1254
     -2310.7034
  -1802206.86349  -1395789.35447  21066618.6174   21066615.9184
      1413.4844
 04  9 13 21 12 15.0000000  0  6G 3G 8G13G19G23G27
  -1146035.33347   -886670.75444  23028330.2344   23028329.4344
       593.1884
  -3320985.94748  -2567911.88646  21996348.5474   21996347.0274
      2660.1884
   -171767.99549   -134756.70747  20290460.1564   20290456.4654
      -161.0474
  -3385762.42647  -2617556.96944  23382434.6644   23382432.4144
      2645.0944
   2508477.56248   1934730.53046  22281247.2734   22281243.3954
     -2315.6724
  -1823386.94249  -1412293.30547  21062587.8754   21062585.3634
      1410.6094
 04  9 13 21 12 30.0000000  0  6G 3G 8G13G19G23G27
  -1154861.87348   -893548.58743  23026650.8524   23026650.1134
       583.6884
  -3360864.80449  -2598986.29246  21988759.4224   21988757.9494
      2656.8914
   -169294.22549   -132829.08647  20290930.3204   20290926.9064
      -168.8284
  -3425398.38747  -2648442.08544  23374891.4924   23374889.6844
      2639.5004
   2543251.78248   1961827.28645  22287864.2114   22287860.4414
     -2320.8594
  -1844524.11349  -1428763.81747  21058565.9384   21058563.5354
      1407.6564
 04  9 13 21 12 45.0000000  0  6G 3G 8G13G19G23G27
  -1163547.81448   -900316.84044  23024998.0704   23024997.5984
       574.3134
  -3400697.17249  -2630024.48046  21981179.4774   21981177.5904
      2653.8594
   -166704.74249   -130811.31447  20291423.2114   20291419.5704
      -176.5624
  -3464952.58247  -2679263.48444  23367364.9384   23367362.7034
      2634.1094
   2578100.87748   1988982.38745  22294496.0554   22294492.5664
     -2325.8754
  -1865618.38849  -1445200.90547  21054551.7274   21054548.8484
      1404.7814
 04  9 13 21 13  0.0000000  0  6G 3G 8G13G19G23G27
  -1172093.08248   -906975.46644  23023372.1564   23023370.9454
       564.9534
  -3440482.82448  -2661026.27046  21973608.6564   21973606.9344
      2650.8134
   -163999.56449   -128703.38547  20291938.1334   20291934.3594
      -184.2034
  -3504424.63147  -2710020.86044  23359853.7664   23359851.6684
      2628.8284
   2613024.69448   2016195.69645  22301141.5164   22301137.9574
     -2330.6564
  -1886669.76249  -1461604.56347  21050545.8054   21050543.5744
      1402.0004
 04  9 13 21 13 15.0000000  0  6G 3G 8G13G19G23G27
  -1180496.23848   -913523.37544  23021773.1174   23021772.2154
       555.5164
  -3480220.47649  -2691990.65646  21966047.0704   21966045.4104
      2647.6724
   -161177.21049   -126504.14747  20292475.1254   20292471.5004
      -192.0004
  -3543812.81047  -2740712.88444  23352358.5784   23352356.7234
      2623.1254
   2648024.63348   2043468.34045  22307802.1024   22307798.3874
     -2335.8444
  -1907676.93849  -1477973.78147  21046548.5314   21046545.6134
      1399.0784
 04  9 13 21 13 30.0000000  0  6G 3G 8G13G19G23G27
  -1188757.29148   -919960.54244  23020201.0314   23020200.4774
       545.8444
  -3519910.21649  -2722917.69846  21958493.8204   21958492.1684
      2644.2504
   -158237.56549   -124213.52147  20293034.6414   20293031.0784
      -200.0474
  -3583116.86747  -2771339.35844  23344878.3914   23344876.9064
      2617.2504
   2683100.43448   2070800.08845  22314476.6414   22314473.0634
     -2341.0944
  -1928639.84749  -1494308.51047  21042559.0314   21042556.7234
      1395.8444
 04  9 13 21 13 45.0000000  0  6G 3G 8G13G19G23G27
  -1196875.32048   -926286.27144  23018656.1564   23018655.4184
       536.5474
  -3559551.24748  -2753806.79146  21950950.3754   21950949.5514
      2641.2664
   -155179.99549   -121831.00247  20293616.3364   20293612.4384
      -207.6094
  -3622335.64946  -2801899.39044  23337415.8134   23337414.0004
      2611.8914
   2718252.68748   2098191.40045  22321165.9774   22321162.2304
     -2345.9534
  -1949557.86849  -1510608.25847  21038578.6414   21038575.8244
      1393.1724
 04  9 13 21 14  0.0000000  0  6G 3G 8G13G19G23G27
  -1204852.92848   -932502.59144  23017137.6094   23017137.4344
       527.2034
  -3599146.16148  -2784659.95746  21943415.9614   21943414.0594
      2638.1724
   -152007.12949   -119358.64147  20294220.3054   20294216.5084
      -215.4064
  -3661471.43047  -2832394.73144  23329967.6254   23329966.4224
      2606.2974
   2753478.46648   2125640.01545  22327869.3594   22327865.6604
     -2350.8124
  -1970433.50849  -1526874.98247  21034606.0234   21034603.5664
      1390.3594
 04  9 13 21 14 15.0000000  0  6G 3G 8G13G19G23G27
  -1212688.70948   -938608.40844  23015647.3054   23015646.4534
       517.8444
  -3638693.62549  -2815476.14646  21935889.9844   21935888.1414
      2635.0474
   -148717.50149   -116795.29847  20294846.0004   20294842.3364
      -223.0474
  -3700522.53447  -2862824.11544  23322537.6334   23322535.4924
      2600.6884
   2788779.05448   2153146.92646  22334586.3984   22334582.8364
     -2355.7034
  -1991265.58649  -1543107.76447  21030641.8204   21030639.0084
      1387.5314
 04  9 13 21 14 30.0000000  0  6G 3G 8G13G19G23G27
  -1220384.32548   -944604.97944  23014182.2194   23014181.9384
       508.3914
  -3678195.46249  -2846256.76546  21928373.2664   21928371.9184
      2632.0004
   -145312.78849   -114142.28047  20295494.0554   20295490.3364
      -230.7344
  -3739490.41748  -2893188.63544  23315121.3594   23315120.3324
      2595.1884
   2824152.57748   2180710.66246  22341317.8594   22341314.4534
     -2360.6564
  -2012055.78049  -1559307.91647  21026685.7894   21026682.9574
      1384.7034
 04  9 13 21 14 45.0000000  0  7G 3G 8G13G19G23G27G10
  -1227938.85848   -950491.61744  23012745.1334   23012744.0664
       498.8284
  -3717650.75149  -2877001.12146  21920865.0784   21920863.2234
      2628.7504
   -141792.19549   -111398.96447  20296163.6954   20296160.4774
      -238.6254
  -3778373.81348  -2923487.32744  23307722.3364   23307720.6334
      2589.3754
   2859599.81248   2208331.83645  22348063.7894   22348060.0204
     -2365.6564
  -2032803.28749  -1575474.80047  21022737.5004   21022735.1294
      1381.6884
   -131228.16057    -97431.86652  24082439.9774   24082438.8284
      2839.2504
 04  9 13 21 15  0.0000000  0  7G 3G 8G13G19G23G27G10
  -1235352.12148   -956268.19244  23011333.9844   23011333.8524
       489.5784
  -3757059.00049  -2907708.82946  21913365.8284   21913364.3984
      2625.7194
   -138155.45849   -108565.15047  20296856.1884   20296852.7384
      -246.2814
  -3817172.36548  -2953719.90644  23300339.1644   23300337.3914
      2583.8284
   2895120.61148   2236010.33446  22354822.6484   22354819.4454
     -2370.3284
  -2053507.88949  -1591608.25047  21018797.6644   21018795.3164
      1378.9694
   -173761.01247   -130574.33742  24074346.2114   24074345.1954
      2831.8754
 04  9 13 21 15 15.0000000  0  7G 3G 8G13G19G23G27G10
  -1242621.96448   -961933.00444  23009951.1414   23009950.7974
       479.9224
  -3796418.46549  -2938378.52946  21905876.3444   21905874.8134
      2622.3134
   -134400.46349   -105639.18747  20297570.5704   20297567.4224
      -254.3754
  -3855883.69348  -2983884.52944  23292972.6804   23292970.5944
      2577.8284
   2930716.84948   2263747.62045  22361596.7504   22361593.0474
     -2375.6414
  -2074167.66949  -1607706.77547  21014866.0634   21014863.6724
      1375.7664
   -216181.24147   -163629.03842  24066273.4774   24066273.3794
      2824.1414
 04  9 13 21 15 30.0000000  0  7G 3G 8G13G19G23G27G10
  -1249747.49448   -967485.36044  23008594.7114   23008594.7664
       470.2814
  -3835728.13649  -2969009.42246  21898396.1024   21898394.4654
      2619.0634
   -130526.39049   -102620.42747  20298307.5784   20298304.3164
      -262.1254
  -3894506.52747  -3013980.16844  23285622.9614   23285620.9144
      2571.9844
   2966389.31548   2291544.30946  22368385.0944   22368381.3524
     -2380.6094
  -2094781.73949  -1623769.67847  21010943.5394   21010940.5434
      1372.8444
   -258487.56847   -196594.96442  24058222.8674   24058223.1174
      2816.7194
 04  9 13 21 15 45.0000000  0  7G 3G 8G13G19G23G27G10
  -1256732.75248   -972928.42644  23007265.6254   23007264.9774
       460.9694
  -3874991.96949  -2999604.59446  21890923.9694   21890922.4024
      2615.9844
   -126537.13249    -99511.92347  20299066.8834   20299063.2734
      -269.8124
  -3933044.43347  -3044009.66544  23278289.0704   23278287.3594
      2566.2974
   3002133.92748   2319397.20146  22375187.0474   22375183.4024
     -2385.4224
  -2115353.96249  -1639799.98347  21007028.3444   21007025.8674
      1370.0474
   -300683.91447   -229475.21842  24050193.8054   24050193.4414
      2809.3914
 04  9 13 21 16  0.0000000  0  7G 3G 8G13G19G23G27G10
  -1263575.84948   -978260.70244  23005963.7034   23005963.3914
       451.4534
  -3914208.47749  -3030162.88346  21883461.4384   21883459.4884
      2612.8754
   -122431.07949    -96312.40047  20299848.0634   20299844.2544
      -277.7034
  -3971495.44646  -3073971.42544  23270972.5474   23270970.1644
      2560.4694
   3037952.11548   2347307.43946  22382002.9774   22381999.7344
     -2390.4224
  -2135882.88349  -1655796.54347  21003121.8594   21003119.3404
      1367.1414
   -342768.33047   -262268.25042  24042184.7194   24042184.8364
      2801.8914
 04  9 13 21 16 15.0000000  0  7G 3G 8G13G19G23G27G10
  -1270277.11948   -983482.48343  23004687.6414   23004687.3484
       442.1884
  -3953377.71148  -3060684.34546  21876007.8914   21876006.1884
      2609.7034
   -118208.43149    -93022.02447  20300651.9454   20300648.1414
      -285.2974
  -4009859.55346  -3103865.47444  23263671.9224   23263670.3524
      2554.8134
   3073843.41148   2375274.63346  22388832.7344   22388828.9844
     -2395.0784
  -2156368.75149  -1671759.55247  20999223.9224   20999221.3834
      1364.3444
   -384740.82747   -294974.06742  24034198.0554   24034197.5594
      2794.5784
 04  9 13 21 16 30.0000000  0  7G 3G 8G13G19G23G27G10
  -1276836.42248   -988593.61043  23003439.7894   23003439.0204
       432.5784
  -3992499.54049  -3091168.87346  21868563.1644   21868561.2234
      2606.5474
   -113869.01949    -89640.67547  20301477.5944   20301473.8554
      -293.2034
  -4048136.34547  -3133691.48244  23256387.5944   23256386.0004
      2548.8594
   3109807.73848   2403298.74246  22395676.6094   22395673.1994
     -2400.0474
  -2176811.44749  -1687688.92047  20995333.6414   20995331.2424
      1361.4384
   -426601.03847   -327592.39943  24026232.5164   24026232.1884
      2786.9064
 04  9 13 21 16 45.0000000  0  7G 3G 8G13G19G23G27G10
  -1283254.08448   -993594.38143  23002218.1094   23002217.8954
       423.0314
  -4031574.44549  -3121616.83446  21861127.3914   21861125.5434
      2603.3134
   -109413.33449    -86168.71447  20302325.3984   20302321.8954
      -300.9224
  -4086325.97248  -3163449.56944  23249120.6254   23249118.9384
      2543.0164
   3145844.59249   2431379.35446  22402534.5234   22402530.7034
     -2404.8914
  -2197211.40249  -1703584.99147  20991451.7734   20991448.9144
      1358.5004
   -468349.11147   -360123.33243  24018287.6334   24018287.7194
      2779.3284
 04  9 13 21 17  0.0000000  0  7G 3G 8G13G19G23G27G10
  -1289529.52447   -998484.33043  23001024.2894   23001023.3524
       413.8284
  -4070601.92349  -3152027.83146  21853700.6254   21853698.9884
      2600.4384
   -104840.70249    -82605.62147  20303195.6564   20303192.2734
      -308.5474
  -4124427.52047  -3193139.02444  23241870.3834   23241868.0474
      2537.4224
   3181954.23748   2459516.70345  22409405.8204   22409402.1254
     -2409.5784
  -2217568.16049  -1719447.40147  20987577.9384   20987575.1334
      1355.8914
   -509984.34847   -392566.37542  24010364.8054   24010364.7734
      2772.0634
 04  9 13 21 17 15.0000000  0  7G 3G 8G13G19G23G27G10
  -1295663.05047  -1003263.69444  22999857.3364   22999856.1804
       404.1724
  -4109582.40849  -3182402.21546  21846282.7734   21846281.3444
      2597.1414
   -100151.51649    -78951.72647  20304087.7894   20304084.6804
      -316.4694
  -4162440.97448  -3222759.84344  23234636.4224   23234634.1914
      2531.2664
   3218136.33048   2487710.49546  22416291.2734   22416287.6844
     -2414.4844
  -2237881.91949  -1735276.29547  20983712.1804   20983709.3524
      1352.9224
   -551506.65947   -424921.40443  24002463.3984   24002463.0394
      2764.4064
 04  9 13 21 17 30.0000000  0  7G 3G 8G13G19G23G27G10
  -1301654.70847  -1007932.49043  22998716.9694   22998716.2774
       394.6884
  -4148515.68648  -3212739.81646  21838873.9534   21838872.6484
      2594.0164
    -95345.78249    -75207.00347  20305002.2734   20304998.7154
      -324.2344
  -4200365.95448  -3252311.73244  23227419.5234   23227416.4654
      2525.3594
   3254390.47348   2515960.44345  22423189.9224   22423186.3284
     -2419.4064
  -2258152.90449  -1751071.86847  20979854.9534   20979852.6454
      1349.9064
   -592915.86846   -457188.30042  23994582.7974   23994583.1374
      2756.8284
 04  9 13 21 17 45.0000000  0  7G 3G 8G13G19G23G27G10
  -1307504.02147  -1012490.42044  22997603.9614   22997603.2774
       385.2974
  -4187401.33348  -3243040.30246  21831474.4144   21831472.8874
      2590.8754
    -90422.98649    -71371.06047  20305939.0864   20305935.6414
      -332.0314
  -4238201.83647  -3281794.16344  23220219.3674   23220217.0864
      2519.4224
   3290717.06048   2544266.82045  22430103.1174   22430099.3874
     -2424.1094
  -2278380.66849  -1766833.75647  20976005.7194   20976003.1604
      1347.1094
   -634211.29747   -489366.51642  23986725.1174   23986724.4614
      2749.2344
 04  9 13 21 18  0.0000000  0  7G 3G 8G13G19G23G27G10
  -1313211.88047  -1016938.09344  22996518.0944   22996517.8094
       375.7974
  -4226240.30748  -3273304.41546  21824083.8364   21824081.5044
      2587.7194
    -85384.00349    -67444.58647  20306898.2274   20306894.9064
      -339.8124
  -4275949.19947  -3311207.63244  23213036.3984   23213034.3014
      2513.5474
   3327115.03348   2572628.84145  22437028.7504   22437025.5354
     -2428.8444
  -2298566.07149  -1782562.63947  20972164.7194   20972162.0124
      1344.3134
   -675393.70547   -521456.70843  23978888.1024   23978888.1524
      2741.6884
 04  9 13 21 18 15.0000000  0  7G 3G 8G13G19G23G27G10
  -1318777.34947  -1021274.82244  22995458.1484   22995458.5984
       366.3444
  -4265031.63648  -3303531.40846  21816701.8134   21816699.5514
      2584.5944
    -80227.91049    -63426.85747  20307879.4144   20307876.0824
      -347.5314
  -4313606.77948  -3340551.15144  23205870.3134   23205868.2934
      2507.6884
   3363585.03248   2601046.97445  22443969.0474   22443965.4224
     -2433.6564
  -2318708.25849  -1798257.85647  20968331.5234   20968329.1024
      1341.4224
   -716461.87947   -553457.84943  23971073.0084   23971072.9414
      2734.2194
 04  9 13 21 18 30.0000000  0  7G 3G 8G13G19G23G27G10
  -1324201.82347  -1025501.68844  22994426.4304   22994426.0594
       357.0004
  -4303776.78748  -3333722.41246  21809329.0164   21809326.8484
      2581.5474
    -74956.13749    -59318.99347  20308882.4064   20308878.9264
      -355.2194
  -4351175.70348  -3369825.57044  23198720.9534   23198718.5944
      2501.7344
   3400125.46648   2629519.99645  22450922.3204   22450919.0004
     -2438.2974
  -2338808.62949  -1813920.47647  20964506.2894   20964503.8364
      1338.7034
   -757417.00846   -585370.88842  23963279.5314   23963279.9384
      2726.6414
 04  9 13 21 18 45.0000000  0  7G 3G 8G13G19G23G27G10
  -1329483.78448  -1029617.49344  22993421.1254   22993421.4104
       347.3914
  -4342474.16748  -3363876.18546  21801964.9534   21801963.2894
      2578.0944
    -69567.17149    -55119.80047  20309907.9144   20309904.4694
      -363.2194
  -4388654.14148  -3399029.49144  23191589.3284   23191587.0004
      2495.4694
   3436737.71548   2658048.98745  22457889.8054   22457886.4774
     -2443.2664
  -2358865.72049  -1829549.37247  20960690.1254   20960687.5554
      1335.6724
   -798257.31647   -617194.47642  23955507.9064   23955507.6724
      2718.8284
 04  9 13 21 19  0.0000000  0  7G 3G 8G13G19G23G27G10
  -1334622.83548  -1033621.93544  22992443.4924   22992443.6954
       337.8594
  -4381123.48548  -3393992.52246  21794610.3984   21794608.5744
      2575.0784
    -64060.85149    -50829.16847  20310955.6484   20310952.2304
      -370.9844
  -4426041.55748  -3428162.46644  23184474.3054   23184472.3244
      2489.4694
   3473421.86048   2686633.99045  22464870.3834   22464866.8484
     -2447.9694
  -2378879.34749  -1845144.40247  20956881.3284   20956878.9024
      1332.8134
   -838982.27246   -648928.22142  23947757.4614   23947757.6024
      2711.0784
 04  9 13 21 19 15.0000000  0  7G 3G 8G13G19G23G27G10
  -1339617.72948  -1037514.05444  22991493.5554   22991492.6374
       328.2664
  -4419723.61148  -3424070.51946  21787264.8674   21787263.1294
      2571.7194
    -58435.73849    -46445.97247  20312026.0164   20312022.9064
      -378.9374
  -4463336.27248  -3457223.24444  23177377.6254   23177375.4844
      2483.2974
   3510179.09347   2715275.95445  22471865.0314   22471861.5704
     -2452.8594
  -2398848.26949  -1860704.59247  20953081.5394   20953078.6174
      1329.8594
   -879590.41646   -680570.88442  23940030.2734   23940030.2464
      2703.3284
 04  9 13 21 19 30.0000000  0  7G 3G 8G13G19G23G27G10
  -1344469.97547  -1041295.03044  22990569.1884   22990569.3284
       318.5634
  -4458276.07748  -3454111.38246  21779928.8914   21779927.3554
      2568.4384
    -52693.38549    -41971.41947  20313118.9384   20313115.9184
      -386.7974
  -4500539.53848  -3486212.74244  23170297.8284   23170295.7464
      2477.0474
   3547007.59848   2743973.43645  22478873.4224   22478869.4844
     -2457.7504
  -2418773.86449  -1876231.03347  20949289.5474   20949287.0984
      1326.8284
   -920082.89847   -712123.44342  23932325.5394   23932324.4264
      2695.5474
 04  9 13 21 19 45.0000000  0  8G 3G 8G13G19G23G27G10G28
  -1349181.25948  -1044966.15844  22989673.0704   22989672.9384
       309.3444
  -4496782.29848  -3484116.20346  21772601.2424   21772599.3404
      2565.4844
    -46835.51049    -37406.84247  20314233.5004   20314229.8594
      -394.4694
  -4537652.71648  -3515132.03944  23163235.3054   23163233.4574
      2471.1254
   3583905.48448   2772724.99545  22485894.3984   22485891.3714
     -2462.2194
  -2438657.98149  -1891725.14547  20945505.8754   20945503.0474
      1324.1724
   -960461.32847   -743587.15842  23924641.1804   23924641.3244
      2688.0944
   -172269.71057   -118981.37052  24150743.3594   24150744.9344
      3911.5944
 04  9 13 21 20  0.0000000  0  8G 3G 8G13G19G23G27G10G28
  -1353749.06748  -1048525.47644  22988803.6954   22988803.4884
       299.7974
  -4535240.02948  -3514083.24746  21765282.4614   21765280.8364
      2562.2664
    -40859.58149    -32750.27447  20315370.7504   20315367.5314
      -402.3754
  -4574672.99248  -3543978.94644  23156190.5314   23156188.8984
      2465.0004
   3620875.12248   2801532.47245  22492929.9774   22492926.7234
     -2466.9374
  -2458498.22049  -1907185.06347  20941730.3914   20941727.9614
      1321.2504
  -1000723.04547   -774959.88042  23916979.9224   23916979.6254
      2680.2344
   -230925.93247   -164687.45642  24139582.1174   24139583.2194
      3909.2344
 04  9 13 21 20 15.0000000  0  8G 3G 8G13G19G23G27G10G28
  -1358173.40047  -1051972.99844  22987962.1564   22987961.5314
       290.3914
  -4573649.35548  -3544012.57446  21757973.6254   21757971.8714
      2559.1724
    -34765.57549    -28001.70947  20316530.5864   20316526.8834
      -410.0004
  -4611600.18148  -3572753.32144  23149163.5314   23149161.4024
      2458.8444
   3657916.33847   2830395.70045  22499978.6884   22499975.7934
     -2471.6414
  -2478294.47649  -1922610.71947  20937963.2194   20937960.5634
      1318.4694
  -1040867.73547   -806241.42042  23909340.0784   23909340.4494
      2672.5474
   -289544.96647   -210364.52542  24128427.3754   24128427.9614
      3906.8594
 04  9 13 21 20 30.0000000  0  8G 3G 8G13G19G23G27G10G28
  -1362457.09848  -1055310.93944  22987146.8674   22987146.3484
       280.8594
  -4612013.09248  -3573906.37346  21750673.0634   21750671.5704
      2556.0314
    -28556.45549    -23163.45447  20317711.7894   20317708.6334
      -417.8754
  -4648436.70848  -3601457.05045  23142153.8444   23142151.3014
      2452.6884
   3695026.08148   2859312.34145  22507040.3204   22507037.2774
     -2476.3594
  -2498049.57049  -1938004.29147  20934204.3444   20934201.7664
      1315.5164
  -1080897.94147   -837433.75542  23901723.0004   23901723.2814
      2664.7504
   -348129.26747   -256014.58742  24117278.9534   24117279.6454
      3904.2974
 04  9 13 21 20 45.0000000  0  8G 3G 8G13G19G23G27G10G28
  -1366599.77447  -1058538.99644  22986358.1954   22986357.7704
       271.3594
  -4650330.47648  -3603764.04946  21743382.1174   21743380.1094
      2552.7814
    -22231.69649    -18235.07447  20318915.6954   20318911.9064
      -425.5784
  -4685181.90948  -3630089.61345  23135161.7114   23135158.8364
      2446.5164
   3732204.51847   2888282.50045  22514114.9844   22514112.0474
     -2480.9374
  -2517763.25249  -1953365.59247  20930452.8674   20930449.8444
      1312.7814
  -1120812.96247   -868536.34442  23894127.7274   23894127.1954
      2657.0004
   -406678.16747   -301637.01142  24106138.2274   24106137.7464
      3901.8594
 04  9 13 21 21  0.0000000  0  8G 3G 8G13G19G23G27G10G28
  -1370599.95547  -1061656.00944  22985597.0864   22985596.3674
       261.9064
  -4688600.22548  -3633584.60746  21736099.4614   21736097.5044
      2549.7344
    -15789.98549    -13215.56947  20320141.3594   20320137.6884
      -433.3754
  -4721834.11548  -3658649.70144  23128186.9144   23128184.1684
      2440.2974
   3769452.91347   2917307.17845  22521203.5474   22521200.2274
     -2485.5474
  -2537434.15349  -1968693.57047  20926709.5704   20926706.2034
      1309.9384
  -1160611.20747   -899547.95142  23886554.0944   23886553.4494
      2649.3284
   -465190.19247   -347230.68542  24095002.8444   24095003.5164
      3899.5634
 04  9 13 21 21 15.0000000  0  8G 3G 8G13G19G23G27G10G28
  -1374457.04548  -1064661.54044  22984862.9384   22984862.4304
       252.3284
  -4726821.83648  -3663367.66546  21728825.9224   21728824.2194
      2546.5004
     -9230.64649     -8104.40047  20321389.4774   20321386.3554
      -441.2344
  -4758392.38548  -3687136.60845  23121230.1174   23121227.5234
      2434.0164
   3806771.74447   2946386.74545  22528304.9454   22528302.1134
     -2490.3124
  -2557061.61749  -1983987.69547  20922974.3834   20922971.5044
      1306.9844
  -1200291.88947   -930467.94242  23879002.9774   23879003.0434
      2641.5004
   -523664.52447   -392795.02242  24083875.5394   24083876.0434
      3896.9694
 04  9 13 21 21 30.0000000  0  8G 3G 8G13G19G23G27G10G28
  -1378170.06648  -1067554.78443  22984156.5084   22984156.1094
       242.7814
  -4764994.34749  -3693112.45746  21721561.6644   21721560.1174
      2543.2194
     -2552.82349     -2900.90847  20322660.8594   20322657.2894
      -449.1874
  -4794855.34748  -3715549.24844  23114291.2194   23114288.9884
      2427.6724
   3844161.67248   2975521.71345  22535420.3594   22535417.0204
     -2494.9694
  -2576644.71249  -1999247.24747  20919247.8524   20919245.1644
      1304.0944
  -1239853.86246   -961295.40542  23871474.9384   23871474.8324
      2633.4064
   -582100.06047   -438329.15442  24072755.1414   24072755.6994
      3894.4064
 04  9 13 21 21 45.0000000  0  8G 3G 8G13G19G23G27G10G28
  -1381739.31448  -1070336.01544  22983477.5474   22983476.6374
       233.1564
  -4803117.89749  -3722819.09246  21714307.5084   21714305.3984
      2539.8754
      4243.34249      2394.79547  20323953.6484   20323950.1604
      -457.1414
  -4831223.05448  -3743887.65044  23107370.8134   23107368.1374
      2421.2974
   3881622.32348   3004711.77345  22542548.7344   22542545.1884
     -2499.7814
  -2596183.76549  -2014472.47447  20915529.6024   20915526.7274
      1301.0784
  -1279297.19147   -992030.45542  23863968.8984   23863968.8444
      2625.5784
   -640496.85547   -483833.02742  24061642.9924   24061643.0474
      3891.6884
 04  9 13 21 22  0.0000000  0  8G 3G 8G13G19G23G27G10G28
  -1385163.80348  -1073004.42844  22982825.7584   22982825.2774
       223.5004
  -4841191.68449  -3752486.95546  21707061.6644   21707059.8754
      2536.5944
     11158.75049      7783.42247  20325269.6954   20325266.4224
      -465.0004
  -4867494.14848  -3772150.76545  23100468.5784   23100466.3524
      2414.8284
   3919154.45047   3033957.53845  22549691.2114   22549687.7814
     -2504.5004
  -2615677.83149  -2029662.64247  20911820.0394   20911817.3054
      1298.0314
  -1318620.69347  -1022672.11743  23856485.6024   23856485.9104
      2617.5474
   -698853.68747   -529305.78442  24050538.1724   24050538.7154
      3889.0944
 04  9 13 21 22 15.0000000  0  8G 3G 8G13G19G23G27G10G28
  -1388444.70248  -1075560.99244  22982201.1724   22982201.6174
       214.1094
  -4879216.77548  -3782116.87846  21699825.9924   21699824.4614
      2533.5314
     18192.33849     13264.11847  20326608.1564   20326604.6564
      -472.6874
  -4903669.51548  -3800339.30044  23093584.1644   23093582.0554
      2408.6884
   3956756.83447   3063258.05045  22556846.3674   22556843.1414
     -2508.9694
  -2635127.99049  -2044818.61247  20908118.9064   20908116.6764
      1295.3444
  -1357825.20746  -1053221.06742  23849025.4304   23849025.1134
      2609.7664
   -757171.38047   -574748.05842  24039440.2814   24039440.9924
      3886.7814
 04  9 13 21 22 30.0000000  0  8G 3G 8G13G19G23G27G10G28
  -1391583.99248  -1078007.19244  22981603.9304   22981603.9384
       204.4694
  -4917195.07648  -3811710.34146  21692599.1174   21692597.3054
      2530.2974
     25342.10449     18835.36447  20327968.4774   20327964.9964
      -480.5624
  -4939750.81348  -3828454.54044  23086718.6644   23086715.6604
      2402.2344
   3994427.22848   3092611.55145  22564014.5314   22564011.4774
     -2513.7194
  -2654536.29249  -2059941.95347  20904425.8834   20904422.8714
      1292.4694
  -1396912.30847  -1083678.54342  23841587.7114   23841587.4614
      2601.7504
   -815451.92747   -620161.36242  24028350.4774   24028350.1644
      3884.0784
 04  9 13 21 22 45.0000000  0  8G 3G 8G13G19G23G27G10G28
  -1394579.12848  -1080341.08044  22981034.0234   22981033.7384
       194.9694
  -4955124.21348  -3841265.48947  21685381.0554   21685379.1604
      2527.0164
     32610.51149     24499.04847  20329351.6724   20329348.1524
      -488.4694
  -4975735.34348  -3856494.36544  23079870.4454   23079868.1524
      2395.7664
   4032167.92247   3122019.84545  22571196.9384   22571193.2344
     -2518.3444
  -2673900.16949  -2075030.68647  20900740.8364   20900738.1214
      1289.5004
  -1435879.42146  -1114042.49343  23834171.5234   23834171.6134
      2593.8754
   -873692.64347   -665543.65642  24017266.6644   24017267.1134
      3881.4384
 04  9 13 21 23  0.0000000  0  8G 3G 8G13G19G23G27G10G28
  -1397431.26348  -1082563.52844  22980491.4384   22980490.7664
       185.5004
  -4993005.01048  -3870782.97747  21678172.9384   21678171.3204
      2523.9064
     39996.59549     30254.43247  20330757.2114   20330753.3054
      -496.2344
  -5011623.77848  -3884459.31445  23073041.1644   23073038.7274
      2389.5004
   4069977.69648   3151481.95345  22578392.0394   22578388.9304
     -2522.8754
  -2693220.84049  -2090085.74847  20897064.1804   20897061.3594
      1286.6564
  -1474727.31146  -1144313.56943  23826779.8594   23826779.8794
      2586.0474
   -931894.39247   -710895.56542  24006191.7504   24006192.0354
      3878.8914
 04  9 13 21 23 15.0000000  0  8G 3G 8G13G19G23G27G10G28
  -1400140.18448  -1084674.37444  22979975.2734   22979975.3954
       175.6254
  -5030837.50348  -3900262.81847  21670973.7504   21670971.7504
      2520.3134
     47500.31248     36101.46347  20332185.2664   20332181.9064
      -504.2814
  -5047415.67448  -3912349.04844  23066230.2504   23066228.0164
      2382.6724
   4107856.53048   3180997.85845  22585599.7584   22585596.7734
     -2527.7504
  -2712498.17749  -2105107.04247  20893395.8674   20893393.2424
      1283.5004
  -1513455.71346  -1174491.50042  23819410.5004   23819409.6484
      2577.7664
   -990056.78647   -756216.81442  23995123.6954   23995123.9964
      3875.9224
 04  9 13 21 23 30.0000000  0  8G 3G 8G13G19G23G27G10G28
  -1402704.97048  -1086672.89344  22979487.8594   22979487.2664
       166.3284
  -5068620.74548  -3929704.27847  21663783.5554   21663781.8404
      2517.3284
     55122.70649     42040.99047  20333635.6644   20333632.3204
      -512.0004
  -5083109.75148  -3940162.55344  23059437.8364   23059435.7384
      2376.5314
   4145805.11048   3210568.14645  22592821.5634   22592818.2344
     -2532.0624
  -2731731.10349  -2120093.72847  20889735.8364   20889733.1294
      1280.8594
  -1552063.27747  -1204575.32142  23812063.0234   23812062.6564
      2569.9534
  -1048178.59947   -801506.42842  23984063.0004   23984063.2734
      3873.5004
 04  9 13 21 23 45.0000000  0  8G 3G 8G13G19G23G27G10G28
  -1405126.67348  -1088559.94944  22979026.5944   22979025.9104
       156.6254
  -5106355.74648  -3959108.15047  21656602.9534   21656601.1724
      2514.0004
     62862.72549     48072.16847  20335108.6174   20335105.0044
      -519.9844
  -5118706.80348  -3967900.44845  23052663.9614   23052661.7384
      2369.7974
   4183822.26047   3240191.84045  22600055.6414   22600052.9694
     -2536.8914
  -2750920.80049  -2135046.73347  20886084.2344   20886081.4414
      1277.7814
  -1590550.98647  -1234565.66242  23804738.7114   23804738.6844
      2561.7344
  -1106260.86347   -846765.21742  23973010.8754   23973010.3834
      3870.7664
 04  9 13 21 24  0.0000000  0  8G 3G 8G13G19G23G27G10G28
  -1407404.66548  -1090335.01544  22978593.5234   22978592.9224
       147.2034
  -5144041.95448  -3988474.00547  21649431.3984   21649429.3794
      2510.8134
     70721.03348     54195.51047  20336604.0394   20336600.7304
      -527.7664
  -5154205.95048  -3995562.07145  23045908.8364   23045906.1954
      2363.3914
   4221908.43248   3269869.32445  22607303.4924   22607300.0784
     -2541.2814
  -2770066.54449  -2149965.49147  20882440.7504   20882438.3204
      1274.9844
  -1628917.96147  -1264462.03142  23797438.0784   23797437.5944
      2553.7664
  -1164302.57447   -891992.46342  23961965.7664   23961966.0124
      3868.1414
 04  9 13 21 24 15.0000000  0  8G 3G 8G13G19G23G27G10G28
  -1409539.26648  -1091998.34644  22978187.4534   22978186.8444
       137.4534
  -5181679.53348  -4017801.97147  21642269.3834   21642267.3914
      2507.4844
     78697.13849     60410.65147  20338121.9534   20338118.3594
      -535.7504
  -5189607.21248  -4023147.39644  23039171.9614   23039169.8134
      2356.6884
   4260062.99447   3299600.10245  22614564.2194   22614560.9384
     -2546.0474
  -2789168.85949  -2164850.40647  20878805.8834   20878803.1254
      1271.9844
  -1667164.47746  -1294264.47442  23790159.7974   23790159.4224
      2545.7344
  -1222304.08347   -937188.33642  23950928.2034   23950928.0554
      3865.2974
 04  9 13 21 24 30.0000000  0  8G 3G 8G13G19G23G27G10G28
  -1411530.48548  -1093549.94544  22977808.2974   22977808.4804
       127.9224
  -5219268.25648  -4047091.86046  21635116.2424   21635114.2194
      2504.2194
     86791.29249     66717.78247  20339662.0004   20339658.6484
      -543.5164
  -5224910.10448  -4050656.08145  23032453.7664   23032451.7234
      2350.0944
   4298285.97247   3329384.18545  22621838.1094   22621834.6094
     -2550.5314
  -2808227.59449  -2179701.36447  20875179.0554   20875176.1844
      1269.1094
  -1705290.07446  -1323972.71642  23782904.6884   23782904.6994
      2537.7034
  -1280264.90447   -982352.49642  23939898.0084   23939898.5164
      3862.6094
 04  9 13 21 24 45.0000000  0  8G 3G 8G13G19G23G27G10G28
  -1413379.58048  -1094990.81744  22977456.6484   22977456.3874
       118.4844
  -5256809.64548  -4076344.87047  21627972.2504   21627970.8524
      2501.1094
     95002.16048     73115.84047  20341224.8134   20341221.4104
      -551.3914
  -5260115.70148  -4078088.94845  23025754.6724   23025752.1604
      2343.7034
   4336575.87748   3359220.42345  22629124.0474   22629120.6024
     -2554.9534
  -2827244.01049  -2194519.35347  20871560.4304   20871557.6334
      1266.2814
  -1743295.71846  -1353587.50142  23775672.8984   23775671.8914
      2529.5784
  -1338186.25547  -1027485.89042  23928876.3204   23928876.6134
      3860.0004
 04  9 13 21 25  0.0000000  0  8G 3G 8G13G19G23G27G10G28
  -1415084.68448  -1096319.46744  22977132.2584   22977131.2704
       109.0314
  -5294301.65449  -4105559.39747  21620837.9064   21620836.1684
      2498.0004
    103331.41049     79606.16447  20342809.4454   20342806.0204
      -559.0784
  -5295221.84048  -4105444.32845  23019074.2664   23019071.7664
      2337.2974
   4374934.32848   3389110.08045  22636423.5944   22636420.5004
     -2559.3914
  -2846216.38649  -2209303.00247  20867949.9224   20867947.5234
      1263.5164
  -1781179.46447  -1383107.26042  23768463.0394   23768463.1254
      2521.6884
  -1396066.02947  -1072586.91142  23917861.8284   23917862.4184
      3857.4224
 04  9 13 21 25 15.0000000  0  8G 3G 8G13G19G23G27G10G28
  -1416647.10248  -1097536.92344  22976834.3054   22976833.8244
        99.3134
  -5331745.59648  -4134736.47446  21613712.1414   21613710.8094
      2494.6564
    111778.06849     86187.96447  20344417.1094   20344413.5554
      -567.0624
  -5330229.44848  -4132722.92345  23012412.0164   23012409.8444
      2330.5634
   4413359.93947   3419052.05245  22643735.7424   22643732.6374
     -2563.8914
  -2865145.77049  -2224053.17747  20864347.7664   20864345.4804
      1260.5944
  -1818942.22046  -1412532.78742  23761277.2974   23761276.5784
      2513.4694
  -1453905.36647  -1117656.43342  23906855.8444   23906855.7274
      3854.5314
 04  9 13 21 25 30.0000000  0  8G 3G 8G13G19G23G27G10G28
  -1418066.44048  -1098642.91944  22976564.9224   22976564.3284
        89.7194
  -5369141.14748  -4163875.84047  21606596.4534   21606594.8054
      2491.3284
    120342.23049     92861.32947  20346046.7974   20346042.9804
      -574.9064
  -5365137.84248  -4159924.20245  23005769.1804   23005767.4184
      2323.8134
   4451852.76847   3449046.41145  22651061.0634   22651057.6844
     -2568.4534
  -2884032.04249  -2238769.73947  20860753.8524   20860751.0634
      1257.5314
  -1856583.60046  -1441863.73242  23754114.4534   23754114.2464
      2505.3594
  -1511703.76347  -1162694.01942  23895857.0944   23895856.7734
      3851.7504
 04  9 13 21 25 45.0000000  0  8G 3G 8G13G19G23G27G10G28
  -1419341.43248  -1099636.40344  22976321.9844   22976321.3244
        80.0944
  -5406486.88748  -4192976.39647  21599489.7424   21599487.5704
      2487.9534
    129025.32049     99627.36347  20347698.8204   20347695.1294
      -582.9374
  -5399945.41648  -4187046.93545  22999145.6414   22999143.0904
      2317.0164
   4490414.16747   3479094.20445  22658398.6564   22658395.5824
     -2573.1414
  -2902873.72049  -2253451.56747  20857168.5164   20857165.8594
      1254.5634
  -1894101.91146  -1471098.73942  23746975.3054   23746975.0434
      2497.0474
  -1569459.54247  -1207698.44642  23884865.8984   23884866.3364
      3848.8284
 04  9 13 21 26  0.0000000  0  8G 3G 8G13G19G23G27G10G28
  -1420471.55648  -1100517.00544  22976107.0474   22976106.6054
        70.5004
  -5443782.36248  -4222037.77446  21592392.3914   21592390.9144
      2484.7344
    137827.80649    106486.43047  20349373.9924   20349370.4734
      -590.8124
  -5434651.37448  -4214090.47045  22992540.9064   22992538.9304
      2310.3444
   4529044.31947   3509195.55845  22665749.8984   22665746.7274
     -2577.6094
  -2921670.44649  -2268098.36047  20853591.4224   20853589.0204
      1251.6414
  -1931496.49045  -1500237.33443  23739858.2114   23739858.4734
      2488.9384
  -1627172.11647  -1252669.17642  23873883.0474   23873883.3014
      3846.0634
 04  9 13 21 26 15.0000000  0  8G 3G 8G13G19G23G27G10G28
  -1421458.01148  -1101285.69444  22975918.7974   22975918.9304
        61.0164
  -5481028.81149  -4251060.97447  21585304.7424   21585302.9534
      2481.5004
    146748.43049    113437.55647  20351071.8364   20351068.3754
      -598.6724
  -5469256.69448  -4241055.59945  22985956.2974   22985953.7194
      2303.7344
   4567741.80747   3539349.39145  22673113.4924   22673111.0784
     -2582.0474
  -2940423.41349  -2282711.06047  20850023.2114   20850020.5664
      1248.7194
  -1968768.20045  -1529280.25943  23732766.1724   23732766.4694
      2480.5164
  -1684842.45948  -1297607.02343  23862909.6174   23862909.3524
      3843.2814
 04  9 13 21 26 30.0000000  0  8G 3G 8G13G19G23G27G10G28
  -1422301.31248  -1101942.81743  22975758.1024   22975758.4264
        51.3754
  -5518226.54949  -4280046.20347  21578226.1254   21578224.4344
      2478.1564
    155786.75649    120480.41047  20352791.5164   20352787.7974
      -606.5944
  -5503761.36448  -4267942.30044  22979390.3204   22979387.3834
      2296.8284
   4606506.02047   3569555.21145  22680490.2034   22680487.1024
     -2586.6724
  -2959132.94549  -2297289.90447  20846462.7814   20846460.1374
      1245.7974
  -2005917.41646  -1558227.61742  23725697.8054   23725696.9654
      2472.5314
  -1742470.82347  -1342512.12542  23851942.7274   23851943.1764
      3840.4384
 04  9 13 21 26 45.0000000  0  8G 3G 8G13G19G23G27G10G28
  -1423000.42348  -1102487.56643  22975625.9454   22975625.1804
        41.6564
  -5555374.82549  -4308992.89347  21571157.5634   21571155.7194
      2474.7034
    164943.76349    127615.71547  20354534.1954   20354530.8404
      -614.5944
  -5538164.26048  -4294749.70044  22972843.7974   22972840.8094
      2289.9694
   4645337.74547   3599813.64245  22687879.8054   22687876.3914
     -2591.1724
  -2977798.19049  -2311834.24847  20842910.9924   20842907.8674
      1242.7504
  -2042942.81846  -1587078.56442  23718651.5004   23718650.2304
      2464.0164
  -1800056.01447  -1387383.64343  23840985.1564   23840985.0164
      3837.4694
 04  9 13 21 27  0.0000000  0  8G 3G 8G13G19G23G27G10G28
  -1423553.89348  -1102918.82943  22975520.6254   22975519.5434
        32.2344
  -5592471.82349  -4337899.62647  21564097.7584   21564095.8244
      2471.5784
    174221.04949    134844.76947  20356299.3594   20356296.2274
      -622.3594
  -5572463.47847  -4321476.31345  22966316.4224   22966313.5354
      2283.2814
   4684238.30347   3630125.69545  22695282.2194   22695279.6764
     -2595.4534
  -2996417.49849  -2326342.79147  20839367.8674   20839365.2734
      1239.9064
  -2079842.65246  -1615831.66142  23711629.5944   23711628.8874
      2455.8914
  -1857596.28648  -1432220.10442  23830034.9844   23830034.8674
      3834.6724
 04  9 13 21 27 15.0000000  0  8G 3G 8G13G19G23G27G10G28
  -1423965.22348  -1103239.35044  22975442.2584   22975441.6414
        22.6724
  -5629521.08249  -4366769.15346  21557047.5164   21557045.4574
      2468.3284
    183615.13849    142164.83347  20358087.1174   20358083.9184
      -630.2194
  -5606662.06447  -4348124.50644  22959808.1804   22959805.5164
      2276.5164
   4723204.24948   3660488.72445  22702697.4774   22702694.1804
     -2599.9374
  -3014994.38949  -2340818.28447  20835832.4384   20835829.7774
      1237.0164
  -2116620.23646  -1644489.52642  23704630.3524   23704630.3554
      2447.7034
  -1915094.93447  -1477024.15942  23819093.3364   23819093.5944
      3831.7974
 04  9 13 21 27 30.0000000  0  8G 3G 8G13G19G23G27G10G28
  -1424232.88948  -1103447.93244  22975391.5474   22975390.7774
        13.2194
  -5666520.91849  -4395600.18347  21550006.6024   21550004.8284
      2465.1254
    193127.53349    149577.07347  20359897.2114   20359893.6484
      -637.9374
  -5640758.32247  -4374692.97745  22953320.1484   22953317.4024
      2269.7664
   4762236.76647   3690903.61645  22710125.0784   22710122.0784
     -2604.2664
  -3033527.38349  -2355259.57647  20832305.9224   20832303.1484
      1234.2194
  -2153273.87247  -1673050.76342  23697656.6414   23697655.8524
      2439.5784
  -1972550.24347  -1521794.45442  23808160.1644   23808159.3484
      3828.9694
 04  9 13 21 27 45.0000000  0  8G 3G 8G13G19G23G27G10G28
  -1424358.50248  -1103545.80644  22975367.2344   22975367.0944
         3.5004
  -5703472.91549  -4424393.91346  21542975.2814   21542973.2894
      2461.8134
    202756.50849    157080.17947  20361729.3674   20361726.0904
      -645.9374
  -5674753.60348  -4401182.75145  22946850.9064   22946848.1954
      2262.9224
   4801334.06147   3721368.98845  22717565.5944   22717562.6294
     -2608.7344
  -3052018.01249  -2369667.84447  20828787.1174   20828784.6994
      1231.2344
  -2189804.86246  -1701516.45742  23690704.1414   23690703.8714
      2431.2344
  -2029963.63447  -1566532.07242  23797234.5394   23797234.3404
      3826.1414
 04  9 13 21 28  0.0000000  0  8G 3G 8G13G19G23G27G10G28
  -1424341.29848  -1103532.41544  22975370.1414   22975369.8404
        -6.1254
  -5740376.22349  -4453149.72447  21535952.3524   21535950.3914
      2458.3754
    212502.92249    164674.76147  20363584.2814   20363581.1954
      -653.8444
  -5708646.81048  -4427592.99344  22940401.3204   22940398.6524
      2255.9844
   4840496.88647   3751885.41245  22725017.5164   22725014.4694
     -2613.1564
  -3070465.61249  -2384042.60447  20825276.7424   20825274.3554
      1228.2664
  -2226212.18546  -1729885.77143  23683776.9224   23683775.5824
      2422.7194
  -2087334.08348  -1611236.26442  23786316.8754   23786317.0394
      3823.0944
 04  9 13 21 28 15.0000000  0  8G 3G 8G13G19G23G27G10G28
  -1424179.44148  -1103406.27844  22975401.5704   22975400.6294
       -15.6414
  -5777229.10949  -4481866.24247  21528939.5084   21528937.7624
      2455.1884
    222368.78949    172362.44047  20365461.6954   20365458.2274
      -661.7194
  -5742435.62748  -4453921.89544  22933971.6174   22933968.4304
      2249.0944
   4879726.87447   3782454.16745  22732482.3594   22732480.0554
     -2617.5944
  -3088868.07049  -2398382.17147  20821774.8204   20821771.7734
      1225.3754
  -2262493.74546  -1758157.10843  23676872.3984   23676871.3554
      2414.6094
  -2144659.44248  -1655905.28343  23775408.7344   23775408.4064
      3820.1254
 04  9 13 21 28 30.0000000  0  8G 3G 8G13G19G23G27G10G28
  -1423874.55948  -1103168.71544  22975459.3524   22975458.6054
       -25.0474
  -5814033.07549  -4510544.63647  21521936.1254   21521934.0984
      2452.0004
    232352.42049    180141.88047  20367361.8134   20367358.4224
      -669.5164
  -5776121.32947  -4480170.45245  22927560.9844   22927558.7544
      2242.3914
   4919022.13547   3813073.80744  22739960.3284   22739957.4694
     -2621.8754
  -3107227.10249  -2412687.91447  20818281.2584   20818278.2234
      1222.5164
  -2298650.79447  -1786331.41143  23669992.1174   23669990.5474
      2406.3134
  -2201941.19148  -1700540.35843  23764508.3284   23764507.8054
      3817.2974
 04  9 13 21 28 45.0000000  0  8G 3G 8G13G19G23G27G10G28
  -1423425.39948  -1102818.70043  22975544.7584   22975544.1454
       -34.7974
  -5850786.89949  -4539183.97047  21514941.8444   21514940.0164
      2448.4694
    242455.03649    188014.04447  20369284.2424   20369280.4844
      -677.5784
  -5809702.33548  -4506337.41945  22921170.9774   22921168.3554
      2235.2034
   4958383.77847   3843745.14145  22747450.8834   22747447.5434
     -2626.3754
  -3125541.40949  -2426958.79347  20814796.2034   20814793.2384
      1219.4064
  -2334682.07947  -1814407.70943  23663135.6804   23663134.8054
      2397.8284
  -2259177.79448  -1745140.20343  23753616.3674   23753615.7114
      3814.2194
 04  9 13 21 29  0.0000000  0  8G 3G 8G13G19G23G27G10G28
  -1422832.36248  -1102356.57844  22975657.3754   22975656.9884
       -44.2974
  -5887490.86649  -4567784.43547  21507957.3524   21507955.4024
      2445.3594
    252676.19049    195978.55847  20371228.9614   20371225.4494
      -685.2814
  -5843178.86948  -4532422.98645  22914800.7194   22914798.0124
      2228.3134
   4997811.29547   3874467.83045  22754954.0394   22754950.6684
     -2630.6254
  -3143811.44349  -2441195.18147  20811319.1414   20811316.7194
      1216.5314
  -2370587.63347  -1842386.04943  23656302.4844   23656301.6684
      2389.5944
  -2316369.54248  -1789705.16142  23742733.4224   23742732.8634
      3811.3594
 04  9 13 21 29 15.0000000  0  8G 3G 8G13G19G23G27G10G28
  -1422096.86048  -1101783.47143  22975797.2114   22975797.1294
       -53.8124
  -5924146.34049  -4596347.12847  21500982.0084   21500979.7544
      2442.0004
    263014.50949    204034.38047  20373196.2664   20373192.8834
      -693.2194
  -5876551.97148  -4558427.96345  22908449.8914   22908447.5084
      2221.2504
   5037303.21448   3905240.70345  22762469.4774   22762466.3324
     -2635.1254
  -3162038.52149  -2455398.09947  20807851.0314   20807848.1134
      1213.6414
  -2406368.43447  -1870267.20143  23649492.8054   23649493.1054
      2381.2034
  -2373517.53948  -1834235.99043  23731858.3594   23731858.0044
      3808.3594
 04  9 13 21 29 30.0000000  0  8G 3G 8G13G19G23G27G10G28
  -1421217.31648  -1101098.09343  22975964.9454   22975964.4024
       -63.3124
  -5960751.62749  -4624870.70947  21494016.4064   21494014.3834
      2438.8594
    273471.65649    212182.80247  20375186.2734   20375182.8594
      -700.9694
  -5909819.85648  -4584350.93845  22902119.2424   22902116.7504
      2214.5164
   5076860.85347   3936064.77745  22769996.7344   22769993.3794
     -2639.2814
  -3180221.13249  -2469566.35447  20804391.1334   20804388.3594
      1210.8134
  -2442022.85346  -1898049.82143  23642709.1644   23642708.6414
      2372.7974
  -2430619.96248  -1878731.31243  23720992.1484   23720991.6684
      3805.4064
 04  9 13 21 29 45.0000000  0  8G 3G 8G13G19G23G27G10G28
  -1420194.09948  -1100300.79643  22976159.5634   22976158.5944
       -72.7814
  -5997307.04649  -4653355.43047  21487060.0634   21487058.3014
      2435.5164
    284047.28749    220423.53647  20377198.7894   20377195.2894
      -708.8284
  -5942982.48048  -4610191.88945  22895808.4304   22895805.8954
      2207.4694
   5116483.64048   3966939.61645  22777536.5314   22777533.6644
     -2643.5474
  -3198359.54549  -2483700.18347  20800939.4694   20800936.8094
      1207.8914
  -2477551.14647  -1925734.16643  23635947.9224   23635947.3484
      2364.5004
  -2487677.05148  -1923191.32543  23710134.5474   23710133.6764
      3802.4064
 04  9 13 21 30  0.0000000  0  8G 3G 8G13G19G23G27G10G28
  -1419028.15748  -1099392.26843  22976381.5474   22976380.8554
       -82.6724
  -6033813.54049  -4681802.02847  21480113.0394   21480111.3754
      2432.0314
    294740.38149    228755.80447  20379233.7734   20379230.1804
      -716.9534
  -5976040.36648  -4635951.24845  22889517.9534   22889515.2664
      2200.2504
   5156170.52948   3997864.40545  22785088.8754   22785085.9104
     -2648.1564
  -3216454.62749  -2497800.24847  20797495.8834   20797493.0274
      1204.7814
  -2512953.89247  -1953320.69843  23629211.3674   23629210.4384
      2355.9064
  -2544689.35148  -1967616.42143  23699285.2274   23699284.5204
      3799.1564
 04  9 13 21 30 15.0000000  0  8G 3G 8G13G19G23G27G10G28
  -1417719.10948  -1098372.21943  22976630.6954   22976629.6604
       -91.9844
  -6070270.77849  -4710210.24547  21473175.7114   21473173.7114
      2428.9384
    305551.20549    237179.81447  20381290.6804   20381287.7274
      -724.6094
  -6008992.94447  -4661628.54345  22883247.3364   22883244.2464
      2193.4694
   5195921.65948   4028839.25044  22792653.4304   22792650.4304
     -2652.0624
  -3234506.12249  -2511866.34447  20794061.0394   20794058.0744
      1202.0004
  -2548230.64246  -1980809.05643  23622498.6094   23622497.5904
      2347.5784
  -2601656.41548  -2012006.24943  23688444.5944   23688443.8714
      3796.3754
 04  9 13 21 30 30.0000000  0  8G 3G 8G13G19G23G27G10G28
  -1416266.71948  -1097240.48643  22976907.1174   22976906.1454
      -101.5624
  -6106678.51249  -4738579.89447  21466247.4774   21466245.4494
      2425.5634
    316480.02749    245695.76947  20383370.3914   20383367.2854
      -732.5164
  -6041839.67048  -4687223.35745  22876996.6414   22876994.3874
      2186.2974
   5235737.10748   4059864.21844  22800230.0234   22800227.1764
     -2656.4224
  -3252513.74549  -2525898.24847  20790633.7584   20790630.7544
      1199.0474
  -2583380.84647  -2008198.82443  23615810.2034   23615808.8754
      2339.0784
  -2658577.90248  -2056360.61643  23677613.5704   23677612.4064
      3793.2034
 04  9 13 21 30 45.0000000  0  8G 3G 8G13G19G23G27G10G28
  -1414671.33148  -1095997.32243  22977210.6254   22977209.8164
      -111.0784
  -6143036.80949  -4766911.01747  21459328.5474   21459326.9844
      2422.3444
    327526.71949    254303.57547  20385472.5864   20385469.3284
      -740.2814
  -6074580.53847  -4712735.68645  22870765.6094   22870763.4654
      2179.2664
   5275616.48248   4090938.98944  22807818.7894   22807816.0984
     -2660.7034
  -3270477.61749  -2539896.07347  20787216.1254   20787212.9534
      1196.1884
  -2618404.46047  -2035489.93143  23609144.8914   23609143.8954
      2330.7344
  -2715453.68748  -2100679.32443  23666789.4304   23666789.4734
      3790.2814
 04  9 13 21 31  0.0000000  0  8G 3G 8G13G19G23G27G10G28
  -1412933.58348  -1094643.24543  22977541.3204   22977540.2814
      -120.5474
  -6179346.38349  -4795204.17947  21452418.9144   21452417.3594
      2419.1414
    338690.45149    263002.57147  20387596.9144   20387593.8094
      -748.0314
  -6107215.87747  -4738165.78345  22864555.4534   22864553.2544
      2172.2504
   5315558.85848   4122062.86144  22815419.5234   22815416.8134
     -2664.7664
  -3288398.50549  -2553860.39947  20783805.6174   20783802.6254
      1193.4384
  -2653302.00847  -2062682.77943  23602504.0864   23602503.0664
      2322.4224
  -2772284.42148  -2144962.94243  23655974.9844   23655974.5944
      3787.3444
 04  9 13 21 31 15.0000000  0  8G 3G 8G13G19G23G27G10G28
  -1411052.62748  -1093177.57444  22977899.4844   22977899.0164
      -130.2974
  -6215606.21849  -4823458.57347  21445518.7664   21445516.9614
      2415.5944
    349972.22249    271793.54847  20389743.7734   20389740.7034
      -756.0784
  -6139744.41847  -4763512.65945  22858365.8754   22858363.2624
      2165.0474
   5355565.09748   4153236.49244  22823031.8984   22823029.2974
     -2669.2344
  -3306275.47049  -2567790.49647  20780403.5704   20780400.4414
      1190.2664
  -2688072.28247  -2089776.49243  23595887.0704   23595886.9224
      2313.7814
  -2829068.82948  -2189210.46343  23645169.0704   23645169.2074
      3784.0314
 04  9 13 21 31 30.0000000  0  8G 3G 8G13G19G23G27G10G28
  -1409027.63748  -1091599.66044  22978284.9694   22978283.7774
      -139.7974
  -6251815.37149  -4851673.48347  21438628.6024   21438626.8364
      2412.2814
    361372.93248    280677.19847  20391913.3444   20391910.0664
      -764.0314
  -6172164.93748  -4788775.36245  22852196.5554   22852193.9804
      2157.7814
   5395635.88148   4184460.42544  22830657.4614   22830655.1374
     -2673.4844
  -3324107.49348  -2581685.58147  20777010.1334   20777007.7114
      1187.3914
  -2722714.11947  -2116770.08043  23589295.1564   23589294.4654
      2305.2194
  -2885805.81948  -2233421.04243  23634372.4774   23634371.7624
      3780.9534
 04  9 13 21 31 45.0000000  0  8G 3G 8G13G19G23G27G10G28
  -1406859.36048  -1089910.08043  22978696.8134   22978696.3054
      -149.3914
  -6287974.54149  -4879849.43747  21431747.6724   21431745.7194
      2408.8754
    372891.70848    289652.87447  20394105.3364   20394102.2304
      -771.9694
  -6204477.99148  -4813954.33545  22846047.3754   22846044.5004
      2150.5474
   5435770.18948   4215733.84944  22838294.9844   22838292.1524
     -2677.7664
  -3341895.42248  -2595546.29647  20773625.3054   20773623.0274
      1184.3134
  -2757228.18347  -2143664.14143  23582727.3754   23582726.7344
      2296.6254
  -2942495.94648  -2277595.09143  23623584.3914   23623583.8244
      3777.6564
 04  9 13 21 31 59.9990000  0  8G 3G 8G13G19G23G27G10G28
  -1404546.66448  -1088107.99744  22979137.0734   22979136.8784
      -159.0474
  -6324080.01949  -4907983.56147  21424876.9644   21424874.7654
      2405.5004
    384529.23148    298721.05247  20396319.6364   20396316.2654
      -779.8124
  -6236679.70848  -4839046.54445  22839918.6284   22839916.6164
      2143.2034
   5475966.62348   4247055.68644  22845943.9874   22845941.4054
     -2682.0944
  -3359636.61448  -2609370.59847  20770249.3004   20770246.5814
      1181.2814
  -2791610.49347  -2170455.52943  23576184.5264   23576184.2334
      2288.0164
  -2999133.90148  -2321728.45943  23612806.2764   23612805.7614
      3774.5004
 04  9 13 21 32 14.9990000  0  8G 3G 8G13G19G23G27G10G28
  -1402091.87948  -1086195.17343  22979604.4094   22979603.8904
      -168.3124
  -6360139.15649  -4936081.56447  21418015.0584   21418013.0464
      2402.4224
    396284.35149    307880.87847  20398556.6054   20398553.7414
      -787.4694
  -6268776.68848  -4864057.13545  22833811.6364   22833808.8554
      2136.3284
   5516227.79948   4278427.97044  22853605.7374   22853602.9954
     -2686.0624
  -3377336.12349  -2623162.41947  20766881.1594   20766878.3354
      1178.6414
  -2825868.09847  -2197149.73443  23569665.8554   23569664.6474
      2279.6724
  -3055729.59248  -2365828.94343  23602037.0894   23602036.5814
      3771.5944
 04  9 13 21 32 29.9990000  0  8G 3G 8G13G19G23G27G10G28
  -1399495.37248  -1084171.91543  22980098.4094   22980098.0224
      -177.8754
  -6396149.81649  -4964141.81247  21411162.5814   21411160.6874
      2399.0314
    408156.13348    317131.60747  20400815.8394   20400812.4914
      -795.4064
  -6300766.66148  -4888984.36345  22827724.1204   22827720.4054
      2129.0474
   5556550.60148   4309848.26944  22861278.8004   22861276.1444
     -2690.2814
  -3394992.87648  -2636920.92447  20763521.2304   20763518.7334
      1175.6094
  -2859998.68247  -2223744.97043  23563170.9804   23563170.0854
      2271.0944
  -3112279.24848  -2409893.51743  23591275.5814   23591275.0624
      3768.3134
 04  9 13 21 32 44.9990000  0  8G 3G 8G13G19G23G27G10G28
  -1396755.87148  -1082037.25744  22980619.9954   22980619.4724
      -187.3594
  -6432110.47049  -4992163.07747  21404319.4484   21404318.0694
      2395.7344
    420145.74749    326474.14847  20403097.4724   20403093.8194
      -803.2344
  -6332648.07748  -4913826.99745  22821657.7224   22821654.0224
      2121.8594
   5596936.13548   4341317.45144  22868964.3234   22868961.4524
     -2694.3914
  -3412605.60649  -2650645.13147  20760169.5344   20760166.9334
      1172.7194
  -2894000.78747  -2250240.10243  23556700.1754   23556699.2064
      2262.5944
  -3168781.45147  -2453921.14243  23580523.3154   23580522.4954
      3765.2504
 04  9 13 21 32 59.9990000  0  8G 3G 8G13G19G23G27G10G28
  -1393872.77448  -1079790.68444  22981168.4644   22981167.8354
      -196.9694
  -6468020.50649  -5020144.91147  21397486.0114   21397483.9054
      2392.2344
    432254.10849    335909.21847  20405401.9014   20405398.0934
      -811.2194
  -6364419.87348  -4938584.20745  22815611.7614   22815608.3704
      2114.4384
   5637384.93048   4372835.92944  22876661.1674   22876658.7374
     -2698.6874
  -3430173.44649  -2664334.35947  20756826.3474   20756823.7374
      1169.6564
  -2927873.51347  -2276634.41543  23550254.3944   23550253.3554
      2253.8284
  -3225235.27447  -2497911.05343  23569780.3314   23569780.2494
      3761.9064
 04  9 13 21 33 14.9990000  0  8G 3G 8G13G19G23G27G10G28
  -1390846.04448  -1077432.20744  22981744.5344   22981743.8194
      -206.4694
  -6503879.54749  -5048087.00047  21390662.2534   21390660.6054
      2388.9534
    444481.24249    345436.84847  20407728.6444   20407725.2454
      -819.0624
  -6396081.67348  -4963255.69545  22809586.1204   22809583.6904
      2107.2194
   5677897.00448   4404403.71544  22884370.8784   22884367.8784
     -2702.8594
  -3447696.36749  -2677988.57747  20753492.2144   20753489.7494
      1166.7814
  -2961616.40447  -2302927.52743  23543833.2764   23543833.1324
      2245.2664
  -3281640.23947  -2541862.87343  23559047.2304   23559046.6364
      3758.6884
 04  9 13 21 33 29.9990000  0  8G 3G 8G13G19G23G27G10G28
  -1387677.16648  -1074962.95543  22982347.6204   22982346.9564
      -216.0164
  -6539689.38949  -5075990.75947  21383847.9254   21383846.1204
      2385.6414
    456825.45049    355055.69147  20410077.4014   20410074.0734
      -826.8914
  -6427634.94448  -4987842.62645  22803581.6364   22803578.8274
      2099.9064
   5718470.30048   4436019.20744  22892091.6754   22892088.7884
     -2706.9224
  -3465176.04349  -2691609.10347  20750165.8474   20750162.9484
      1163.8594
  -2995230.96847  -2329120.70143  23537437.0734   23537436.4094
      2236.7504
  -3337997.99847  -2585777.94543  23548322.1834   23548321.7964
      3755.6254
 04  9 13 21 33 44.9990000  0  8G 3G 8G13G19G23G27G10G28
  -1384365.88748  -1072382.75243  22982977.4874   22982977.0854
      -225.5164
  -6575449.61649  -5103855.85947  21377043.2224   21377040.8514
      2382.3594
    469287.11749    364766.06847  20412448.8864   20412445.2334
      -834.7034
  -6459078.89948  -5012344.38645  22797598.4874   22797595.3044
      2092.5314
   5759105.16248   4467682.67944  22899823.8154   22899821.7414
     -2711.0624
  -3482611.95049  -2705195.52047  20746847.6904   20746844.8194
      1160.8594
  -3028716.67446  -2355213.41043  23531064.6984   23531064.2654
      2228.1254
  -3394307.82547  -2629655.65243  23537606.5344   23537606.2184
      3752.3134
 04  9 13 21 33 59.9990000  0  8G 3G 8G13G19G23G27G10G28
  -1380911.17248  -1069690.75544  22983634.8704   22983634.7494
      -235.0944
  -6611159.22149  -5131681.50447  21370247.7454   21370245.6944
      2378.9384
    481867.16849    374568.69747  20414842.6904   20414839.5544
      -842.5624
  -6490412.23448  -5036759.93945  22791635.4724   22791633.2264
      2085.1414
   5799802.54348   4499394.86944  22907568.8704   22907566.4834
     -2715.2504
  -3500003.10549  -2718747.06747  20743538.5114   20743535.6514
      1157.9384
  -3062072.19747  -2381204.71143  23524716.8864   23524716.8234
      2219.4224
  -3450568.52547  -2673495.08343  23526900.5264   23526900.2224
      3749.0634
 04  9 13 21 34 14.9990000  0  8G 3G 8G13G19G23G27G10G28
  -1377315.77348  -1066889.16344  22984318.7304   22984318.9374
      -244.5164
  -6646820.63149  -5159469.59947  21363461.6284   21363459.8944
      2375.5944
    494563.02349    384461.55847  20417258.7064   20417255.3584
      -850.3914
  -6521637.16748  -5061091.01845  22785693.4644   22785690.7144
      2077.8594
   5840559.66148   4531153.59444  22915324.6514   22915321.8004
     -2719.2814
  -3517352.02949  -2732265.69747  20740236.9254   20740234.4134
      1155.0474
  -3095299.83646  -2407096.35943  23518394.4334   23518393.1554
      2210.7814
  -3506782.41047  -2717297.99643  23516203.6834   23516203.4604
      3745.9224
 04  9 13 21 34 29.9990000  0  8G 3G 8G13G19G23G27G10G28
  -1373577.37148  -1063976.12043  22985030.3864   22985029.8194
      -254.0474
  -6682431.17349  -5187218.05847  21356685.0654   21356683.0384
      2372.2504
    507377.15249    394446.57547  20419697.1444   20419693.9954
      -858.2974
  -6552751.08148  -5085335.60145  22779773.3004   22779769.9804
      2070.4694
   5881378.64948   4562960.53844  22923091.7534   22923089.7964
     -2723.3914
  -3534656.38449  -2745749.60947  20736944.1834   20736941.4404
      1152.0314
  -3128397.09946  -2432886.40843  23512095.5344   23512095.3434
      2202.0634
  -3562946.85348  -2761062.41143  23505516.3864   23505515.3784
      3742.5314
 04  9 13 21 34 44.9990000  0  8G 3G 8G13G19G23G27G10G28
  -1369696.47848  -1060952.07243  22985768.8234   22985768.0734
      -263.6094
  -6717991.75249  -5214927.58747  21349918.0814   21349916.2144
      2368.9064
    520308.79449    404523.16347  20422157.9404   20422154.5114
      -866.0784
  -6583754.31348  -5109493.93345  22773872.7694   22773869.7454
      2063.0784
   5922258.62248   4594814.99644  22930871.1904   22930868.5504
     -2727.4534
  -3551916.60049  -2759199.12747  20733659.4404   20733656.8154
      1149.1254
  -3161364.32546  -2458575.14843  23505822.8474   23505822.3584
      2193.4064
  -3619062.33348  -2804788.67243  23494837.3624   23494836.9334
      3739.2664
 04  9 13 21 34 59.9990000  0  8G 3G 8G13G19G23G27G10G28
  -1365672.66548  -1057816.64644  22986534.6284   22986534.6594
      -272.9694
  -6753501.38849  -5242597.42447  21343160.5194   21343158.8474
      2365.7034
    533358.66949    414691.88247  20424641.1364   20424638.2534
      -873.9534
  -6614645.87048  -5133565.23945  22767994.7844   22767991.7064
      2055.7504
   5963200.18748   4626717.43844  22938662.1514   22938659.6284
     -2731.4694
  -3569132.20049  -2772613.88347  20730383.6364   20730380.8784
      1146.2194
  -3194200.67246  -2484161.88043  23499574.0504   23499573.0694
      2184.6884
  -3675128.00048  -2848476.12843  23484168.4804   23484168.0694
      3736.0784
 04  9 13 21 35 14.9990000  0  8G 3G 8G13G19G23G27G10G28
  -1361506.54648  -1054570.31644  22987327.5894   22987327.4874
      -282.3914
  -6788961.11049  -5270228.36347  21336413.1904   21336411.1244
      2362.3444
    546526.02948    424952.16147  20427147.2764   20427143.9994
      -881.6724
  -6645426.28848  -5157549.93545  22762137.3704   22762134.3664
      2048.3914
   6004202.39148   4658667.15244  22946464.6514   22946462.3864
     -2735.4534
  -3586303.77948  -2785994.32747  20727115.9404   20727113.2304
      1143.4224
  -3226906.72047  -2509647.11643  23493350.2374   23493349.0774
      2176.0314
  -3731144.44148  -2892125.22443  23473508.4644   23473508.6754
      3732.7974
 04  9 13 21 35 29.9990000  0  8G 3G 8G13G19G23G27G10G28
  -1357198.34648  -1051213.29344  22988147.6204   22988147.1164
      -291.9374
  -6824370.96449  -5297820.45547  21329674.8864   21329673.0264
      2358.9224
    559810.78849    435303.90647  20429674.8084   20429671.5774
      -889.5944
  -6676095.27948  -5181447.83145  22756301.3154   22756298.7374
      2040.8444
   6045265.03048   4690663.94444  22954278.5814   22954276.2534
     -2739.5624
  -3603431.43649  -2799340.55747  20723856.5194   20723854.2334
      1140.3444
  -3259482.32846  -2535030.66743  23487151.3004   23487150.5154
      2167.3594
  -3787111.37548  -2935735.73043  23462858.3474   23462857.7144
      3729.4384
 04  9 13 21 35 44.9990000  0  8G 3G 8G13G19G23G27G10G28
  -1352749.35248  -1047746.54244  22988994.0034   22988993.4834
      -301.4374
  -6859732.01549  -5325374.50147  21322945.8624   21322943.8124
      2355.7194
    573211.60049    445746.07947  20432224.9174   20432221.9684
      -897.3284
  -6706653.88448  -5205259.69745  22750485.9564   22750482.8124
      2033.4534
   6086386.58148   4722706.64744  22962104.6594   22962101.8124
     -2743.5164
  -3620516.34448  -2812653.46347  20720605.4014   20720602.6594
      1137.5164
  -3291928.66847  -2560313.52743  23480976.9334   23480976.1554
      2158.7034
  -3843030.06947  -2979308.65643  23452217.4954   23452216.8474
      3726.1564
 04  9 13 21 35 59.9990000  0  8G 3G 8G13G19G23G27G10G28
  -1348156.50848  -1044167.70544  22989868.0424   22989867.0504
      -310.9694
  -6895041.04449  -5352888.01747  21316226.5344   21316224.6754
      2352.2034
    586731.46148    456281.02547  20434797.6904   20434794.8084
      -905.2664
  -6737098.67448  -5228982.86945  22744692.4644   22744689.0114
      2025.9064
   6127570.02048   4754797.57444  22969941.1444   22969939.0464
     -2747.5624
  -3637555.45948  -2825930.69747  20717363.0654   20717359.9764
      1134.3754
  -3324242.34146  -2585493.00243  23474827.5194   23474827.1834
      2149.8444
  -3898897.17347  -3022841.35943  23441586.0264   23441585.4014
      3722.8134
 04  9 13 21 36 14.9990000  0  8G 3G 8G13G19G23G27G10G28
  -1343422.31548  -1040478.72444  22990769.6514   22990768.3004
      -320.2814
  -6930300.62949  -5380362.99647  21309517.0504   21309514.9254
      2349.0314
    600367.90648    466906.81247  20437392.6904   20437389.6794
      -913.0004
  -6767431.72648  -5252618.98045  22738920.6204   22738917.0624
      2018.4844
   6168812.75748   4786934.70744  22977788.8394   22977786.8944
     -2751.4694
  -3654551.11748  -2839174.06347  20714128.9804   20714126.2024
      1131.6254
  -3356425.54146  -2610570.77543  23468704.0034   23468703.1514
      2141.1724
  -3954714.89947  -3066335.62443  23430964.3864   23430963.8554
      3719.5314
 04  9 13 21 36 29.9990000  0  8G 3G 8G13G19G23G27G10G28
  -1338546.03848  -1036679.02943  22991696.8234   22991696.1944
      -329.9534
  -6965509.80649  -5407798.71147  21302816.9954   21302815.1754
      2345.5164
    614121.84749    477624.15347  20440010.2064   20440007.0654
      -920.9064
  -6797652.01448  -5276167.21545  22733169.5344   22733166.6404
      2010.8914
   6210115.36548   4819118.47544  22985648.7224   22985646.2534
     -2755.6414
  -3671502.56349  -2852382.97847  20710903.3864   20710900.0734
      1128.5634
  -3388477.30146  -2635546.18243  23462604.5584   23462603.8784
      2132.2664
  -4010482.18448  -3109790.54743  23420352.6124   23420351.6084
      3715.9844
 04  9 13 21 36 44.9990000  0  8G 3G 8G13G19G23G27G10G28
  -1333526.53648  -1032767.73843  22992652.2534   22992651.4294
      -339.4534
  -7000667.38749  -5435194.22547  21296126.8234   21296124.3584
      2341.9844
    627994.35949    488433.88847  20442649.8004   20442646.7304
      -928.7974
  -6827757.99748  -5299626.38445  22727440.5654   22727437.6904
      2003.2194
   6251478.84848   4851349.70344  22993520.6284   22993517.9374
     -2759.5944
  -3688408.52548  -2865556.45747  20707686.1124   20707683.3704
      1125.5474
  -3420396.22046  -2660418.05343  23456530.6594   23456529.4254
      2123.3914
  -4066197.66547  -3153205.14843  23409749.8474   23409749.4374
      3712.5784
 04  9 13 21 36 59.9990000  0  8G 3G 8G13G19G23G27G10G28
  -1328364.27148  -1028745.20043  22993634.3314   22993634.4404
      -348.9844
  -7035773.70649  -5462549.78047  21289446.1904   21289444.2024
      2338.6414
    641984.98649    499335.66547  20445312.7224   20445308.5734
      -936.6414
  -6857749.86048  -5322996.63445  22721733.1754   22721730.3274
      1995.5944
   6292902.65548   4883627.92444  23001402.9724   23001400.4724
     -2763.6094
  -3705269.33349  -2878694.73847  20704477.4094   20704474.6014
      1122.5634
  -3452182.49046  -2685186.55243  23450481.2924   23450480.9604
      2114.6414
  -4121861.46648  -3196579.45743  23399157.3944   23399156.6244
      3709.1884
 04  9 13 21 37 14.9990000  0  8G 3G 8G13G19G23G27G10G28
  -1323059.55448  -1024611.68143  22994643.5114   22994643.6444
      -358.4064
  -7070829.04049  -5489865.61147  21282775.3234   21282773.4804
      2335.3284
    656093.43849    510329.25847  20447996.9404   20447993.7374
      -944.5164
  -6887627.60248  -5346277.95545  22716047.7694   22716045.0034
      1988.1094
   6334386.32148   4915952.78844  23009297.5734   23009294.7104
     -2767.5784
  -3722085.37948  -2891798.14947  20701277.3084   20701274.9294
      1119.5944
  -3483836.26047  -2709851.82243  23444458.0264   23444457.5264
      2105.8284
  -4177473.82548  -3239913.67843  23388574.9724   23388573.9994
      3705.7194
 04  9 13 21 37 29.9990000  0  8G 3G 8G13G19G23G27G10G28
  -1317613.43048  -1020367.94443  22995680.6754   22995680.3314
      -367.7664
  -7105834.00849  -5517142.18947  21276114.0034   21276112.1084
      2331.9224
    670318.81949    521413.95447  20450704.1364   20450701.0384
      -952.3284
  -6917391.91348  -5369470.87745  22710383.3314   22710380.1554
      1980.5164
   6375928.66948   4948323.38444  23017202.3004   23017200.2694
     -2771.4064
  -3738857.45049  -2904867.28847  20698085.9094   20698083.2494
      1116.6254
  -3515358.21346  -2734414.34443  23438459.0504   23438458.9374
      2096.9694
  -4233035.40548  -3283208.34243  23378001.0734   23378000.5584
      3702.3444
 04  9 13 21 37 44.9990000  0  8G 3G 8G13G19G23G27G10G28
  -1312024.49648  -1016012.94444  22996744.0344   22996743.2064
      -377.3284
  -7140787.26349  -5544378.48647  21269462.3784   21269460.9564
      2328.4844
    684662.51249    532590.84647  20453433.5814   20453430.1944
      -960.1874
  -6947040.93248  -5392573.96545  22704741.3944   22704738.7574
      1972.7974
   6417531.09948   4980740.79044  23025119.1984   23025117.2224
     -2775.5474
  -3755583.98149  -2917900.95047  20694902.9404   20694900.1714
      1113.5784
  -3546746.61446  -2758872.82143  23432486.3554   23432485.7494
      2088.1564
  -4288544.44948  -3326462.08143  23367438.5894   23367437.9644
      3698.8754
 04  9 13 21 37 59.9990000  0  8G 3G 8G13G19G23G27G10G28
  -1306294.38248  -1011547.92144  22997834.2844   22997833.7534
      -386.6094
  -7175690.41349  -5571575.73147  21262820.6364   21262818.7654
      2325.2504
    699123.00749    543858.76647  20456185.3474   20456182.3624
      -967.7974
  -6976575.95848  -5415588.23845  22699121.0344   22699118.8974
      1965.2814
   6459191.76648   5013203.57544  23033046.8084   23033044.7764
     -2779.1724
  -3772266.65649  -2930900.43547  20691728.3314   20691725.5304
      1110.8284
  -3578002.92846  -2783228.38843  23426538.5654   23426538.1554
      2079.4534
  -4344002.33148  -3369675.96043  23356885.0894   23356883.7304
      3695.5314
 04  9 13 21 38 14.9990000  0  8G 3G 8G13G19G23G27G10G28
  -1300423.60948  -1006973.30543  22998951.3234   22998950.6014
      -396.0314
  -7210543.77949  -5598734.17947  21256188.4724   21256186.5464
      2321.8754
    713699.64849    555217.16747  20458959.2694   20458956.0894
      -975.6874
  -7005997.27248  -5438513.89945  22693522.5424   22693519.7104
      1957.5784
   6500910.01448   5045711.24044  23040986.1364   23040983.7804
     -2783.1724
  -3788905.85849  -2943866.04147  20688562.0264   20688559.1364
      1107.8444
  -3609127.44146  -2807481.23843  23420615.7374   23420615.6014
      2070.5944
  -4399409.53048  -3412850.33043  23346341.7304   23346340.4684
      3692.1724
 04  9 13 21 38 29.9990000  0  8G 3G 8G13G19G23G27G10G28
  -1294411.07048  -1002288.21243  23000095.6364   23000094.4254
      -405.5944
  -7245346.18149  -5625852.92647  21249565.8474   21249563.5814
      2318.5004
    728393.65449    566667.02747  20461755.2454   20461751.8824
      -983.4694
  -7035303.44847  -5461349.84945  22687945.6204   22687942.3744
      1949.9064
   6542686.88248   5078264.57344  23048935.8624   23048933.4054
     -2787.0784
  -3805500.48049  -2956796.91447  20685404.2064   20685401.5504
      1104.8444
  -3640118.90747  -2831630.42343  23414718.3704   23414717.7144
      2061.6564
  -4454764.44548  -3455983.95443  23335807.2534   23335806.5114
      3688.5634
 04  9 13 21 38 44.9990000  0  8G 3G 8G13G19G23G27G10G28
  -1288257.67448   -997493.36543  23001266.1834   23001265.8624
      -415.0474
  -7280098.33849  -5652932.51247  21242952.6514   21242950.4564
      2315.0634
    743204.20349    578207.70548  20464573.8704   20464570.3974
      -991.3914
  -7064494.95248  -5484096.43545  22682390.9094   22682387.6244
      1942.1724
   6584521.34848   5110862.80144  23056896.7224   23056894.3434
     -2790.9224
  -3822051.20749  -2969693.57847  20682254.6284   20682251.9174
      1101.8134
  -3670977.72346  -2855676.23243  23408846.2144   23408845.6904
      2052.6884
  -4510067.79548  -3499077.40643  23325283.6984   23325282.3394
      3685.0004
 04  9 13 21 38 59.9990000  0  8G 3G 8G13G19G23G27G10G28
  -1281963.01348   -992588.44843  23002463.8234   23002463.9334
      -424.4224
  -7314799.79649  -5679972.60647  21236349.3154   21236347.1554
      2311.7194
    758131.74049    589839.53747  20467414.7924   20467411.1164
      -999.0624
  -7093570.92348  -5506753.00345  22676857.6904   22676854.6124
      1934.4694
   6626413.80248   5143506.19344  23064868.1984   23064866.6594
     -2794.7344
  -3838557.44449  -2982555.57747  20679113.4484   20679110.8124
      1098.9384
  -3701703.29846  -2879618.21843  23402999.2224   23402998.7574
      2043.8444
  -4565318.79048  -3542130.05343  23314770.4014   23314768.3234
      3681.6724
 04  9 13 21 39 14.9990000  0  8G 3G 8G13G19G23G27G10G28
  -1275527.54848   -987573.80944  23003689.5424   23003688.2104
      -433.6874
  -7349450.93149  -5706973.48147  21229755.5194   21229753.2844
      2308.5164
    773175.78449    601562.15747  20470277.2694   20470274.0344
     -1006.7344
  -7122531.75148  -5529319.84945  22671346.7304   22671343.7694
      1927.0004
   6668363.44248   5176194.14944  23072851.2064   23072849.4294
     -2798.4694
  -3855019.65049  -2995383.27247  20675980.9404   20675978.2884
      1096.1414
  -3732295.88646  -2903456.59443  23397178.2064   23397177.1284
      2035.1884
  -4620517.69348  -3585142.14843  23304265.9254   23304264.9374
      3678.2504
 04  9 13 21 39 29.9990000  0  8G 3G 8G13G19G23G27G10G28
  -1268950.97948   -982449.23144  23004940.6674   23004940.4094
      -443.1564
  -7384051.17649  -5733934.70347  21223170.9954   21223169.0224
      2305.0004
    788336.66249    613375.82047  20473162.2924   20473159.0384
     -1014.6564
  -7151376.66548  -5551796.38945  22665857.5114   22665854.8514
      1919.1254
   6710370.67548   5208927.00944  23080845.5264   23080842.7654
     -2802.4534
  -3871437.39449  -3008176.32047  20672856.9404   20672854.0464
      1093.0164
  -3762754.85746  -2927190.83843  23391381.4644   23391380.9874
      2026.0474
  -4675663.89048  -3628113.13543  23293771.9014   23293770.9404
      3674.7344
 04  9 13 21 39 44.9990000  0  8G 3G 8G13G19G23G27G10G28
  -1262233.08148   -977214.51843  23006218.7374   23006218.9214
      -452.5004
  -7418600.34949  -5760856.12147  21216596.6204   21216594.0344
      2301.6094
    803614.68349    625280.76347  20476069.6284   20476066.5774
     -1022.3754
  -7180105.13448  -5574182.17945  22660390.6904   22660387.5194
      1911.3594
   6752435.54548   5241704.73944  23088849.8554   23088847.4564
     -2806.1724
  -3887810.31649  -3020934.44047  20669741.0814   20669738.9134
      1090.0784
  -3793079.80947  -2950820.68143  23385610.3624   23385610.5304
      2017.2194
  -4730756.99848  -3671042.76143  23283288.3474   23283286.7224
      3671.1724
 04  9 13 21 39 59.9990000  0  8G 3G 8G13G19G23G27G10G28
  -1255375.04548   -971870.60344  23007523.5194   23007523.7104
      -461.7974
  -7453099.25249  -5787738.36247  21210031.6284   21210029.0974
      2298.2814
    819008.66549    637276.06147  20478998.7614   20478995.5304
     -1030.1254
  -7208717.70148  -5596477.65745  22654945.6124   22654942.4804
      1903.7344
   6794556.72248   5274526.35544  23096865.4094   23096862.5854
     -2809.8594
  -3904139.63149  -3033658.58147  20666633.5264   20666630.5544
      1087.2194
  -3823271.62847  -2974346.74543  23379865.8084   23379865.2374
      2008.3284
  -4785797.91048  -3713931.73143  23272814.1594   23272813.3394
      3667.7194
 04  9 13 21 40 14.9990000  0  8G 3G 8G13G19G23G27G10G28
  -1248377.25648   -966417.81843  23008855.3474   23008854.9214
      -471.2814
  -7487548.35949  -5814581.82047  21203476.1834   21203474.1324
      2294.8284
    834518.33949    649361.50547  20481950.3004   20481947.2764
     -1037.9064
  -7237214.68048  -5618683.06845  22649523.0654   22649519.4954
      1895.8914
   6836733.71748   5307391.47844  23104891.2304   23104889.0194
     -2813.7504
  -3920425.47349  -3046348.84347  20663534.6444   20663532.2104
      1084.2034
  -3853330.45347  -2997769.20643  23374145.8624   23374145.2304
      1999.2974
  -4840786.76348  -3756780.12743  23262349.6754   23262348.7104
      3664.1724
 04  9 13 21 40 29.9990000  0  8G 3G 8G13G19G23G27G10G28
  -1241237.45648   -960854.34643  23010214.3624   23010213.4764
      -480.5624
  -7521945.33649  -5841384.64947  21196930.7144   21196928.3554
      2291.6094
    850145.93949    661538.85347  20484924.1204   20484920.9484
     -1045.6254
  -7265593.31247  -5640796.27045  22644122.7924   22644118.8004
      1888.1254
   6878968.69648   5340301.77544  23112927.9174   23112925.9404
     -2817.3444
  -3936665.47649  -3059003.39247  20660444.2764   20660441.7724
      1081.3284
  -3883253.68147  -3021086.00843  23368452.0034   23368451.0074
      1990.5164
  -4895720.83848  -3799585.84243  23251895.9644   23251894.7064
      3660.6254
 04  9 13 21 40 44.9990000  0  8G 3G 8G13G19G23G27G10G28
  -1233957.43848   -955181.59944  23011599.9804   23011599.3154
      -490.0624
  -7556291.74849  -5868148.06747  21190394.4564   21190392.9834
      2287.9844
    865889.70849    673806.71647  20487920.1444   20487916.8514
     -1053.6564
  -7293855.04148  -5662818.36245  22638744.6594   22638741.4404
      1880.1094
   6921259.81048   5373255.82544  23120976.1834   23120973.9914
     -2821.4224
  -3952861.37449  -3071623.56247  20657362.0734   20657359.5584
      1078.1254
  -3913042.96246  -3044298.41943  23362782.6984   23362782.1054
      1981.2974
  -4950601.77648  -3842350.13143  23241452.7374   23241451.5584
      3656.8444
 04  9 13 21 40 59.9990000  0  8G 3G 8G13G19G23G27G10G28
  -1226536.40548   -949399.02544  23013012.1284   23013011.7064
      -499.3444
  -7590586.79449  -5894871.48047  21183868.3864   21183866.4994
      2284.6564
    881750.38449    686165.67747  20490938.2534   20490934.8864
     -1061.2664
  -7321998.85148  -5684748.57845  22633388.9644   22633386.2224
      1872.3754
   6963607.59548   5406254.01944  23129034.5584   23129032.6244
     -2825.0164
  -3969012.25849  -3084208.66847  20654288.7374   20654285.9604
      1075.2814
  -3942697.32847  -3067405.70043  23357139.0894   23357138.7184
      1972.4844
  -5005428.56848  -3885072.26443  23231019.4174   23231018.1984
      3653.3594
 04  9 13 21 41 14.9990000  0  8G 3G 8G13G19G23G27G10G28
  -1218974.71248   -943506.81044  23014450.5034   23014450.2224
      -508.9224
  -7624830.52749  -5921554.89847  21177352.3704   21177349.9294
      2281.0164
    897727.73149    698615.53647  20493978.7224   20493975.4174
     -1069.1414
  -7350024.64748  -5706586.83445  22628056.0264   22628053.2724
      1864.2814
   7006011.67548   5439296.08744  23137103.5424   23137102.0034
     -2828.9694
  -3985118.41949  -3096758.92847  20651224.2694   20651221.2064
      1072.0944
  -3972216.73947  -3090407.82943  23351522.4724   23351521.4604
      1963.3754
  -5060201.23848  -3927752.21543  23220596.2454   23220595.4054
      3649.6094
 04  9 13 21 41 29.9990000  0  8G 3G 8G13G19G23G27G10G28
  -1211270.88148   -937503.84143  23015916.8944   23015916.4014
      -518.3444
  -7659021.31049  -5948197.05047  21170845.8944   21170843.7614
      2277.6884
    913823.33049    711157.54647  20497041.7534   20497038.4804
     -1076.9224
  -7377930.62948  -5728331.73745  22622745.6834   22622742.3554
      1856.4694
   7048473.40948   5472383.08544  23145184.4484   23145181.8944
     -2832.6414
  -4001178.12549  -3109272.97447  20648168.0734   20648165.5034
      1069.1724
  -4001599.35547  -3113303.36443  23345931.2454   23345930.2454
      1954.3754
  -5114917.94648  -3970388.56443  23210184.6834   23210183.2304
      3645.8914
 04  9 13 21 41 44.9990000  0  8G 3G 8G13G19G23G27G10G28
  -1203427.55648   -931392.16844  23017408.5034   23017409.0114
      -527.5164
  -7693161.67949  -5974799.91147  21164348.8554   21164347.1444
      2274.3444
    930034.37949    723789.53347  20500126.6054   20500122.9374
     -1084.5624
  -7405719.14948  -5749985.11045  22617457.5734   22617454.6714
      1848.6724
   7090989.94948   5505512.79644  23153274.9874   23153273.1474
     -2836.2344
  -4017194.03849  -3121752.90747  20645120.1514   20645117.7184
      1066.2974
  -4030847.68646  -3136094.27843  23340364.6054   23340364.1084
      1945.4694
  -5169581.16948  -4012983.20843  23199781.8314   23199780.8004
      3642.4534
 04  9 13 21 41 59.9990000  0  8G 3G 8G13G19G23G27G10G28
  -1195443.79848   -925171.07744  23018928.3314   23018928.5034
      -536.9534
  -7727250.67649  -6001362.76747  21157862.3704   21157860.0974
      2270.8914
    946361.99649    736512.34047  20503233.5814   20503230.2654
     -1092.3754
  -7433388.92148  -5771545.94345  22612191.9564   22612189.2414
      1840.7664
   7133562.36248   5538686.01044  23161376.0974   23161374.1794
     -2839.9844
  -4033165.02549  -3134197.82847  20642081.2374   20642078.1904
      1063.2974
  -4059960.47747  -3158779.55443  23334824.9404   23334824.4404
      1936.3754
  -5224189.59048  -4055535.17243  23189390.3234   23189389.7104
      3638.7504
 04  9 13 21 42 14.9990000  0  8G 3G 8G13G19G23G27G10G28
  -1187319.94048   -918840.83744  23020474.7454   23020474.4404
      -546.3754
  -7761288.45049  -6027885.69747  21151385.0114   21151383.1674
      2267.4064
    962805.89149    749325.75447  20506362.5894   20506359.2654
     -1100.1874
  -7460939.86748  -5793014.18645  22606950.0424   22606946.6594
      1832.7034
   7176190.12148   5571902.37844  23169488.2304   23169486.2144
     -2843.6874
  -4049091.24849  -3146607.87947  20639050.2454   20639047.5544
      1060.2034
  -4088937.89647  -3181359.36343  23329310.9484   23329309.8944
      1927.1564
  -5278743.20548  -4098044.44443  23179009.1054   23179008.3704
      3635.0004
 04  9 13 21 42 29.9990000  0  8G 3G 8G13G19G23G27G10G28
  -1179056.26448   -912401.63944  23022047.3474   23022047.0034
      -555.6564
  -7795275.26749  -6054368.91647  21144917.6204   21144915.5424
      2264.1094
    979365.94749    762229.68147  20509514.0194   20509511.1714
     -1107.8124
  -7488371.90748  -5814389.78245  22601729.4254   22601725.7844
      1824.9224
   7218872.99548   5605161.70744  23177610.8004   23177608.5114
     -2847.4064
  -4064972.87749  -3158983.17047  20636028.3554   20636025.5224
      1057.2664
  -4117779.82647  -3203833.57143  23323822.1674   23323821.8704
      1918.2504
  -5333242.07548  -4140511.03543  23168638.1514   23168637.9604
      3631.4224
 04  9 13 21 42 44.9990000  0  8G 3G 8G13G19G23G27G10G28
  -1170651.45848   -905852.46644  23023646.5194   23023646.4874
      -565.0784
  -7829209.62149  -6080811.25547  21138459.9404   21138457.7264
      2260.5164
    996043.40149    775225.08147  20512687.7374   20512684.4014
     -1115.7974
  -7515683.47148  -5835671.49145  22596532.1054   22596528.8784
      1816.6564
   7261611.86148   5638464.62944  23185743.3004   23185741.9054
     -2851.1724
  -4080808.54249  -3171322.64247  20633014.8784   20633012.1674
      1054.1724
  -4146484.80847  -3226201.10043  23318359.8944   23318359.3824
      1909.0784
  -5387684.74448  -4182933.82643  23158278.1904   23158277.1834
      3627.6094
 04  9 13 21 42 59.9990000  0  8G 3G 8G13G19G23G27G10G28
  -1162106.17048   -899193.80544  23025272.7764   23025272.1554
      -574.2664
  -7863091.96049  -6107213.07047  21132012.5584   21132010.0224
      2257.1724
   1012837.60849    788311.47147  20515883.5114   20515880.0584
     -1123.4224
  -7542874.88248  -5856859.57545  22591357.9644   22591354.4604
      1808.8594
   7304406.21748   5671810.81944  23193886.7224   23193884.7884
     -2854.7034
  -4096598.71149  -3183626.66447  20630009.9564   20630007.4684
      1051.2344
  -4175053.22147  -3248462.19643  23312923.7304   23312922.6444
      1900.0784
  -5442071.38548  -4225312.97243  23147928.9334   23147927.7844
      3624.0164
 04  9 13 21 43 14.9990000  0  8G 3G 8G13G19G23G27G10G28
  -1153422.51548   -892427.32544  23026925.2694   23026925.0074
      -583.5944
  -7896924.30149  -6133575.92347  21125574.3784   21125572.3044
      2253.7504
   1029746.48949    801487.20847  20519101.5114   20519097.6124
     -1131.1724
  -7569947.73848  -5877955.28545  22586205.6834   22586203.0424
      1800.8594
   7347253.75948   5705198.42244  23202040.6754   23202038.7374
     -2858.3754
  -4112345.38849  -3195896.80647  20627013.6984   20627011.1324
      1048.2664
  -4203486.77846  -3270618.20543  23307512.8154   23307511.6944
      1891.0004
  -5496403.91548  -4267649.95644  23137589.9484   23137588.2724
      3620.2664
 04  9 13 21 43 29.9990000  0  8G 3G 8G13G19G23G27G10G28
  -1144597.48648   -885550.70444  23028604.2224   23028604.2224
      -593.0164
  -7930703.27249  -6159897.18447  21119146.4564   21119144.6124
      2250.1564
   1046773.01849    814754.62547  20522341.2064   20522338.3584
     -1139.0004
  -7596898.83148  -5898956.11645  22581077.1364   22581074.3824
      1792.6724
   7390157.28948   5738629.67744  23210205.0814   23210203.0894
     -2862.1414
  -4128045.51749  -3208130.67847  20624025.9404   20624023.3084
      1045.0944
  -4231782.34847  -3292666.69643  23302128.1054   23302127.6164
      1881.7974
  -5550679.03348  -4309942.20044  23127261.0814   23127260.1634
      3616.4224
 04  9 13 21 43 44.9990000  0  8G 3G 8G13G19G23G27G10G28
  -1135632.84248   -878565.28543  23030309.6904   23030309.7454
      -602.3594
  -7964430.67949  -6186178.26847  21112728.4254   21112726.4914
      2246.7034
   1063915.61349    828112.47747  20525603.0424   20525600.0974
     -1146.7664
  -7623729.45048  -5919863.06245  22575971.1834   22575968.7614
      1784.6414
   7433115.20148   5772103.28944  23218380.2224   23218377.7654
     -2865.7664
  -4143700.61749  -3220329.45547  20621046.9874   20621043.9334
      1042.1094
  -4259941.37747  -3314608.78743  23296769.9644   23296769.2334
      1872.6724
  -5604898.25848  -4352190.87444  23116943.8704   23116942.9644
      3612.7034
 04  9 13 21 43 59.9990000  0  8G 3G 8G13G19G23G27G10G28
  -1126528.53248   -871471.03444  23032042.7694   23032042.7924
      -611.6874
  -7998106.17049  -6212418.90747  21106320.1204   21106318.0734
      2243.2504
   1081174.36649    841560.84247  20528887.6054   20528884.4254
     -1154.5164
  -7650439.15348  -5940675.78445  22570888.9954   22570885.7414
      1776.5634
   7476127.39448   5805619.20944  23226564.4954   23226562.4874
     -2869.4064
  -4159310.41449  -3232492.93347  20618076.4094   20618073.6204
      1039.1414
  -4287963.54247  -3336444.23243  23291437.4404   23291436.9804
      1863.4694
  -5659061.16248  -4394395.67744  23106636.8864   23106635.9444
      3608.9064
 04  9 13 21 44 14.9990000  0  8G 3G 8G13G19G23G27G10G28
  -1117284.89648   -864268.20644  23033801.8394   23033802.0894
      -620.8594
  -8031729.87549  -6238619.18447  21099921.6594   21099919.7654
      2239.8444
   1098548.98549    855099.49447  20532193.7614   20532190.6714
     -1162.1724
  -7677027.91848  -5961394.26745  22565829.4094   22565825.8124
      1768.5784
   7519193.50548   5839177.13644  23234760.4334   23234757.9404
     -2872.8124
  -4174875.19449  -3244621.33947  20615114.5114   20615111.8084
      1036.1724
  -4315848.87147  -3358173.05243  23286131.5504   23286130.1794
      1854.5004
  -5713167.75348  -4436556.59444  23096340.4644   23096339.3354
      3605.1724
 04  9 13 21 44 29.9990000  0  8G 3G 8G13G19G23G27G10G28
  -1107902.72648   -856957.46243  23035587.5264   23035586.9214
      -630.0474
  -8065302.59249  -6264779.73647  21093532.9874   21093530.8974
      2236.5784
   1116038.63349    868727.78247  20535521.8234   20535518.9484
     -1169.7974
  -7703496.27448  -5982018.93645  22560792.1054   22560788.7534
      1760.5784
   7562312.54848   5872776.31444  23242965.5344   23242963.1754
     -2876.2814
  -4190395.53649  -3256715.12347  20612160.8864   20612157.8944
      1033.3594
  -4343598.01747  -3379795.76943  23280850.4334   23280849.8314
      1845.4844
  -5767218.65548  -4478674.14044  23086055.2534   23086053.8354
      3601.6094
 04  9 13 21 44 44.9990000  0  8G 3G 8G13G19G23G27G10G28
  -1098381.76648   -849538.52844  23037399.2694   23037398.2964
      -639.4064
  -8098823.75849  -6290900.10947  21087153.9484   21087152.0344
      2233.0314
   1133643.75149    882446.04547  20538872.1754   20538869.3944
     -1177.5944
  -7729843.54248  -6002549.24645  22555779.2224   22555775.1984
      1752.4384
   7605484.71248   5906416.87444  23251181.3314   23251178.6874
     -2879.9534
  -4205871.09149  -3268773.99347  20609216.1124   20609213.5974
      1030.1884
  -4371210.31847  -3401311.83243  23275595.8084   23275594.9874
      1836.1414
  -5821213.11948  -4520747.69344  23075780.2454   23075778.9444
      3597.7194
 04  9 13 21 44 59.9990000  0  8G 3G 8G13G19G23G27G10G28
  -1088722.53548   -842011.87043  23039237.2694   23039236.8744
      -648.6094
  -8132294.08149  -6316980.86947  21080784.9404   21080782.5624
      2229.5634
   1151363.84649    896253.89847  20542244.2454   20542241.1054
     -1185.2194
  -7756069.93248  -6022985.36845  22550787.9254   22550784.4214
      1744.2504
   7648709.33648   5940098.33544  23259406.4334   23259404.7924
     -2883.4694
  -4221302.30949  -3280798.32447  20606279.6984   20606277.1874
      1027.1884
  -4398686.21547  -3422721.62043  23270367.5034   23270366.8004
      1827.1564
  -5875151.51448  -4562777.56444  23065515.9014   23065514.8824
      3593.8754
 04  9 13 21 45 14.9990000  0  8G 3G 8G13G19G23G27G10G28
  -1078923.17448   -834376.02043  23041101.8554   23041101.2064
      -658.0314
  -8165711.40149  -6343020.32447  21074425.9644   21074423.1754
      2226.0004
   1169200.54249    910152.61347  20545638.3704   20545635.6284
     -1193.0004
  -7782173.25148  -6043325.57645  22545820.4484   22545817.6984
      1736.1094
   7691988.14648   5973821.99044  23267641.3554   23267640.2724
     -2887.0784
  -4236687.16649  -3292786.52547  20603352.0894   20603349.1444
      1024.1254
  -4426023.50147  -3444023.41043  23265165.6904   23265164.8974
      1817.8754
  -5929031.69448  -4604762.06244  23055262.9254   23055262.1754
      3590.0784
 04  9 13 21 45 29.9990000  0  8G 3G 8G13G19G23G27G10G28
  -1068983.72448   -826631.02543  23042993.2924   23042992.9644
      -667.2814
  -8199075.46149  -6369018.28847  21068076.7144   21068074.7494
      2222.5944
   1187154.14549    924142.41047  20549055.1124   20549051.7064
     -1200.7664
  -7808153.13948  -6063569.60645  22540876.5734   22540873.5074
      1727.9844
   7735321.07348   6007587.82644  23275887.7764   23275886.1874
     -2890.5784
  -4252025.40949  -3304738.41247  20600433.4334   20600430.4644
      1021.1094
  -4453221.91347  -3465216.94343  23259990.1514   23259989.1284
      1808.7194
  -5982853.40348  -4646701.00544  23045021.2224   23045020.2334
      3586.1724
 04  9 13 21 45 44.9990000  0  8G 3G 8G13G19G23G27G10G28
  -1058905.25948   -818777.67943  23044910.8944   23044910.4214
      -676.4374
  -8232387.15049  -6394975.43647  21061737.5734   21061735.8744
      2219.0944
   1205223.51549    938222.43347  20552493.4564   20552489.9484
     -1208.4064
  -7834010.35248  -6083718.05245  22535956.0734   22535953.1904
      1719.7034
   7778706.89948   6041394.87944  23284144.1284   23284142.2844
     -2894.0944
  -4267318.13349  -3316654.82647  20597523.3624   20597521.1054
      1018.0474
  -4480282.31347  -3486302.98343  23254840.3394   23254839.8084
      1799.5314
  -6036617.39248  -4688594.96543  23034789.5734   23034788.4564
      3582.3914
 04  9 13 21 45 59.9990000  0  8G 3G 8G13G19G23G27G10G28
  -1048687.43948   -810815.76443  23046855.3474   23046855.1674
      -685.7504
  -8265646.10449  -6420891.49147  21055408.5344   21055406.5734
      2215.5314
   1223409.06849    952392.97947  20555953.9094   20555950.9604
     -1216.1564
  -7859744.06048  -6103770.26245  22531059.5264   22531056.2374
      1711.5314
   7822146.02848   6075243.46144  23292409.9724   23292408.3864
     -2897.7344
  -4282564.75249  -3328535.30847  20594621.9874   20594619.1164
      1014.9224
  -4507204.06147  -3507280.97043  23249717.5114   23249716.9874
      1790.1884
  -6090323.04048  -4730443.46944  23024570.1364   23024568.5974
      3578.4694
 04  9 13 21 46 14.9990000  0  8G 3G 8G13G19G23G27G10G28
  -1038331.89348   -802746.53443  23048825.8474   23048825.4764
      -695.0624
  -8298853.66749  -6446767.51147  21049089.7144   21049087.2374
      2211.9844
   1241709.25049    966652.84247  20559436.2614   20559433.1794
     -1223.9694
  -7885355.62948  -6123727.28945  22526185.5584   22526182.0974
      1703.2504
   7865636.64848   6109132.17644  23300686.7924   23300684.2224
     -2901.2194
  -4297766.83049  -3340381.08347  20591729.0504   20591726.2064
      1011.8754
  -4533988.61246  -3528152.02443  23244619.8624   23244620.0194
      1780.8444
  -6143971.67648  -4772247.55944  23014360.8084   23014359.6404
      3574.5634
 04  9 13 21 46 29.9990000  0  8G 3G 8G13G19G23G27G10G28
  -1027838.21248   -794569.64643  23050823.1204   23050822.7494
      -704.0314
  -8332009.42449  -6472603.16147  21042780.1984   21042777.8554
      2208.7344
   1260124.64349    981002.48747  20562940.5504   20562937.5224
     -1231.4844
  -7910844.31548  -6143588.57145  22521335.1204   22521331.8434
      1695.1564
   7909179.19048   6143061.34143  23308972.0584   23308970.5544
     -2904.4844
  -4312923.70849  -3352191.64347  20588844.6674   20588842.3474
      1009.0004
  -4560635.17747  -3548915.58943  23239549.5424   23239548.9334
      1771.8134
  -6197562.49348  -4814006.57544  23004162.9334   23004161.5544
      3570.8134
 04  9 13 21 46 44.9990000  0  8G 3G 8G13G19G23G27G10G28
  -1017207.33448   -786285.85843  23052845.9094   23052845.6874
      -713.3284
  -8365114.07249  -6498398.97847  21036481.0734   21036478.7694
      2205.2814
   1278654.31649    995441.17747  20566466.6674   20566463.8824
     -1239.2034
  -7936210.69748  -6163354.54145  22516508.0584   22516504.3124
      1687.0314
   7952772.55748   6177030.12044  23317267.7454   23317266.2304
     -2907.9374
  -4328036.10249  -3363967.53347  20585969.0194   20585966.3624
      1006.0164
  -4587144.42447  -3569572.14343  23234505.8784   23234504.6324
      1762.7194
  -6251096.22648  -4855721.12144  22993976.0814   22993974.3394
      3567.0004
 04  9 13 21 46 59.9990000  0  8G 3G 8G13G19G23G27G10G28
  -1006439.31248   -777895.21644  23054895.5894   23054895.0194
      -722.5784
  -8398167.33049  -6524154.75347  21030190.8154   21030188.6794
      2201.7344
   1297298.09749   1009968.77747  20570014.6054   20570011.6404
     -1246.8444
  -7961454.47848  -6183024.98645  22511703.9334   22511701.2264
      1678.6724
   7996416.56048   6211038.32944  23325572.9254   23325571.4254
     -2911.2974
  -4343104.08749  -3375708.82447  20583101.5734   20583098.8704
      1002.9224
  -4613516.20047  -3590121.56943  23229487.1754   23229486.1874
      1753.4064
  -6304572.55348  -4897390.93244  22983799.6834   22983797.6794
      3563.0784
 04  9 13 21 47 14.9990000  0  8G 3G 8G13G19G23G27G10G28
   -995532.59348   -769396.49343  23056970.7764   23056970.7534
      -731.6564
  -8431167.38549  -6549869.07747  21023910.8474   21023908.5934
      2198.2814
   1316057.77649   1024586.70047  20573584.1284   20573581.3314
     -1254.4844
  -7986573.50548  -6202598.21045  22506924.0344   22506920.9174
      1670.4384
   8040112.90648   6245087.33444  23333888.2844   23333885.7574
     -2914.8444
  -4358125.72349  -3387413.99847  20580242.9874   20580240.4994
       999.9694
  -4639748.56447  -3610562.35643  23224495.4254   23224494.0974
      1744.2034
  -6357989.50948  -4939014.49644  22973634.7224   22973633.3084
      3559.2504
 04  9 13 21 47 29.9990000  0  8G 3G 8G13G19G23G27G10G28
   -984487.96047   -760790.28843  23059072.3084   23059072.0734
      -741.0004
  -8464114.91049  -6575542.47247  21017641.5504   21017639.2414
      2194.6884
   1334932.58349   1039294.32047  20577176.3784   20577173.5264
     -1262.2664
  -8011568.29548  -6222074.63945  22502167.8004   22502164.1714
      1662.0634
   8083860.77248   6279176.51343  23342213.4954   23342211.3974
     -2918.3444
  -4373101.63549  -3399083.54147  20577393.3394   20577390.4954
       996.8284
  -4665842.14147  -3630895.04343  23219529.6904   23219528.9134
      1734.9064
  -6411347.55548  -4980592.14144  22963480.8704   22963479.1474
      3555.1564
 04  9 13 21 47 44.9990000  0  8G 3G 8G13G19G23G27G10G28
   -973304.69547   -752076.07043  23061199.8944   23061200.2144
      -750.1724
  -8497009.31749  -6601174.46247  21011381.9174   21011379.7534
      2191.1094
   1353923.14449   1054092.14747  20580789.8234   20580786.9054
     -1269.9534
  -8036437.90348  -6241453.52345  22497435.1904   22497431.9334
      1653.7504
   8127660.54748   6313306.11243  23350548.8004   23350546.3004
     -2921.8124
  -4388031.07749  -3410716.87147  20574552.1904   20574549.6474
       993.5944
  -4691795.87946  -3651118.70643  23214590.6594   23214589.8314
      1725.6254
  -6464645.80648  -5022123.19844  22953338.5114   22953336.9764
      3551.1414
 04  9 13 21 47 59.9990000  0  8G 3G 8G13G19G23G27G10G28
   -961983.56947   -743254.43943  23063355.5654   23063354.0974
      -759.2814
  -8529851.07249  -6626765.43747  21005132.1054   21005130.2064
      2187.7344
   1373028.80049   1068979.65647  20584425.5424   20584422.3084
     -1277.5944
  -8061182.78348  -6260735.21645  22492726.4404   22492723.7804
      1645.4844
   8171511.34948   6347475.46944  23358893.2614   23358891.1124
     -2925.1094
  -4402914.69249  -3422314.49947  20571719.9954   20571717.6794
       990.6884
  -4717610.34747  -3671233.86943  23209678.4174   23209677.4724
      1716.2814
  -6517884.84948  -5063608.11244  22943207.4724   22943206.4724
      3547.2814
 04  9 13 21 48 14.9990000  0  8G 3G 8G13G19G23G27G10G28
   -950524.52147   -734325.32043  23065535.3944   23065535.0344
      -768.5164
  -8562640.01149  -6652315.24947  20998892.6984   20998890.4834
      2184.2194
   1392249.68549   1083956.95147  20588083.4334   20588079.9994
     -1285.1874
  -8085802.58948  -6279919.45245  22488041.3474   22488038.4524
      1637.1724
   8215413.19448   6381684.64043  23367247.0974   23367245.4644
     -2928.4534
  -4417752.32949  -3433876.29547  20568896.3944   20568893.8354
       987.6254
  -4743285.30546  -3691240.33043  23204792.1904   23204791.2654
      1706.9384
  -6571064.31948  -5105046.60344  22933087.7924   22933086.2144
      3543.4384
 04  9 13 21 48 29.9990000  0  8G 3G 8G13G19G23G27G10G28
   -938929.22447   -725290.05343  23067742.0034   23067741.5934
      -777.6254
  -8595377.63049  -6677825.07547  20992662.9874   20992660.9644
      2180.6884
   1411584.08049   1099022.69647  20591762.6674   20591759.2494
     -1292.7974
  -8110298.57548  -6299007.21345  22483379.8624   22483376.8864
      1628.8594
   8259364.40048   6415932.24443  23375610.4254   23375608.9094
     -2931.7194
  -4432545.37949  -3445403.35047  20566081.4484   20566078.7694
       984.7034
  -4768822.19147  -3711139.21443  23199932.8314   23199931.9254
      1697.7664
  -6624185.53248  -5146439.70144  22922979.3084   22922977.2334
      3539.4224
 04  9 13 21 48 44.9990000  0  8G 3G 8G13G19G23G27G10G28
   -927196.30947   -716147.54543  23069974.8944   23069974.2494
      -786.7814
  -8628062.17349  -6703293.53847  20986443.0734   20986441.0734
      2177.1884
   1431033.43849   1114178.02647  20595464.0264   20595460.8274
     -1300.5004
  -8134668.86148  -6317997.01745  22478742.6054   22478738.8864
      1620.4384
   8303366.38348   6450219.43444  23383983.9014   23383982.8394
     -2935.1254
  -4447292.23049  -3456894.40047  20563275.3624   20563272.6164
       981.5474
  -4794219.28546  -3730929.11943  23195099.9874   23195099.3944
      1688.5004
  -6677246.72548  -5187786.03344  22912881.9874   22912880.6834
      3535.3284
 04  9 13 21 48 59.9990000  0  8G 3G 8G13G19G23G27G10G28
   -915325.98447   -706897.95843  23072233.4724   23072233.0194
      -795.8444
  -8660693.70349  -6728720.70147  20980233.8474   20980231.5584
      2173.7194
   1450597.80449   1129422.96647  20599186.9404   20599183.6794
     -1308.0784
  -8158913.24548  -6336888.71346  22474129.4484   22474125.8044
      1612.1884
   8347418.77248   6484545.85744  23392367.2614   23392366.0034
     -2938.5314
  -4461992.93349  -3468349.49547  20560477.8084   20560474.6674
       978.5634
  -4819476.48547  -3750610.07843  23190293.8864   23190292.8744
      1679.1414
  -6730247.74248  -5229085.47744  22902795.8944   22902794.7534
      3531.5004
 04  9 13 21 49 14.9990000  0  8G 3G 8G13G19G23G27G10G28
   -903319.39847   -697542.17244  23074518.5734   23074518.2224
      -805.0164
  -8693273.23549  -6754107.33347  20974033.8474   20974031.5114
      2170.1884
   1470275.89549   1144756.52347  20602931.3784   20602928.0114
     -1315.6874
  -8183032.62148  -6355683.00346  22469539.2844   22469535.7764
      1603.7814
   8391520.33148   6518910.63844  23400759.9254   23400758.3234
     -2941.7504
  -4476648.46149  -3479769.39047  20557689.1674   20557686.5424
       975.4384
  -4844594.66447  -3770182.68343  23185513.9954   23185512.9134
      1669.7974
  -6783189.40048  -5270338.67044  22892721.4954   22892719.8584
      3527.4384
 04  9 13 21 49 29.9990000  0  8G 3G 8G13G19G23G27G10G28
   -891177.04547   -688080.62643  23076829.1984   23076828.7494
      -814.1724
  -8725800.98349  -6779453.62547  20967843.9484   20967841.8864
      2166.7194
   1490067.31749   1160178.39447  20606697.8234   20606694.3974
     -1323.2814
  -8207027.18948  -6374380.04146  22464973.2454   22464969.9764
      1595.4224
   8435670.47248   6553313.24243  23409161.5114   23409160.0504
     -2945.0944
  -4491259.19949  -3491154.37747  20554908.5114   20554905.7884
       972.4694
  -4869574.15846  -3789647.20143  23180760.5734   23180759.4764
      1660.6094
  -6836071.90148  -5311545.73744  22882658.6054   22882656.5344
      3523.4844
 04  9 13 21 49 44.9990000  0  8G 3G 8G13G19G23G27G10G28
   -878898.35248   -678512.84843  23079165.7764   23079165.1404
      -822.9534
  -8758276.26749  -6804759.03647  20961664.3474   20961662.5264
      2163.3444
   1509972.69549   1175689.06447  20610485.3154   20610482.1244
     -1330.7034
  -8230895.92148  -6392979.03146  22460431.1904   22460427.8554
      1587.1414
   8479869.74748   6587754.15143  23417571.8154   23417570.7924
     -2948.0944
  -4505824.36849  -3502503.86147  20552136.9724   20552134.3784
       969.6094
  -4894414.00447  -3809002.92743  23176033.3864   23176032.8904
      1651.3754
  -6888894.43948  -5352706.11244  22872606.4254   22872604.4644
      3519.6564
 04  9 13 21 49 59.9990000  0  8G 3G 8G13G19G23G27G10G28
   -866483.67147   -668839.08043  23081528.1514   23081527.5194
      -832.1254
  -8790699.31249  -6830023.74347  20955494.4804   20955491.9804
      2159.7664
   1529991.79449   1191288.33947  20614295.2454   20614291.6554
     -1338.3594
  -8254638.81948  -6411479.95845  22455912.6364   22455909.8124
      1578.5944
   8524117.81448   6622233.07543  23425992.3864   23425990.6364
     -2951.5314
  -4520344.08949  -3513817.92947  20549374.0264   20549371.1444
       966.4224
  -4919114.25547  -3828249.89443  23171333.2374   23171332.9484
      1641.9694
  -6941657.03048  -5393819.75444  22862566.1364   22862564.3784
      3515.4384
 04  9 13 21 50 14.9990000  0  8G 3G 8G13G19G23G27G10G28
   -853931.82647   -659058.44744  23083916.5734   23083916.2534
      -841.3914
  -8823068.78549  -6855246.69547  20949334.6674   20949331.9604
      2156.1564
   1550125.71949   1206977.08947  20618126.3154   20618122.9724
     -1346.2504
  -8278254.39648  -6429881.68845  22451418.6754   22451415.1404
      1570.0164
   8568415.63148   6656750.75843  23434421.5654   23434420.1674
     -2954.9374
  -4534817.12249  -3525095.62147  20546619.8704   20546616.8474
       963.2504
  -4943673.54347  -3847387.00543  23166659.9484   23166659.0814
      1632.5314
  -6994358.26048  -5434885.59844  22852537.2374   22852535.4724
      3511.2664
 04  9 13 21 50 29.9990000  0  8G 3G 8G13G19G23G27G10G28
   -841242.20747   -649170.46143  23086331.2064   23086331.2574
      -850.4064
  -8855383.79649  -6880427.21347  20943185.4334   20943183.1164
      2152.7194
   1570375.11149   1222755.82647  20621979.7374   20621976.4444
     -1353.5944
  -8301741.78848  -6448183.52645  22446949.5814   22446946.4294
      1561.7194
   8612763.71948   6691307.64243  23442860.8474   23442859.2724
     -2957.9844
  -4549242.55549  -3536336.21847  20543874.7614   20543872.1124
       960.2974
  -4968091.11646  -3866413.68043  23162013.0894   23162012.6474
      1623.3444
  -7046997.17148  -5475902.87344  22842520.0504   22842518.4644
      3507.3594
 04  9 13 21 50 44.9990000  0  8G 3G 8G13G19G23G27G10G28
   -828416.26547   -639176.23943  23088772.1594   23088771.8124
      -859.5474
  -8887645.60749  -6905566.27847  20937046.0344   20937043.7414
      2149.0474
   1590738.72049   1238623.55547  20625854.5894   20625851.3474
     -1361.3124
  -8325101.95548  -6466386.23345  22442504.0814   22442500.7334
      1553.1414
   8657160.54148   6725902.47243  23451309.5734   23451308.2184
     -2961.3284
  -4563621.83349  -3547540.85247  20541138.7304   20541135.7304
       957.2344
  -4992368.06246  -3885330.78743  23157393.6124   23157392.7844
      1613.7814
  -7099574.84848  -5516872.43344  22832515.5584   22832513.2964
      3503.2344
 04  9 13 21 50 59.9990000  0  8G 3G 8G13G19G23G27G10G28
   -815453.77447   -629075.63143  23091239.2764   23091238.6204
      -868.7974
  -8919853.94349  -6930663.68047  20930916.9484   20930914.9094
      2145.3754
   1611216.78149   1254580.46747  20629751.3394   20629748.2764
     -1369.0624
  -8348334.21048  -6484489.27045  22438083.1834   22438079.9724
      1544.4844
   8701606.39747   6760535.50743  23459767.4334   23459766.2964
     -2964.7194
  -4577954.36749  -3558709.06247  20538411.0814   20538408.3624
       953.9224
  -5016503.85547  -3904137.88443  23152800.8554   23152800.2964
      1604.2974
  -7152090.73248  -5557793.84944  22822521.7614   22822519.6244
      3498.9534
 04  9 13 21 51 14.9990000  0  8G 3G 8G13G19G23G27G10G28
   -802356.15247   -618869.70543  23093731.9564   23093730.9254
      -877.7664
  -8952009.69949  -6955720.10647  20924798.1364   20924796.0854
      2141.9064
   1631807.99949   1270625.55347  20633670.0894   20633666.6204
     -1376.5944
  -8371439.77248  -6502493.57245  22433686.5114   22433682.9404
      1536.0634
   8746099.81647   6795205.63543  23468233.9174   23468232.8864
     -2967.8444
  -4592241.43249  -3569841.83247  20535692.4564   20535689.5034
       950.8594
  -5040499.62047  -3922835.89943  23148234.9174   23148233.3004
      1594.9534
  -7204545.89648  -5598667.94144  22812539.6364   22812537.5974
      3494.8914
 04  9 13 21 51 29.9990000  0  8G 3G 8G13G19G23G27G10G28
   -789122.61147   -608557.89443  23096249.3554   23096249.3474
      -886.7974
  -8984112.22849  -6980735.05047  20918689.3554   20918686.6714
      2138.3444
   1652513.00349   1286759.30647  20637609.9014   20637606.8864
     -1384.1564
  -8394417.50648  -6520398.28145  22429313.4014   22429310.3474
      1527.5634
   8790641.49447   6829913.33043  23476709.7614   23476708.7264
     -2971.0944
  -4606482.04449  -3580938.41847  20532982.2534   20532980.0934
       947.8284
  -5064354.42847  -3941424.03143  23143695.5194   23143694.1714
      1585.5634
  -7256939.30448  -5639493.91544  22802569.4094   22802567.4914
      3490.7664
 04  9 13 21 51 44.9990000  0  8G 3G 8G13G19G23G27G10G28
   -775755.00047   -598141.59543  23098793.0814   23098793.0584
      -895.5004
  -9016163.16449  -7005709.80247  20912589.9564   20912587.8554
      2135.0314
   1673329.99149   1302980.31847  20641571.6754   20641568.6244
     -1391.4694
  -8417268.80648  -6538204.47845  22424965.1054   22424961.9994
      1519.2814
   8835229.45947   6864657.08243  23485194.6834   23485194.0934
     -2974.0474
  -4620677.85749  -3592000.09547  20530280.9334   20530278.3864
       944.9384
  -5088069.95146  -3959903.66443  23139181.9014   23139181.5114
      1576.4694
  -7309272.52248  -5680272.99844  22792610.5584   22792609.0774
      3486.9064
 04  9 13 21 51 59.9990000  0  8G 3G 8G13G19G23G27G10G28
   -762252.86147   -587620.46343  23101362.0584   23101362.4334
      -904.6724
  -9048161.68849  -7030643.70547  20906500.7064   20906498.3354
      2131.4694
   1694259.57649   1319289.06447  20645554.1284   20645550.8194
     -1399.1094
  -8439992.98848  -6555911.61145  22420640.7844   22420637.2334
      1510.6564
   8879863.96248   6899437.17443  23493689.3624   23493687.1834
     -2977.2974
  -4634828.41749  -3603026.50747  20527588.4334   20527585.2374
       941.7974
  -5111645.40146  -3978274.16843  23134696.0734   23134695.1984
      1566.9694
  -7361544.74748  -5721004.53244  22782663.6444   22782662.0694
      3482.7344
 04  9 13 21 52 14.9990000  0  8G 3G 8G13G19G23G27G10G28
   -748616.09447   -576994.46143  23103957.6124   23103957.3234
      -913.7034
  -9080107.49349  -7055536.53147  20900422.0344   20900420.0304
      2127.8594
   1715301.88749   1335685.64947  20649558.2924   20649555.3434
     -1406.6724
  -8462589.55948  -6573519.30946  22416340.8944   22416337.5654
      1502.0784
   8924545.13447   6934253.57343  23502191.6904   23502190.8584
     -2980.3594
  -4648933.30949  -3614017.32647  20524904.1904   20524901.8904
       938.6884
  -5135080.29046  -3996535.11843  23130236.4804   23130235.4014
      1557.5314
  -7413755.56648  -5761688.23144  22772727.8864   22772726.4914
      3478.5164
 04  9 13 21 52 29.9990000  0  8G 3G 8G13G19G23G27G10G28
   -734846.10547   -566264.60443  23106577.9874   23106577.4644
      -922.4694
  -9112001.91849  -7080389.31747  20894352.5504   20894350.0584
      2124.6724
   1736455.70149   1352169.12447  20653583.8154   20653581.1674
     -1413.8754
  -8485059.49048  -6591028.33345  22412065.3314   22412062.0774
      1493.8914
   8969271.70347   6969105.35043  23510702.4484   23510702.1794
     -2983.1094
  -4662993.65649  -3624973.44247  20522228.7144   20522225.7844
       935.9534
  -5158375.80947  -4014687.46443  23125803.3084   23125802.6244
      1548.4844
  -7465906.01948  -5802324.87244  22762804.1054   22762802.6054
      3474.7344
 04  9 13 21 52 44.9990000  0  8G 3G 8G13G19G23G27G10G28
   -720940.91147   -555429.42143  23109224.1984   23109224.2264
      -931.5164
  -9143842.64949  -7105200.26847  20888293.3474   20888291.2414
      2121.0164
   1757723.02749   1368741.05247  20657630.5264   20657627.7104
     -1421.6094
  -8507400.32548  -6608436.75545  22407813.8554   22407810.2304
      1485.1414
   9014045.62347   7003994.02943  23519222.7064   23519221.9014
     -2986.3914
  -4677007.28549  -3635893.15947  20519561.7764   20519559.4724
       932.7344
  -5181529.65247  -4032729.41743  23121397.3864   23121396.2144
      1538.8284
  -7517993.78948  -5842912.68944  22752892.0974   22752890.6054
      3470.4694
 04  9 13 21 52 59.9990000  0  8G 3G 8G13G19G23G27G10G28
   -706901.40147   -544489.56943  23111895.5264   23111895.7884
      -940.6724
  -9175630.51249  -7129970.01847  20882244.2534   20882242.3824
      2117.1884
   1779102.91349   1385400.68147  20661699.4254   20661696.2764
     -1429.3444
  -8529612.90248  -6625745.24745  22403587.0034   22403583.4404
      1476.2814
   9058865.66747   7038918.66143  23527752.1984   23527751.3824
     -2989.7974
  -4690974.94949  -3646777.05547  20516903.7764   20516900.8974
       929.3914
  -5204542.64647  -4050661.63243  23117017.8084   23117016.8124
      1529.3594
  -7570019.60248  -5883452.22344  22742991.7924   22742990.3784
      3466.0944
 04  9 13 21 53 14.9990000  0  8G 3G 8G13G19G23G27G10G28
   -692726.57347   -533444.28543  23114593.1674   23114593.2104
      -949.5164
  -9207364.03249  -7154697.42747  20876205.7374   20876203.3234
      2113.7194
   1800596.43549   1402148.85547  20665789.4874   20665786.2844
     -1436.7194
  -8551695.70048  -6642952.60146  22399384.9254   22399381.2144
      1467.8444
   9103732.95647   7073880.10443  23536290.1674   23536289.2064
     -2992.7814
  -4704895.48949  -3657624.23047  20514255.1834   20514252.1714
       926.4224
  -5227413.39047  -4068482.99743  23112665.0814   23112664.7964
      1519.9534
  -7621982.00148  -5923942.33244  22733103.6054   22733102.0854
      3462.0164
 04  9 13 21 53 29.9990000  0  8G 3G 8G13G19G23G27G10G28
   -678416.72948   -522293.76943  23117316.2614   23117316.4134
      -958.3284
  -9239043.54449  -7179382.75747  20870177.3704   20870175.3864
      2110.2814
   1822203.41249   1418985.44247  20669900.9644   20669898.1364
     -1444.1874
  -8573648.64448  -6660058.78645  22395207.0584   22395203.3434
      1459.2504
   9148646.98347   7108877.94843  23544836.9254   23544836.4214
     -2995.7344
  -4718768.95049  -3668434.72647  20511614.9174   20511612.2304
       923.3754
  -5250142.00047  -4086193.59144  23108340.9954   23108340.0854
      1510.5314
  -7673880.99948  -5964383.05144  22723227.3624   22723226.1594
      3457.9064
 04  9 13 21 53 44.9990000  0  8G 3G 8G13G19G23G27G10G28
   -663972.74547   -511038.75943  23120065.6124   23120064.4954
      -967.3594
  -9270669.51949  -7204026.36447  20864158.9334   20864156.5774
      2106.6564
   1843922.94949   1435909.73447  20674034.1904   20674031.1284
     -1451.7034
  -8595472.27848  -6677064.20345  22391054.2454   22391050.5654
      1450.6254
   9193606.88047   7143911.53043  23553392.3234   23553391.6904
     -2998.7974
  -4732596.10749  -3679209.13647  20508983.8554   20508981.0584
       920.3134
  -5272729.15346  -4103793.98243  23104042.4484   23104042.5224
      1501.0944
  -7725717.11748  -6004774.77944  22713363.4724   22713361.6324
      3453.7034
 04  9 13 21 53 59.9990000  0  8G 3G 8G13G19G23G27G10G28
   -649394.34148   -499678.98743  23122839.7694   23122838.8664
      -976.3754
  -9302241.50749  -7228627.89747  20858151.1834   20858148.7024
      2103.0004
   1865755.62049   1452922.18547  20678188.8314   20678185.8704
     -1459.3124
  -8617165.79348  -6693968.22845  22386925.9724   22386922.5424
      1441.8754
   9238613.09947   7178981.25943  23561957.0814   23561955.4214
     -3002.0004
  -4746376.28049  -3689946.93447  20506361.4484   20506358.7764
       917.0944
  -5295174.11647  -4121283.56043  23099771.5504   23099770.8124
      1491.5944
  -7777489.63348  -6045116.94644  22703511.3394   22703509.8514
      3449.3914
 04  9 13 21 54 14.9990000  0  8G 3G 8G13G19G23G27G10G28
   -634681.82748   -488214.71843  23125638.5654   23125638.8354
      -985.2974
  -9333759.71649  -7253187.53447  20852153.1594   20852151.3584
      2099.3444
   1887701.05549   1470022.50947  20682364.9484   20682362.1674
     -1466.7664
  -8638729.22148  -6710770.88845  22382822.9954   22382819.3514
      1433.1724
   9283665.24547   7214086.72843  23570530.7924   23570528.8194
     -3005.0474
  -4760109.46649  -3700648.12247  20503747.9014   20503745.2264
       913.9534
  -5317476.91846  -4138662.38043  23095527.8474   23095526.9094
      1482.1414
  -7829198.53648  -6085409.53444  22693671.8314   22693669.5464
      3445.0634
 04  9 13 21 54 29.9990000  0  8G 3G 8G13G19G23G27G10G28
   -619835.32548   -476646.05343  23128463.9254   23128463.6124
      -994.1724
  -9365223.85049  -7277705.03647  20846165.6444   20846163.5504
      2095.8284
   1909759.36649   1487210.77347  20686562.5814   20686559.3664
     -1474.3594
  -8660162.26448  -6727471.94246  22378744.3624   22378740.5734
      1424.4844
   9328763.10647   7249227.81443  23579112.1284   23579110.0544
     -3008.0784
  -4773795.77049  -3711312.78047  20501143.5034   20501140.9014
       910.9064
  -5339637.48446  -4155930.34143  23091310.4644   23091309.5774
      1472.5474
  -7880843.53748  -6125652.33644  22683843.9254   22683842.0624
      3440.8914
 04  9 13 21 54 44.9990000  0  8G 3G 8G13G19G23G27G10G28
   -604856.23948   -464974.04743  23131314.3474   23131314.1794
     -1002.8914
  -9396635.27749  -7302181.46447  20840188.2844   20840186.7494
      2092.3444
   1931928.84949   1504485.67747  20690781.2144   20690778.1634
     -1481.6564
  -8681466.14948  -6744072.35445  22374690.1904   22374686.7724
      1415.9534
   9373905.08648   7284403.31943  23587703.1904   23587701.1054
     -3010.9064
  -4787436.34949  -3721941.79647  20498548.1054   20498545.4484
       907.8914
  -5361657.04447  -4173088.46343  23087120.4174   23087119.7614
      1463.2664
  -7932426.01748  -6165846.41444  22674028.3314   22674025.8904
      3436.7974
 04  9 13 21 54 59.9990000  0  8G 3G 8G13G19G23G27G10G28
   -589744.79148   -453198.91243  23134190.8314   23134189.8194
     -1011.7814
  -9427993.87949  -7326616.72747  20834221.0734   20834218.9254
      2088.8134
   1954209.54349   1521847.23647  20695021.3084   20695017.7924
     -1489.1094
  -8702640.60148  -6760571.92045  22370660.9644   22370656.9914
      1407.3134
   9419091.03447   7319613.05143  23596300.3084   23596299.3664
     -3013.8284
  -4801031.19949  -3732535.20247  20495960.8314   20495958.2144
       904.8134
  -5383535.39347  -4190136.53244  23082957.6904   23082956.7764
      1453.8444
  -7983945.68348  -6205991.54344  22664223.5264   22664222.1834
      3432.5634
 04  9 13 21 55 14.9990000  0  8G 3G 8G13G19G23G27G10G28
   -574501.29548   -441320.90943  23137091.1834   23137090.8124
     -1020.5474
  -9459299.78549  -7351010.94347  20828263.6674   20828261.4174
      2085.4064
   1976601.21649   1539295.28247  20699282.1204   20699279.0624
     -1496.4374
  -8723685.62248  -6776970.62646  22366656.4014   22366652.8824
      1398.6564
   9464320.51747   7354856.72842  23604908.2144   23604907.4054
     -3016.7814
  -4814580.49549  -3743093.09647  20493382.5894   20493379.5934
       901.7504
  -5405272.68547  -4207074.67344  23078820.6204   23078820.2264
      1444.4534
  -8035402.56548  -6246087.76045  22654432.3234   22654430.3624
      3428.3134
 04  9 13 21 55 29.9990000  0  8G 3G 8G13G19G23G27G10G28
   -559125.59348   -429339.86043  23140017.0034   23140016.4604
     -1029.4534
  -9490552.87149  -7375363.98247  20822316.3554   20822314.1164
      2081.8444
   1999103.87249   1556829.79047  20703564.2614   20703561.0694
     -1503.8284
  -8744600.75448  -6793268.11846  22362676.1444   22362672.3154
      1390.0474
   9509593.71347   7390134.38242  23613523.4174   23613522.3124
     -3019.6414
  -4828083.86649  -3753615.20847  20490813.1514   20490810.1514
       898.7504
  -5426868.59547  -4223902.66643  23074710.9334   23074710.7374
      1435.1254
  -8086796.26848  -6286134.75044  22644652.2924   22644650.3004
      3424.2034
 04  9 13 21 55 44.9990000  0  8G 3G 8G13G19G23G27G10G28
   -543615.77547   -417254.31843  23142968.1364   23142967.7614
     -1038.3914
  -9521750.62449  -7399673.92247  20816379.8234   20816377.5154
      2078.1094
   2021719.55749   1574452.38847  20707868.0974   20707864.7924
     -1511.3754
  -8765383.66248  -6809462.58245  22358721.0584   22358717.7454
      1381.2034
   9554912.32547   7425447.51942  23622147.7924   23622146.5344
     -3022.5624
  -4841539.12849  -3764099.82147  20488252.6284   20488249.8864
       895.4844
  -5448320.90247  -4240618.74744  23070628.3864   23070628.1014
      1425.3594
  -8138124.51147  -6326130.70344  22634884.5734   22634882.9874
      3419.8594
 04  9 13 21 55 59.9990000  0  8G 3G 8G13G19G23G27G10G28
   -527972.92547   -405065.09943  23145945.1754   23145944.0774
     -1047.2034
  -9552894.02649  -7423941.49647  20810453.3314   20810451.1474
      2074.4844
   2044447.47849   1592162.42747  20712193.0894   20712189.8044
     -1518.8914
  -8786034.98948  -6825554.52846  22354791.3084   22354787.7454
      1372.3914
   9600275.37147   7460795.27242  23630779.6984   23630778.6084
     -3025.5474
  -4854947.25549  -3774547.72347  20485701.4644   20485697.8824
       892.3914
  -5469630.33447  -4257223.50544  23066573.2924   23066572.6364
      1415.9694
  -8189387.82548  -6366076.10444  22625129.8784   22625127.8394
      3415.4384
 04  9 13 21 56 14.9990000  0  8G 3G 8G13G19G23G27G10G28
   -512197.55447   -392772.65243  23148947.1904   23148946.7764
     -1056.0944
  -9583983.42449  -7448167.00047  20804537.2064   20804535.1474
      2070.9224
   2067286.82649   1609959.30747  20716538.9564   20716536.2144
     -1526.2664
  -8806554.98748  -6841544.12645  22350886.5814   22350883.2614
      1363.7344
   9645682.31147   7496177.20742  23639420.9334   23639419.2614
     -3028.5314
  -4868308.33449  -3784958.95947  20483158.5654   20483155.8044
       889.2344
  -5490797.20448  -4273717.18844  23062546.1364   23062545.0894
      1406.5004
  -8240586.62048  -6405971.20144  22615386.6984   22615385.4644
      3411.2194
 04  9 13 21 56 29.9990000  0  8G 3G 8G13G19G23G27G10G28
   -496290.62047   -380377.66043  23151974.2764   23151973.6874
     -1064.7034
  -9615019.55549  -7472350.99747  20798631.3864   20798628.9484
      2067.3754
   2090237.16449   1627842.66547  20720906.4174   20720902.8354
     -1533.7194
  -8826944.12748  -6857431.76045  22347006.6054   22347003.2064
      1355.0164
   9691132.23046   7531592.62742  23648069.3784   23648068.5694
     -3031.3124
  -4881623.25049  -3795334.23247  20480624.9644   20480622.0894
       886.1724
  -5511822.20347  -4290100.29944  23058544.9804   23058544.3824
      1397.0164
  -8291721.31248  -6445816.37144  22605656.2144   22605654.2614
      3406.8754
 04  9 13 21 56 44.9990000  0  8G 3G 8G13G19G23G27G10G28
   -480252.85447   -367880.72843  23155025.6754   23155025.8704
     -1073.6254
  -9646002.82749  -7496493.80447  20792735.2304   20792732.6674
      2063.7504
   2113297.60949   1645811.82347  20725294.8084   20725291.5584
     -1541.0784
  -8847202.89648  -6873217.80745  22343151.6364   22343148.0854
      1346.1414
   9736624.26047   7567040.86942  23656726.9564   23656725.8234
     -3034.3754
  -4894892.39649  -3805673.82947  20478100.0194   20478097.2144
       882.9694
  -5532705.81748  -4306373.25144  23054571.0814   23054570.2374
      1387.3754
  -8342792.46248  -6485612.02144  22595937.6754   22595935.9444
      3402.5164
 04  9 13 21 56 59.9990000  0  8G 3G 8G13G19G23G27G10G28
   -464082.88247   -355280.77243  23158102.8624   23158102.3664
     -1082.3594
  -9676931.61049  -7520594.15247  20786849.8154   20786847.4294
      2060.1254
   2136469.51649   1663867.83147  20729704.0654   20729701.2414
     -1548.4224
  -8867329.59348  -6888900.95645  22339321.3004   22339318.0624
      1337.4534
   9782159.72047   7602522.93443  23665391.7924   23665390.8584
     -3036.9694
  -4908114.23949  -3815976.56947  20475583.6204   20475581.0974
       879.9384
  -5553446.30847  -4322534.66844  23050623.9334   23050623.4724
      1378.0004
  -8393798.21748  -6525356.71844  22586231.2924   22586229.3784
      3398.3134
 04  9 13 21 57 14.9990000  0  8G 3G 8G13G19G23G27G10G28
   -447780.87047   -342577.94243  23161204.7924   23161205.1714
     -1091.1254
  -9707806.08849  -7544652.17747  20780974.4484   20780972.3784
      2056.5004
   2159752.82949   1682010.65347  20734134.8314   20734131.9374
     -1555.8754
  -8887323.98148  -6904480.99545  22335516.5734   22335512.7924
      1328.6254
   9827738.34547   7638038.66042  23674064.2694   23674064.3004
     -3039.9534
  -4921288.82049  -3826242.48347  20473076.7844   20473074.0974
       876.8134
  -5574043.73748  -4338584.63043  23046704.5034   23046703.7694
      1368.3914
  -8444738.64148  -6565050.50344  22576537.5264   22576535.8474
      3393.8754
 04  9 13 21 57 29.9990000  0  8G 3G 8G13G19G23G27G10G28
   -431348.35747   -329773.41643  23164332.2534   23164332.1084
     -1099.7974
  -9738627.35949  -7568668.75547  20775109.5264   20775107.5224
      2053.0474
   2183146.06849   1700239.12347  20738586.3944   20738583.3824
     -1563.1094
  -8907187.18248  -6919958.81746  22331736.9014   22331733.0894
      1319.8444
   9873358.58646   7673586.78542  23682746.5264   23682745.3194
     -3042.6874
  -4934417.39849  -3836472.54647  20470578.4484   20470575.8974
       873.7974
  -5594499.33047  -4354524.04944  23042811.8944   23042811.6164
      1359.0004
  -8495614.77148  -6604694.18244  22566856.0424   22566854.5034
      3389.6884
 04  9 13 21 57 44.9990000  0  8G 3G 8G13G19G23G27G10G28
   -414784.23246   -316866.35443  23167483.9334   23167483.8474
     -1108.6564
  -9769394.16849  -7592642.88447  20769254.6444   20769252.5694
      2049.3134
   2206650.20849   1718554.01847  20743059.1124   20743056.1204
     -1570.6874
  -8926917.90448  -6935333.40445  22327981.9564   22327978.3474
      1310.9064
   9919021.50447   7709168.14642  23691434.9094   23691434.9214
     -3045.6724
  -4947498.72249  -3846665.79647  20468089.2224   20468086.5584
       870.3754
  -5614811.83247  -4370351.98044  23038946.6514   23038945.9604
      1349.3754
  -8546425.26648  -6644286.72844  22557187.5814   22557185.2454
      3385.1564
 04  9 13 21 57 59.9990000  0  8G 3G 8G13G19G23G27G10G28
   -398088.65147   -303856.82243  23170661.3704   23170661.1754
     -1117.4534
  -9800106.36849  -7616574.46047  20763410.5344   20763408.3974
      2045.5784
   2230265.40049   1736955.44747  20747552.9954   20747550.1084
     -1578.1094
  -8946515.88348  -6950604.53646  22324252.5734   22324249.0504
      1302.1254
   9964726.93547   7744782.68242  23700133.2924   23700132.1944
     -3048.4694
  -4960532.51349  -3856821.99447  20465608.9724   20465606.2304
       867.3284
  -5634980.96547  -4386068.19943  23035108.5424   23035108.1594
      1339.8594
  -8597169.80748  -6683827.87544  22547530.8394   22547529.1124
      3380.7034
 04  9 13 21 58 14.9990000  0  8G 3G 8G13G19G23G27G10G28
   -381262.02147   -290745.19843  23173862.8154   23173863.1284
     -1126.1874
  -9830764.09149  -7640463.59247  20757576.3474   20757574.4954
      2042.0314
   2253991.34149   1755443.17047  20752067.8554   20752064.8624
     -1585.5004
  -8965981.09148  -6965772.23745  22320548.3314   22320545.0504
      1293.2664
  10010474.36847   7780429.90942  23708838.7764   23708837.6714
     -3051.2034
  -4973519.00849  -3866941.35547  20463137.7614   20463134.9254
       864.1724
  -5655006.93347  -4401672.84844  23031297.9804   23031297.0814
      1330.3284
  -8647848.57748  -6723317.79244  22537886.6834   22537885.4724
      3376.3914
 04  9 13 21 58 29.9990000  0  8G 3G 8G13G19G23G27G10G28
   -364304.34247   -277531.45543  23177089.8944   23177090.2024
     -1134.7034
  -9861367.07149  -7664310.07347  20751752.7924   20751750.6324
      2038.5164
   2277828.04349   1774017.20447  20756603.8864   20756600.9404
     -1592.7034
  -8985313.02348  -6980836.07346  22316869.7374   22316866.3194
      1284.4384
  10056263.89447   7816109.96042  23717552.5034   23717551.4404
     -3053.9224
  -4986457.90049  -3877023.61547  20460675.8624   20460672.7184
       861.1414
  -5674889.44148  -4417165.71944  23027514.3784   23027513.5894
      1320.8284
  -8698461.11048  -6762756.07944  22528255.6904   22528254.2024
      3372.0944
 04  9 13 21 58 44.9990000  0  8G 3G 8G13G19G23G27G10G28
   -347218.05146   -264217.48643  23180341.5504   23180341.8124
     -1143.4064
  -9891917.63449  -7688115.70347  20745939.5344   20745937.5584
      2034.9384
   2301773.05649   1792675.62747  20761160.3944   20761157.6874
     -1599.9694
  -9004514.00448  -6995797.87645  22313215.9564   22313212.6014
      1275.7344
  10102093.04547   7851820.90442  23726273.1364   23726272.2494
     -3056.5944
  -4999351.50149  -3887070.58147  20458221.9804   20458219.6284
       858.0474
  -5694630.75648  -4432548.57044  23023757.4014   23023757.0264
      1311.3914
  -8749009.57048  -6802144.44044  22518636.5344   22518634.3904
      3367.7814
 04  9 13 21 58 59.9990000  0  8G 3G 8G13G19G23G27G10G28
   -330001.85447   -250802.31543  23183617.6284   23183617.9334
     -1152.0784
  -9922414.33049  -7711879.35647  20740135.8084   20740133.7924
      2031.3134
   2325827.88449   1811419.63147  20765737.8704   20765735.0264
     -1607.3754
  -9023582.25548  -7010656.26545  22309587.3394   22309584.3434
      1266.7974
  10147963.06047   7887563.61642  23735002.2694   23735001.1204
     -3059.3284
  -5012198.28449  -3897081.06747  20455777.5424   20455774.3664
       854.9224
  -5714229.23248  -4447820.10744  23020028.1054   23020027.5894
      1301.7504
  -8799492.23948  -6841481.54344  22509030.1124   22509028.3434
      3363.2664
 04  9 13 21 59 14.9990000  0  8G 3G 8G13G19G23G27G10G28
   -312654.99247   -237285.31343  23186919.3084   23186919.0584
     -1160.8754
  -9952855.87449  -7735600.03647  20734343.0344   20734340.9134
      2027.4694
   2349993.18949   1830249.72047  20770336.6284   20770333.8004
     -1614.7194
  -9042516.83948  -7025410.48145  22305984.8234   22305980.7964
      1257.7664
  10193874.68747   7923338.82343  23743738.8944   23743738.5584
     -3062.2194
  -5024997.21949  -3907054.27147  20453341.7764   20453338.9404
       851.5634
  -5733684.02348  -4462979.70144  23016326.3004   23016325.2064
      1292.1564
  -8849908.13848  -6880766.62844  22499436.0344   22499434.6124
      3358.7194
 04  9 13 21 59 29.9990000  0  8G 3G 8G13G19G23G27G10G28
   -295177.87947   -223666.81143  23190244.9254   23190244.6794
     -1169.4844
  -9983242.67149  -7759278.05847  20728560.9484   20728558.3584
      2023.9534
   2374268.74149   1849165.71047  20774955.8394   20774952.8784
     -1622.0624
  -9061317.62848  -7040060.43745  22302406.4804   22302402.9334
      1248.9384
  10239827.40547   7959146.00442  23752483.9174   23752483.4724
     -3064.9224
  -5037748.56749  -3916990.39247  20450914.9334   20450912.6944
       848.5164
  -5752995.12347  -4478027.31644  23012651.2064   23012650.9294
      1282.6254
  -8900257.29648  -6919999.69544  22489855.6444   22489853.2964
      3354.4064
 04  9 13 21 59 44.9990000  0  8G 3G 8G13G19G23G27G10G28
   -277571.08647   -209947.27243  23193595.1364   23193595.0654
     -1178.1094
 -10013574.85749  -7782913.52047  20722788.7304   20722786.5974
      2020.1724
   2398653.99649   1868167.18547  20779596.3004   20779593.4174
     -1629.4374
  -9079984.74248  -7054606.23345  22298854.5264   22298850.8044
      1239.9224
  10285820.58847   7994984.75643  23761236.0264   23761236.2374
     -3067.7344
  -5050452.65349  -3926889.69347  20448497.5114   20448495.0264
       845.2344
  -5772162.85547  -4492963.22144  23009003.6444   23009003.4054
      1273.0004
  -8950539.99748  -6959180.98445  22480286.7374   22480284.7804
      3349.8754
 04  9 13 21 59 59.9990000  0  8G 3G 8G13G19G23G27G10G28
   -259834.23847   -196126.38443  23196970.1984   23196970.4374
     -1186.9844
 -10043851.84149  -7806505.96647  20717027.2534   20717025.0264
      2016.5634
   2423149.30749   1887254.42047  20784257.7144   20784254.8394
     -1636.7974
  -9098517.68347  -7069047.47345  22295327.6124   22295323.8004
      1230.9384
  10331854.65147   8030855.32042  23769995.9644   23769996.2534
     -3070.3754
  -5063108.73549  -3936751.56847  20446089.0034   20446086.7574
       842.0784
  -5791186.64747  -4507786.95344  23005383.7224   23005382.6594
      1263.4224
  -9000755.50748  -6998309.92044  22470730.6124   22470728.8704
      3345.4534
 04  9 13 22  0 14.9990000  0  8G 3G 8G13G19G23G27G10G28
   -241967.49747   -182204.28543  23200370.8474   23200370.4684
     -1195.4694
 -10074073.53349  -7830055.33047  20711275.9014   20711273.9644
      2012.9064
   2447754.68149   1906427.41447  20788939.7534   20788937.2574
     -1644.0314
  -9116916.06648  -7083383.87145  22291826.9484   22291823.2144
      1222.0474
  10377929.44347   8066757.64442  23778764.3084   23778763.7224
     -3072.9694
  -5075716.72949  -3946575.98647  20443690.3234   20443687.1674
       838.9224
  -5810066.30648  -4522498.39344  23001791.0734   23001790.5464
      1253.8594
  -9050903.51548  -7037386.24445  22461187.6364   22461185.7844
      3340.9694
 04  9 13 22  0 29.9990000  0  8G 3G 8G13G19G23G27G10G28
   -223973.10847   -168182.74643  23203794.5974   23203795.1554
     -1204.0004
 -10104242.07049  -7853563.28247  20705535.4404   20705533.1244
      2009.4384
   2472467.89749   1925684.44647  20793642.5654   20793639.5194
     -1651.2034
  -9135181.89848  -7097616.98045  22288350.6904   22288346.9374
      1213.2034
  10424042.54747   8102689.82842  23787539.6124   23787538.9294
     -3075.5944
  -5088278.83849  -3956364.64847  20441299.4174   20441297.0304
       835.8754
  -5828803.98848  -4537099.17244  22998225.4174   22998224.8274
      1244.4064
  -9100985.98748  -7076411.52145  22451657.7844   22451655.7184
      3336.5634
 04  9 13 22  0 44.9990000  0  8G 3G 8G13G19G23G27G10G28
   -205850.43147   -154061.19843  23207243.0344   23207243.4644
     -1212.4694
 -10134356.55849  -7877029.10647  20699804.9334   20699802.4334
      2005.8444
   2497289.63149   1945026.04747  20798366.4404   20798363.4954
     -1658.2664
  -9153314.13648  -7111745.98146  22284900.4644   22284897.3234
      1204.3594
  10470194.68847   8138652.45042  23796321.8314   23796320.9254
     -3078.1564
  -5100794.07949  -3966116.78947  20438918.2454   20438915.5034
       832.8444
  -5847398.82147  -4551588.67544  22994686.9804   22994686.7224
      1234.8914
  -9151002.02648  -7115385.01745  22442139.4644   22442137.3974
      3332.1414
 04  9 13 22  0 59.9990000  0  7G 3G 8G13G19G27G10G28
   -187598.21947   -139838.70743  23210716.6754   23210716.4484
     -1221.0004
 -10164415.45249  -7900451.62147  20694084.6904   20694082.4834
      2002.1254
   2522221.28149   1964453.28347  20803110.7064   20803107.3664
     -1665.7194
  -9171311.23248  -7125769.69046  22281475.5654   22281472.0074
      1195.4064
  -5113260.83049  -3975831.14347  20436545.8474   20436543.1834
       829.6254
  -5865849.14047  -4565965.54144  22991176.1674   22991175.3194
      1225.2664
  -9200949.97748  -7154305.45545  22432635.0654   22432633.2844
      3327.6564
 04  9 13 22  1 14.9990000  0  7G 3G 8G13G19G27G10G28
   -169218.05547   -125516.53343  23214214.0504   23214214.3234
     -1229.6724
 -10194419.94449  -7923831.73647  20688375.1364   20688372.9764
      1998.4534
   2547261.24849   1983964.92047  20807875.4644   20807872.6834
     -1673.0164
  -9189174.41148  -7139689.03745  22278076.3624   22278073.1284
      1186.3594
  -5125680.48149  -3985508.79747  20434182.2224   20434179.4014
       826.2974
  -5884156.33747  -4580230.89343  22987692.4094   22987691.4444
      1215.5944
  -9250831.03248  -7193173.78245  22423142.6284   22423140.9214
      3323.0784
 04  9 13 22  1 29.9990000  0  7G 3G 8G13G19G27G10G28
   -150708.59247   -111093.63343  23217735.9804   23217736.8824
     -1238.2344
 -10224368.61349  -7947168.36947  20682676.0424   20682673.7694
      1994.7194
   2572411.01949   2003562.12247  20812661.4954   20812658.4764
     -1680.3444
  -9206901.82348  -7153502.60445  22274703.1674   22274699.4484
      1177.2814
  -5138051.40849  -3995148.49747  20431828.5424   20431825.8274
       823.0944
  -5902318.80548  -4594383.47644  22984235.8234   22984235.5694
      1206.0314
  -9300643.51548  -7231988.66645  22413663.8314   22413661.5854
      3318.5474
 04  9 13 22  1 44.9990000  0  7G 3G 8G13G19G27G10G28
   -132070.79348    -96570.68343  23221283.1594   23221283.0774
     -1246.7814
 -10254261.99449  -7970461.89447  20676987.6754   20676985.3784
      1991.1094
   2597669.73549   2023244.22247  20817467.8234   20817464.6674
     -1687.5004
  -9224494.20049  -7167210.93245  22271355.4874   22271351.5424
      1168.3914
  -5150374.41849  -4004750.83847  20429483.1204   20429480.5624
       819.9844
  -5920337.22048  -4608423.79544  22980806.8314   22980806.2724
      1196.5004
  -9350387.99648  -7270750.55944  22404197.9874   22404195.5224
      3314.0314
 04  9 13 22  1 59.9990000  0  7G 3G 8G13G19G27G10G28
   -113305.00147    -81948.02543  23224854.6444   23224854.4014
     -1255.3124
 -10284100.34649  -7993712.56247  20671309.4724   20671307.1404
      1987.4534
   2623037.08149   2043010.96847  20822294.9014   20822292.4174
     -1694.7504
  -9241951.41548  -7180813.94846  22268032.7764   22268029.8904
      1159.3754
  -5162649.50849  -4014315.84947  20427147.5194   20427144.4444
       816.7344
  -5938211.62148  -4622351.91144  22977405.3554   22977405.5154
      1186.8594
  -9400064.37648  -7309459.38544  22394744.8004   22394743.0584
      3309.5164
 04  9 13 22  2 14.9990000  0  7G 3G 8G13G19G27G10G28
    -94410.39747    -67224.98943  23228449.2454   23228449.9564
     -1263.8444
 -10313882.34549  -8016919.30647  20665642.0584   20665640.0344
      1983.6254
   2648513.85149   2062862.96447  20827143.2614   20827140.8704
     -1702.1414
  -9259272.48348  -7194310.87445  22264737.0814   22264733.7804
      1150.1414
  -5174875.69849  -4023842.75947  20424820.9174   20424818.1364
       813.4064
  -5955941.03248  -4636167.04344  22974031.7224   22974031.4644
      1177.1724
  -9449671.74848  -7348114.44845  22385305.0194   22385302.7144
      3304.9224
 04  9 13 22  2 29.9990000  0  7G 3G 8G13G19G27G10G28
    -75387.22948    -52401.79843  23232070.0584   23232070.4564
     -1272.3124
 -10343608.11949  -8040082.24447  20659985.4094   20659983.2694
      1979.8914
   2674099.98349   2082800.18947  20832012.3234   20832009.1674
     -1709.2814
  -9276457.14548  -7207701.51545  22261467.1904   22261463.1244
      1141.1414
  -5187052.82249  -4033331.42847  20422503.5734   20422500.9564
       810.3754
  -5973525.41148  -4649869.16144  22970685.7454   22970685.2884
      1167.6094
  -9499209.84948  -7386715.53245  22375877.7924   22375875.7614
      3300.2814
 04  9 13 22  2 44.9990000  0  7G 3G 8G13G19G27G10G28
    -56236.59547    -37479.26343  23235713.9254   23235714.5894
     -1280.9224
 -10373278.42749  -8063201.96247  20654339.4094   20654336.8584
      1976.1414
   2699794.40549   2102821.79247  20836902.0264   20836898.8004
     -1716.6094
  -9293506.11448  -7220986.41246  22258222.7844   22258218.9334
      1132.1094
  -5199181.82949  -4042782.60047  20420195.8474   20420192.7264
       806.9694
  -5990965.58448  -4663458.91844  22967367.1834   22967366.6324
      1157.7974
  -9548679.40748  -7425263.19945  22366464.2454   22366462.5734
      3295.6884
 04  9 13 22  2 59.9990000  0  7G 3G 8G13G19G27G10G28
    -36958.83047    -22457.65543  23239382.6204   23239382.3624
     -1289.4224
 -10402893.63949  -8086278.74647  20648703.8704   20648701.4724
      1972.4534
   2725596.75749   2122927.49347  20841811.6444   20841808.9644
     -1723.8594
  -9310419.51048  -7234165.67845  22255004.2844   22255000.5854
      1122.9844
  -5211262.88949  -4052196.42047  20417896.5034   20417894.4134
       803.7034
  -6008261.70648  -4676936.44044  22964075.5424   22964075.1674
      1148.2504
  -9598080.54348  -7463757.56645  22357063.1284   22357061.0894
      3291.0634
 04  9 13 22  3 14.9990000  0  7G 3G 8G13G19G27G10G28
    -17553.85548     -7336.94643  23243075.1514   23243075.2534
     -1297.8754
 -10432453.15149  -8109312.12947  20643078.8004   20643076.4014
      1968.7344
   2751507.36949   2143117.56347  20846742.1834   20846739.4684
     -1730.9694
  -9327196.92548  -7247238.97945  22251811.4404   22251807.3084
      1113.9694
  -5223295.57549  -4061572.54547  20415606.9014   20415604.2614
       800.5314
  -6025413.47447  -4690301.46444  22960811.6124   22960811.3124
      1138.5944
  -9647412.73448  -7502198.19645  22347675.6754   22347673.5074
      3286.5784
 04  9 13 22  3 29.9990000  0  7G 3G 8G13G19G27G10G28
      1978.16848      7882.77943  23246792.0584   23246791.8904
     -1306.4534
 -10461956.93649  -8132302.08847  20637464.5974   20637462.4174
      1964.9224
   2777526.07749   2163391.85647  20851693.5974   20851691.1474
     -1738.2814
  -9343838.01848  -7260206.06845  22248644.6204   22248641.1794
      1104.7344
  -5235279.77349  -4070910.89447  20413326.5974   20413323.7724
       797.2194
  -6042420.78347  -4703553.90844  22957575.5424   22957575.1164
      1128.9224
  -9696675.71648  -7540584.90245  22338301.2144   22338299.2724
      3281.7664
 04  9 13 22  3 44.9990000  0  7G 3G 8G13G19G27G10G28
     21636.40648     23200.84543  23250532.7924   23250532.3784
     -1314.7344
 -10491405.64549  -8155249.13847  20631860.7374   20631858.0114
      1961.4844
   2803652.03449   2183749.71347  20856665.1754   20856662.3864
     -1745.2814
  -9360343.31248  -7273067.33045  22245503.8624   22245500.1834
      1095.8444
  -5247216.10049  -4080211.93347  20411055.0584   20411052.1754
       794.2504
  -6059284.24246  -4716694.28044  22954366.8154   22954365.7024
      1119.5314
  -9745870.06748  -7578918.13645  22328940.0264   22328938.0654
      3277.3914
 04  9 13 22  3 59.9990000  0  7G 3G 8G13G19G27G10G28
     41421.30647     38617.60343  23254297.4644   23254297.8084
     -1323.2194
 -10520798.23949  -8178152.44447  20626267.4334   20626265.1444
      1957.5474
   2829885.92949   2204191.68847  20861657.5114   20861654.5344
     -1752.5944
  -9376711.87448  -7285822.04945  22242389.0194   22242385.3944
      1086.6414
  -5259103.70249  -4089475.00147  20408792.8314   20408790.2064
       790.8134
  -6076002.98147  -4729721.88344  22951185.1594   22951184.2304
      1109.7504
  -9794994.81548  -7617197.12345  22319591.7534   22319589.1474
      3272.6254
 04  9 13 22  4 14.9990000  0  7G 3G 8G13G19G27G10G28
     61332.55448     54132.81343  23258087.0974   23258087.9294
     -1331.8124
 -10550135.01549  -8201012.27147  20620684.9724   20620682.5034
      1953.8284
   2856227.30749   2224717.40747  20866669.9644   20866666.8514
     -1759.8914
  -9392943.86848  -7298470.34645  22239299.9804   22239296.3194
      1077.4224
  -5270942.62449  -4098700.14547  20406539.8084   20406537.5654
       787.4694
  -6092577.21247  -4742636.87944  22948031.4094   22948030.3704
      1099.9384
  -9844050.24148  -7655422.09745  22310256.6674   22310254.0734
      3267.8914
 04  9 13 22  4 29.9990000  0  7G 3G 8G13G19G27G10G28
     81371.40948     69747.47443  23261900.4254   23261900.3354
     -1340.1414
 -10579414.58749  -8223827.51547  20615113.1674   20615110.5034
      1950.1254
   2882677.65349   2245328.04747  20871703.3394   20871700.5654
     -1766.8914
  -9409037.66348  -7311010.95745  22236237.6054   22236233.8624
      1068.3444
  -5282731.49749  -4107886.28547  20404296.9254   20404294.2374
       784.3284
  -6109005.37348  -4755438.03744  22944904.6904   22944903.8944
      1090.3914
  -9893034.47248  -7693591.59745  22300935.4564   22300933.1834
      3263.2664
 04  9 13 22  4 44.9990000  0  7G 3G 8G13G19G27G10G28
    101535.92748     85460.02643  23265737.3314   23265737.7574
     -1348.5004
 -10608638.38649  -8246599.30548  20609552.1054   20609549.5224
      1946.3134
   2909234.94749   2266022.01647  20876757.0114   20876753.9914
     -1774.0944
  -9424994.87948  -7323445.15045  22233201.1834   22233197.7104
      1059.1884
  -5294472.02849  -4117034.75447  20402062.9254   20402059.9804
       781.0004
  -6125289.31348  -4768126.85544  22941805.8474   22941805.2104
      1080.7034
  -9941949.29448  -7731707.01845  22291627.1284   22291624.8234
      3258.5474
 04  9 13 22  4 59.9990000  0  7G 3G 8G13G19G27G10G28
    121828.07548    101272.05743  23269598.8394   23269599.1204
     -1357.0314
 -10637804.15549  -8269325.87447  20604001.6204   20603999.5114
      1942.5474
   2935901.27449   2286800.94747  20881831.5424   20881828.6874
     -1781.2814
  -9440813.10848  -7335771.04446  22230191.1834   22230187.5734
      1050.0474
  -5306161.92649  -4126143.77647  20399837.9484   20399835.2024
       777.7344
  -6141426.72748  -4780701.46744  22938735.2224   22938734.8744
      1071.0164
  -9990792.28248  -7769766.45745  22282332.7614   22282331.0074
      3253.8754
 04  9 13 22  5 14.9990000  0  7G 3G 8G13G19G27G10G28
    142245.28748    117181.54643  23273484.2224   23273484.6124
     -1365.2974
 -10666914.26249  -8292009.07147  20598462.2844   20598459.6984
      1938.8444
   2962674.21449   2307662.95347  20886926.2924   20886923.6754
     -1788.4224
  -9456494.64348  -7347990.41645  22227206.9014   22227203.4254
      1040.8914
  -5317803.42049  -4135215.07747  20397622.6204   20397619.6634
       774.4694
  -6157419.85748  -4793163.64444  22935692.0584   22935691.6634
      1061.4224
 -10039565.64548  -7807771.65145  22273051.3784   22273048.5694
      3249.2344
 04  9 13 22  5 29.9990000  0  7G 3G 8G13G19G27G10G28
    162788.00348    133188.79943  23277393.5034   23277393.7654
     -1373.6094
 -10695967.80449  -8314648.18847  20592933.9254   20592931.3974
      1935.0634
   2989554.28949   2328608.44247  20892041.3944   20892038.2654
     -1795.4844
  -9472038.60448  -7360102.58746  22224248.7064   22224245.0304
      1031.7504
  -5329395.75349  -4144248.06547  20395416.4874   20395414.1674
       771.2504
  -6173268.06048  -4805512.92144  22932676.0344   22932675.0974
      1051.7664
 -10088268.54548  -7845721.92045  22263783.3154   22263781.3394
      3244.5784
 04  9 13 22  5 44.9990000  0  7G 3G 8G13G19G27G10G28
    183455.93248    149293.65643  23281326.9174   23281326.9174
     -1381.9534
 -10724965.09749  -8337243.48047  20587415.6124   20587413.7494
      1931.3134
   3016541.34649   2349637.28547  20897176.8084   20897173.9334
     -1802.6414
  -9487444.94049  -7372107.52545  22221316.9334   22221313.1834
      1022.6094
  -5340939.00749  -4153242.81947  20393219.9174   20393217.8004
       767.9384
  -6188971.32448  -4817749.22644  22929688.2224   22929687.0114
      1042.1254
 -10136900.75448  -7883617.11045  22254528.9484   22254526.9094
      3239.8284
 04  9 13 22  5 59.9990000  0  7G 3G 8G13G19G27G10G28
    204247.34148    165494.68943  23285282.9254   23285283.0734
     -1390.3284
 -10753907.25549  -8359795.80847  20581908.2844   20581905.8584
      1927.5784
   3043633.59649   2370748.10647  20902332.5424   20902329.6714
     -1809.7194
  -9502714.99048  -7384006.25645  22218411.5504   22218407.6944
      1013.3914
  -5352434.58649  -4162200.40747  20391032.5654   20391029.8234
       764.7664
  -6204531.14048  -4829873.76444  22926727.1904   22926726.0224
      1032.4844
 -10185463.77348  -7921458.39945  22245287.7304   22245285.4174
      3235.1564
 04  9 13 22  6 14.9990000  0  7G 3G 8G13G19G27G10G28
    225164.12248    181793.43743  23289263.1674   23289263.4374
     -1398.6724
 -10782792.44249  -8382303.74347  20576411.4644   20576409.2614
      1923.7504
   3070833.12949   2391942.51047  20907508.4254   20907505.4994
     -1816.9224
  -9517846.44848  -7395797.00345  22215531.4724   22215528.5264
      1004.0634
  -5363880.27849  -4171119.13647  20388854.6514   20388851.9804
       761.2344
  -6219945.45048  -4841884.91044  22923793.6054   22923792.8744
      1022.7194
 -10233955.45748  -7959244.09745  22236060.0194   22236057.8624
      3230.2344
 04  9 13 22  6 29.9990000  0  7G 3G 8G13G19G27G10G28
    246204.98948    198188.86743  23293267.4174   23293267.0774
     -1406.9064
 -10811621.43549  -8404767.88547  20570925.6124   20570922.9484
      1920.0004
   3098138.78849   2413219.63247  20912704.3394   20912701.4804
     -1824.0004
  -9532840.39948  -7407480.60345  22212678.9874   22212675.2884
       994.9694
  -5375277.29449  -4179999.93847  20386685.9804   20386682.8514
       758.1564
  -6235215.22148  -4853783.45044  22920888.1834   22920887.0194
      1013.1414
 -10282376.64248  -7996974.85145  22226845.8784   22226843.4834
      3225.6724
 04  9 13 22  6 44.9990000  0  7G 3G 8G13G19G27G10G28
    267370.49448    214681.41743  23297295.0974   23297295.0934
     -1415.2344
 -10840393.38649  -8427187.58647  20565450.5264   20565447.5654
      1916.1254
   3125550.96949   2434579.74347  20917920.9334   20917917.8274
     -1831.0784
  -9547695.91248  -7419056.33645  22209851.8084   22209848.1444
       985.6254
  -5386624.66849  -4188842.05847  20384526.5114   20384523.5344
       754.7344
  -6250339.70848  -4865568.77144  22918009.9874   22918008.8434
      1003.3754
 -10330726.46848  -8034650.01645  22217644.8234   22217642.6244
      3220.8134
 04  9 13 22  6 59.9990000  0  7G 3G 8G13G19G27G10G28
    288659.91748    231270.54643  23301346.3554   23301346.3394
     -1423.4224
 -10869108.95149  -8449563.34947  20559985.8944   20559983.6944
      1912.5634
   3153068.94549   2456022.29147  20923157.3704   20923154.5264
     -1837.9534
  -9562413.43148  -7430524.52145  22207051.0894   22207047.1404
       976.6724
  -5397922.89449  -4197645.86947  20382376.8624   20382374.0384
       751.6414
  -6265319.40347  -4877241.27144  22915159.4094   22915158.2104
       993.8754
 -10379005.34148  -8072269.88845  22208457.7614   22208455.6984
      3216.2344
 04  9 13 22  7 14.9990000  0  7G 3G 8G13G19G27G10G28
    310074.26747    247956.99843  23305421.3154   23305421.8394
     -1431.6874
 -10897766.62849  -8471893.99447  20554532.5344   20554530.2534
      1908.6724
   3180693.90049   2477548.20147  20928414.1284   20928411.9834
     -1845.1414
  -9576991.40048  -7441883.97245  22204277.0194   22204273.3904
       967.2974
  -5409170.60449  -4206410.32547  20380236.1444   20380233.1124
       748.2344
  -6280153.01847  -4888799.93644  22912336.6754   22912335.5934
       984.1254
 -10427211.75948  -8109833.28645  22199284.5344   22199282.2304
      3211.3754
 04  9 13 22  7 29.9990000  0  7G 3G 8G13G19G27G10G28
    331611.62148    264739.29543  23309519.9804   23309520.1794
     -1439.9844
 -10926368.16349  -8494180.91347  20549089.7534   20549087.0854
      1904.8284
   3208423.95149   2499156.01147  20933690.9334   20933688.1944
     -1852.2344
  -9591431.62048  -7453136.08945  22201529.3004   22201525.5424
       958.0634
  -5420369.51549  -4215136.75647  20378105.2924   20378102.6164
       744.9534
  -6294842.33947  -4900246.18144  22909541.5264   22909540.1794
       974.4534
 -10475347.42248  -8147341.56845  22190124.2764   22190122.3664
      3206.6564
 04  9 13 22  7 44.9990000  0  7G 3G 8G13G19G27G10G28
    353271.89148    281617.38143  23313641.8704   23313642.0114
     -1448.3124
 -10954913.46949  -8516423.99847  20543658.1904   20543655.3974
      1901.0474
   3236259.21949   2520845.79947  20938988.0264   20938985.3784
     -1859.2504
  -9605733.73848  -7464280.61345  22198807.6834   22198803.8194
       948.7664
  -5431519.44349  -4223825.02347  20375983.5114   20375980.5694
       741.5944
  -6309387.09047  -4911579.74744  22906773.6514   22906772.5384
       964.7974
 -10523411.95048  -8184794.41045  22180977.8394   22180975.6084
      3201.8594
 04  9 13 22  7 59.9990000  0  7G 3G 8G13G19G27G10G28
    375054.15748    298590.53743  23317787.1204   23317787.2574
     -1456.3124
 -10983403.14349  -8538623.74247  20538236.3004   20538233.8554
      1897.4224
   3264198.86049   2542616.92147  20944304.7374   20944301.7844
     -1866.1094
  -9619898.25848  -7475317.88945  22196112.2694   22196108.1054
       939.6564
  -5442620.80249  -4232475.44347  20373870.7064   20373867.7334
       738.4064
  -6323787.92747  -4922801.19344  22904033.0344   22904033.0654
       955.2974
 -10571405.82048  -8222192.20445  22171845.1904   22171843.0774
      3197.2034
 04  9 13 22  8 14.9990000  0  7G 3G 8G13G19G27G10G28
    396958.50648    315658.79043  23321954.8314   23321955.6944
     -1464.4374
 -11011836.53249  -8560779.63247  20532825.8554   20532823.8084
      1893.5784
   3292242.91149   2564469.39047  20949641.2614   20949638.1444
     -1873.2504
  -9633924.78248  -7486247.64146  22193443.0344   22193439.9054
       930.3284
  -5453673.42549  -4241087.88147  20371767.6594   20371764.8004
       735.0164
  -6338044.65247  -4933910.35244  22901321.2304   22901319.5194
       945.5004
 -10619328.71848  -8259534.69945  22162725.7144   22162723.6714
      3192.3594
 04  9 13 22  8 29.9990000  0  7G 3G 8G13G19G27G10G28
    418985.98148    332823.01643  23326146.7614   23326147.2724
     -1472.5624
 -11040212.43649  -8582890.73047  20527425.9404   20527424.1474
      1889.9064
   3320392.58749   2586404.16746  20954998.1204   20954995.5734
     -1880.1414
  -9647812.02348  -7497068.87345  22190800.0264   22190796.8514
       921.1724
  -5464676.05649  -4249661.36447  20369673.8944   20369670.7764
       731.8134
  -6352155.97447  -4944906.19944  22898635.3314   22898634.0194
       935.8594
 -10667179.23348  -8296820.77045  22153620.0264   22153617.9374
      3187.5634
 04  9 13 22  8 44.9990000  0  7G 3G 8G13G19G27G10G28
    441134.80148    350081.78843  23330361.4334   23330362.6634
     -1480.5784
 -11068532.25849  -8604958.12247  20522036.9644   20522035.0384
      1886.1884
   3348646.14449   2608419.90347  20960374.2374   20960371.8314
     -1886.9534
  -9661561.30348  -7507782.59945  22188183.9484   22188180.4174
       912.0314
  -5475629.98649  -4258196.89647  20367589.4404   20367586.7184
       728.6414
  -6366123.31347  -4955789.84144  22895977.1204   22895976.7654
       926.3914
 -10714958.71648  -8334051.51945  22144528.2144   22144526.0074
      3183.0004
 04  9 13 22  8 59.9990000  0  7G 3G 8G13G19G27G10G28
    463405.94247    367435.88843  23334599.0734   23334600.0974
     -1488.9224
 -11096794.95849  -8626981.00847  20516658.5034   20516656.1244
      1882.1254
   3377004.62649   2630517.39446  20965771.1124   20965768.5304
     -1894.1094
  -9675171.28248  -7518387.76745  22185593.8314   22185590.5934
       902.6254
  -5486534.07349  -4266693.59247  20365514.1674   20365511.4874
       725.2194
  -6379945.49947  -4966560.40344  22893346.8554   22893346.0264
       916.5004
 -10762665.81648  -8371225.85645  22135449.5194   22135447.1204
      3177.9534
 04  9 13 22  9 14.9990000  0  7G 3G 8G13G19G27G10G28
    485799.99248    384885.74043  23338860.8154   23338861.8314
     -1497.1254
 -11124999.49649  -8648958.56347  20511291.5974   20511289.1634
      1878.2664
   3405468.65149   2652697.13047  20971187.5114   20971184.7614
     -1901.1414
  -9688641.09448  -7528883.72245  22183030.5814   22183027.1944
       893.2194
  -5497387.38549  -4275150.72147  20363449.0654   20363446.3394
       721.7974
  -6393621.71847  -4977217.19544  22890744.6284   22890743.4604
       906.7974
 -10810299.76648  -8408343.18645  22126385.2534   22126383.2924
      3173.0784
 04  9 13 22  9 29.9990000  0  7G 3G 8G13G19G27G10G28
    508316.82648    402431.27843  23343146.2304   23343146.7144
     -1505.2504
 -11153145.73349  -8670890.68847  20505935.4484   20505933.3944
      1874.4844
   3434038.22749   2674959.10547  20976624.2764   20976621.4954
     -1908.0944
  -9701970.51848  -7539270.29745  22180494.2224   22180490.4374
       883.9694
  -5508189.79849  -4283568.19747  20361393.6364   20361390.4484
       718.5314
  -6407151.95247  -4987760.25344  22888169.6674   22888169.1244
       897.1884
 -10857860.21148  -8445403.24545  22117334.5114   22117332.7064
      3168.2504
 04  9 13 22  9 44.9990000  0  7G 3G 8G13G19G27G10G28
    530954.95048    420071.34143  23347454.1904   23347454.6014
     -1513.2504
 -11181234.94849  -8692778.40047  20500590.5194   20500588.2144
      1870.6094
   3462711.84849   2697302.16146  20982080.3784   20982077.9094
     -1915.0784
  -9715160.81348  -7549548.44745  22177984.5734   22177980.9724
       874.6564
  -5518942.53449  -4291946.94847  20359347.3944   20359344.1904
       715.1094
  -6420537.48147  -4998190.56144  22885622.6594   22885622.2024
       887.4384
 -10905348.32748  -8482406.94645  22108297.9174   22108295.7144
      3163.4064
 04  9 13 22  9 59.9990000  0  7G 3G 8G13G19G27G10G28
    553713.94448    437805.54943  23351784.7224   23351785.5544
     -1521.0784
 -11209267.24649  -8714621.73447  20495255.9334   20495253.7144
      1867.1254
   3491489.27349   2719726.09947  20987556.9094   20987554.3554
     -1921.7974
  -9728211.99648  -7559718.20145  22175500.6444   22175497.4094
       865.6414
  -5529645.66949  -4300287.06347  20357310.4724   20357307.7804
       712.0634
  -6433778.33947  -5008508.12644  22883103.0584   22883102.2844
       878.0314
 -10952764.13548  -8519354.29945  22099274.6904   22099272.8434
      3158.8134
 04  9 13 22 10 14.9990000  0  7G 3G 8G13G19G27G10G28
    576594.83548    455634.77443  23356138.6984   23356139.5114
     -1529.4374
 -11237241.26149  -8736419.67047  20489932.7534   20489930.2804
      1862.9064
   3520371.44949   2742231.66047  20993052.9564   20993050.0854
     -1929.0314
  -9741122.68648  -7569778.48045  22173043.7764   22173040.2884
       855.8914
  -5540297.85149  -4308587.47647  20355283.6204   20355281.1404
       708.3444
  -6446873.37447  -5018712.04844  22880610.8784   22880610.1904
       868.0784
 -11000106.30748  -8556244.26545  22090265.6984   22090263.7804
      3153.5784
 04  9 13 22 10 29.9990000  0  7G 3G 8G13G19G27G10G28
    599595.71147    473557.47143  23360515.4404   23360516.7414
     -1537.5944
 -11265158.61249  -8758173.45447  20484620.2304   20484618.1634
      1859.2034
   3549356.61549   2764817.48147  20998568.9254   20998566.1754
     -1935.8914
  -9753894.36548  -7579730.44145  22170613.6444   22170609.9174
       846.6884
  -5550900.78149  -4316849.49147  20353265.9014   20353263.0814
       705.1094
  -6459824.19847  -5028803.61344  22878146.4094   22878145.9444
       858.5474
 -11047376.31949  -8593078.02845  22081270.5344   22081268.7064
      3148.8284
 04  9 13 22 10 44.9990000  0  7G 3G 8G13G19G27G10G28
    622717.77747    491574.62943  23364915.5584   23364916.2694
     -1545.4844
 -11293017.80049  -8779881.91647  20479318.6284   20479316.3394
      1855.4064
   3578446.05949   2787484.54646  21004104.1984   21004101.4094
     -1942.7504
  -9766525.53548  -7589572.91245  22168209.7924   22168206.5814
       837.4534
  -5561452.92949  -4325071.95447  20351257.8234   20351255.1834
       701.7814
  -6472629.37547  -5038781.69044  22875710.1754   22875709.1084
       848.8284
 -11094572.50949  -8629854.25545  22072289.3314   22072287.3154
      3143.9844
 04  9 13 22 10 59.9990000  0  7G 3G 8G13G19G27G10G28
    645958.87747    509684.52642  23369338.6444   23369339.2104
     -1553.2664
 -11320820.53349  -8801546.37948  20474028.3784   20474025.8474
      1851.6254
   3607637.87449   2810231.38846  21009659.1674   21009656.4804
     -1949.5164
  -9779017.89648  -7599307.22045  22165832.9254   22165829.2024
       828.1414
  -5571956.09649  -4333256.24847  20349258.9804   20349256.3274
       698.5634
  -6485290.73847  -5048647.69244  22873300.8234   22873299.7064
       839.3594
 -11141696.60948  -8666574.30645  22063322.3864   22063320.0194
      3139.1564
 04  9 13 22 11 14.9990000  0  7G 3G 8G13G19G27G10G28
    669320.52747    527888.33243  23373783.8154   23373784.6054
     -1561.4844
 -11348565.03349  -8823165.45748  20468748.4094   20468745.6164
      1847.7034
   3636933.51149   2833059.13646  21015233.8394   21015231.5584
     -1956.4694
  -9791369.75148  -7608932.04545  22163482.1514   22163478.7064
       818.6724
  -5582408.48549  -4341400.97747  20347270.0584   20347267.2574
       695.0944
  -6497806.63047  -5058400.34644  22870918.6904   22870917.8974
       829.5944
 -11188746.87848  -8703236.83445  22054368.6834   22054366.9404
      3134.1564
 04  9 13 22 11 29.9990000  0  7G 3G 8G13G19G27G10G28
    692801.45347    546185.10243  23378252.7534   23378253.1944
     -1569.3754
 -11376252.23249  -8844739.90247  20463479.8624   20463477.4054
      1843.8914
   3666331.78849   2855966.85346  21020828.0974   21020825.3744
     -1963.3594
  -9803581.88147  -7618447.99245  22161158.4334   22161154.9174
       809.3914
  -5592810.93949  -4349506.79047  20345290.6204   20345287.6944
       691.7664
  -6510178.03947  -5068040.43544  22868564.8474   22868563.8944
       819.8914
 -11235724.12949  -8739842.45845  22045429.4804   22045427.1714
      3129.3754
 04  9 13 22 11 44.9990000  0  7G 3G 8G13G19G27G10G28
    716403.17848    564575.99143  23382742.9874   23382744.5854
     -1577.4064
 -11403880.43249  -8866268.36747  20458222.2374   20458219.4484
      1839.9064
   3695834.19549   2878955.70846  21026442.5734   21026440.0694
     -1970.2664
  -9815652.56048  -7627853.73745  22158861.5504   22158857.6324
       800.0634
  -5603161.87149  -4357572.45247  20343320.9014   20343318.1244
       688.3594
  -6522403.27847  -5077566.60744  22866238.1364   22866238.0154
       810.1884
 -11282626.60549  -8776389.82345  22036503.9254   22036501.8554
      3124.3754
 04  9 13 22 11 59.9990000  0  7G 3G 8G13G19G27G10G28
    740123.96348    583059.69143  23387258.1364   23387257.9374
     -1585.4534
 -11431450.98949  -8887751.92647  20452975.9174   20452973.6284
      1836.0474
   3725439.12449   2902024.45546  21032076.2374   21032073.9054
     -1977.1254
  -9827583.07948  -7637150.24545  22156590.8234   22156586.9914
       790.5784
  -5613462.57349  -4365598.98347  20341360.8944   20341358.3944
       685.0784
  -6534483.85547  -5086980.05144  22863939.5114   22863938.1794
       800.4844
 -11329455.66049  -8812879.96345  22027592.4254   22027590.7104
      3119.4694
 04  9 13 22 12 14.9990000  0  7G 3G 8G13G19G27G10G28
    763964.35048    601636.56342  23391794.5894   23391794.6634
     -1593.2974
 -11458963.13849  -8909189.95747  20447740.2304   20447737.6244
      1832.1884
   3755147.23949   2925173.60747  21037729.5584   21037727.0264
     -1983.9534
  -9839372.68148  -7646336.95345  22154347.5584   22154344.1674
       781.2974
  -5623712.09049  -4373585.63347  20339410.2694   20339408.0464
       681.5784
  -6546418.92648  -5096280.10844  22861668.2924   22861667.1204
       790.8444
 -11376210.29849  -8849312.13145  22018695.3554   22018693.7144
      3114.4844
 04  9 13 22 12 29.9990000  0  7G 3G 8G13G19G27G10G28
    787922.75447    620305.37143  23396354.1514   23396353.8904
     -1601.3124
 -11486418.10649  -8930583.43847  20442515.6834   20442513.2694
      1828.3134
   3784956.91349   2948401.90247  21043402.0034   21043399.3974
     -1990.7974
  -9851022.55048  -7655414.77945  22152130.4564   22152127.0974
       771.9064
  -5633911.85249  -4381533.51147  20337469.2374   20337466.7724
       678.2194
  -6558209.84347  -5105467.87344  22859424.4404   22859423.5504
       781.0944
 -11422891.78049  -8885687.27845  22009812.4804   22009810.0694
      3109.5944
 04  9 13 22 12 44.9990000  0  7G 3G 8G13G19G27G10G28
    811999.60948    639066.49042  23400935.0504   23400935.0624
     -1609.0164
 -11513814.99749  -8951931.65148  20437302.5814   20437300.0734
      1824.5004
   3814868.84249   2971709.87147  21049094.1054   21049091.3584
     -1997.5004
  -9862531.86148  -7664383.08645  22149940.4724   22149937.0934
       762.5634
  -5644061.01349  -4389441.95447  20335538.0194   20335535.4294
       674.9224
  -6569855.98847  -5114542.81644  22857208.5114   22857207.5854
       771.6414
 -11469499.18949  -8922004.71245  22000943.1364   22000940.9874
      3104.7034
 04  9 13 22 12 59.9990000  0  7G 3G 8G13G19G27G10G28
    836195.70247    657920.54642  23405540.0194   23405540.0264
     -1617.1094
 -11541152.85149  -8973233.88947  20432100.1904   20432097.7374
      1820.5164
   3844883.85149   2995098.15647  21054805.9874   21054803.4764
     -2004.4844
  -9873899.65048  -7673241.11445  22147776.9014   22147773.6754
       753.0784
  -5654158.64249  -4397310.24147  20333616.6444   20333613.7224
       671.4224
  -6581356.46347  -5123504.24044  22855019.7924   22855019.2804
       761.8284
 -11516031.40948  -8958263.55245  21992088.6594   21992086.3474
      3099.6414
 04  9 13 22 13 14.9990000  0  7G 3G 8G13G19G27G10G28
    860509.49947    676866.32942  23410166.2304   23410166.7184
     -1624.9374
 -11568432.90849  -8994491.06847  20426909.0584   20426906.8784
      1816.6884
   3875000.48549   3018565.63847  21060536.8624   21060534.6474
     -2011.2504
  -9885126.89048  -7681989.62145  22145640.7454   22145637.4094
       743.7034
  -5664205.70849  -4405139.13347  20331704.2924   20331701.6754
       668.0944
  -6592712.31948  -5132352.98244  22852859.3084   22852858.5774
       752.1414
 -11562489.56549  -8994464.69745  21983248.1364   21983245.1874
      3094.7034
 04  9 13 22 13 29.9990000  0  7G 3G 8G13G19G27G10G28
    884941.86847    695904.46242  23414816.4564   23414816.4444
     -1632.6874
 -11595653.81249  -9015702.15947  20421729.0194   20421726.5734
      1812.8284
   3905219.70049   3042113.04546  21066287.3394   21066284.8824
     -2017.9374
  -9896212.50148  -7690627.76345  22143531.2534   22143527.8584
       734.3914
  -5674201.20049  -4412927.83547  20329802.6284   20329800.1364
       664.6884
  -6603922.60447  -5141088.29044  22850725.8004   22850724.7374
       742.6564
 -11608872.55349  -9030607.25245  21974421.7614   21974419.4804
      3089.7814
 04  9 13 22 13 44.9990000  0  7G 3G 8G13G19G27G10G28
    909491.41947    715033.89743  23419487.7144   23419488.1874
     -1640.6564
 -11622816.82949  -9036868.15347  20416560.1984   20416557.8474
      1808.7664
   3935540.08449   3065739.29247  21072057.3314   21072054.4444
     -2024.8124
  -9907157.48948  -7699156.33146  22141448.8154   22141444.7184
       724.8594
  -5684146.20649  -4420677.20347  20327910.4564   20327907.4724
       661.2194
  -6614988.50647  -5149711.08544  22848619.7304   22848618.8394
       732.7814
 -11655181.40249  -9066692.04445  21965609.2694   21965606.9644
      3084.6884
 04  9 13 22 13 59.9990000  0  7G 3G 8G13G19G27G10G28
    934159.39147    734255.63643  23424181.8864   23424182.1874
     -1648.5314
 -11649920.40649  -9057987.82047  20411402.3624   20411400.4404
      1804.8914
   3965963.01549   3089445.44646  21077846.4564   21077843.8864
     -2031.6564
  -9917960.24548  -7707574.07446  22139392.9014   22139389.1124
       715.4384
  -5694039.09449  -4428385.95647  20326027.5894   20326024.9954
       657.7344
  -6625908.54348  -5158220.22844  22846542.3944   22846541.2334
       723.0784
 -11701414.44149  -9102717.76345  21956811.1674   21956809.0774
      3079.6094
 04  9 13 22 14 14.9990000  0  7G 3G 8G13G19G27G10G28
    958944.51447    753568.67142  23428897.9724   23428898.2224
     -1656.0944
 -11676965.33249  -9079061.78347  20406256.2614   20406253.6014
      1801.2034
   3996487.22349   3113230.51746  21083655.3784   21083652.9804
     -2038.1414
  -9928621.82047  -7715881.80145  22137364.0584   22137360.4604
       706.2034
  -5703880.81949  -4436054.84547  20324154.7924   20324152.2494
       654.5784
  -6636683.69847  -5166616.46444  22844491.5194   22844491.1324
       713.6414
 -11747572.58249  -9138685.12045  21948027.8234   21948025.3314
      3074.8444
 04  9 13 22 14 29.9990000  0  7G 3G 8G13G19G27G10G28
    983845.30348    772971.80042  23433636.9484   23433636.9564
     -1663.9064
 -11703953.04349  -9100091.17347  20401120.1674   20401117.5344
      1797.2504
   4027111.22749   3137093.34746  21089482.6594   21089480.3584
     -2044.9374
  -9939143.39147  -7724080.43446  22135362.0424   22135358.2024
       696.6884
  -5713672.71748  -4443684.89847  20322291.1834   20322288.6364
       651.0944
  -6647315.34848  -5174900.89744  22842468.1204   22842468.2614
       703.9064
 -11793656.95849  -9174594.99245  21939258.0344   21939255.5034
      3069.8134
 04  9 13 22 14 44.9990000  0  7G 3G 8G13G19G27G10G28
   1008862.71647    792465.83542  23438397.5264   23438397.8704
     -1671.7194
 -11730882.13149  -9121074.87647  20395995.8944   20395993.3824
      1793.3284
   4057836.19649   3161034.85346  21095329.6444   21095326.7924
     -2051.6724
  -9949523.64148  -7732168.95846  22133386.7064   22133383.5934
       687.2974
  -5723413.30749  -4451274.96447  20320437.9954   20320435.3584
       647.6884
  -6657802.19548  -5183072.47844  22840472.7924   22840472.0384
       694.2504
 -11839666.10149  -9210446.25646  21930503.0194   21930500.2804
      3064.7504
 04  9 13 22 14 59.9990000  0  7G 3G 8G13G19G27G10G28
   1033995.92847    812050.09043  23443180.4014   23443180.8784
     -1679.3284
 -11757752.94049  -9142013.17147  20390882.6364   20390880.0264
      1789.5634
   4088661.50849   3185054.54346  21101195.4874   21101193.1054
     -2058.3754
  -9959763.00348  -7740147.68845  22131438.1754   22131434.1634
       678.0474
  -5733103.05449  -4458825.43947  20318593.8624   20318591.6634
       644.2814
  -6668144.86448  -5191131.70944  22838504.7924   22838503.6714
       684.7034
 -11885600.58749  -9246239.33745  21921761.4254   21921759.7694
      3059.8284
 04  9 13 22 15 14.9990000  0  7G 3G 8G13G19G27G10G28
   1059244.67147    831724.36142  23447984.7614   23447986.3904
     -1687.1564
 -11784565.28949  -9162905.90447  20385780.1904   20385777.7804
      1785.4694
   4119586.86149   3209152.19946  21107080.5974   21107077.8944
     -2065.1094
  -9969861.35348  -7748016.53846  22129516.5734   22129513.2184
       668.4694
  -5742741.99049  -4466336.29447  20316759.5654   20316757.2304
       640.8594
  -6678343.27648  -5199078.53444  22836564.3084   22836563.1444
       675.0314
 -11931460.19049  -9281974.06145  21913034.5424   21913032.5584
      3054.7504
 04  9 13 22 15 29.9990000  0  7G 3G 8G13G19G27G10G28
   1084610.57947    851489.94943  23452811.7694   23452813.0814
     -1694.8754
 -11811317.62149  -9183751.88548  20380689.7454   20380687.5074
      1781.5944
   4150613.84649   3233329.04046  21112984.5504   21112982.0934
     -2071.6724
  -9979816.79049  -7755774.03946  22127622.5584   22127619.0384
       659.0784
  -5752328.28349  -4473806.14747  20314935.3554   20314932.8394
       637.4694
  -6688395.71548  -5206911.63744  22834650.9404   22834650.3664
       665.4384
 -11977243.00549  -9317648.95745  21904322.8154   21904320.4764
      3049.7974
 04  9 13 22 15 44.9990000  0  7G 3G 8G13G19G27G10G28
   1110092.57648    871345.98342  23457661.3154   23457661.6324
     -1702.7504
 -11838010.67249  -9204551.66647  20375610.1204   20375607.8394
      1777.5164
   4181741.42049   3257584.26546  21118907.8944   21118905.2804
     -2078.5474
  -9989630.12948  -7763420.79345  22125754.6754   22125751.0344
       649.5474
  -5761862.59249  -4481235.47947  20313121.4564   20313118.5544
       633.9384
  -6698303.13548  -5214631.72344  22832766.6204   22832765.6514
       655.6094
 -12022949.82449  -9353264.63545  21895625.1054   21895622.7224
      3044.5784
 04  9 13 22 15 59.9990000  0  7G 3G 8G13G19G27G10G28
   1135688.87247    891291.08242  23462531.9404   23462533.2764
     -1710.2664
 -11864645.82449  -9225306.33148  20370541.6284   20370539.2764
      1773.7194
   4212968.03649   3281916.65947  21124850.3394   21124847.5894
     -2085.1254
  -9999302.79448  -7770957.94146  22123913.9174   22123910.1054
       640.0944
  -5771346.35549  -4488625.43547  20311316.6444   20311313.6514
       630.5004
  -6708066.99948  -5222239.95944  22830907.8234   22830907.3004
       646.0634
 -12068582.02849  -9388822.18745  21886941.2064   21886938.9914
      3039.6254
 04  9 13 22 16 14.9990000  0  7G 3G 8G13G19G27G10G28
   1161400.08447    911325.71042  23467424.4644   23467425.9604
     -1717.9064
 -11891222.02149  -9246015.05747  20365484.2534   20365482.0154
      1769.7344
   4244294.21249   3306326.63547  21130811.3394   21130808.9564
     -2091.7664
 -10008833.87448  -7778384.76546  22122100.0734   22122096.9334
       630.6884
  -5780778.66749  -4495975.28947  20309521.5814   20309518.8744
       627.0164
  -6717686.49948  -5229735.68044  22829076.9564   22829076.5074
       636.4534
 -12114138.64549  -9424320.83245  21878272.2844   21878270.1594
      3034.5784
 04  9 13 22 16 29.9990000  0  7G 3G 8G13G19G27G10G28
   1187225.77847    931449.58042  23472338.6444   23472340.8554
     -1725.5164
 -11917739.34349  -9266677.89947  20360438.4014   20360435.8514
      1765.9534
   4275719.80349   3330814.07846  21136791.4644   21136788.9724
     -2098.3444
 -10018223.40448  -7785701.29646  22120313.7144   22120310.6904
       621.3284
  -5790159.64349  -4503285.15647  20307736.3084   20307733.7924
       623.7034
  -6727161.86248  -5237119.11644  22827273.6204   22827273.4484
       626.9224
 -12159619.60549  -9459760.52245  21869617.7224   21869615.1554
      3029.5944
 04  9 13 22 16 44.9990000  0  7G 3G 8G13G19G27G10G28
   1213165.77247    951662.48043  23477276.0894   23477276.7534
     -1733.1564
 -11944197.76749  -9287294.85848  20355403.4874   20355400.8554
      1761.7664
   4307244.60649   3355378.82646  21142790.3704   21142788.0934
     -2105.0624
 -10027471.22849  -7792907.39046  22118553.5194   22118550.3554
       611.7194
  -5799489.10449  -4510554.87847  20305961.4724   20305958.6364
       620.1724
  -6736493.00448  -5244390.13744  22825499.2694   22825498.6714
       617.1884
 -12205024.78849  -9495141.16746  21860977.3084   21860974.6204
      3024.3754
 04  9 13 22 16 59.9990000  0  7G 3G 8G13G19G27G10G28
   1239221.84547    971965.84143  23482234.0894   23482234.8904
     -1740.9534
 -11970595.14949  -9307864.25447  20350380.4014   20350377.9294
      1757.8134
   4338870.44949   3380022.30947  21148808.3944   21148806.4254
     -2111.7664
 -10036575.30848  -7800001.48846  22116821.3154   22116817.7614
       602.2194
  -5808764.97549  -4517782.83247  20304196.1054   20304193.5114
       616.6094
  -6745678.00648  -5251547.29544  22823750.5654   22823750.2964
       607.4694
 -12250352.02649  -9530461.06345  21852351.8314   21852349.1634
      3019.2194
 04  9 13 22 17 14.9990000  0  7G 3G 8G13G19G27G10G28
   1265392.69847    992358.64943  23487214.4484   23487215.1904
     -1748.5164
 -11996932.31849  -9328386.72148  20345368.3784   20345366.0194
      1753.7974
   4370596.09549   3404743.55746  21154846.0734   21154843.5154
     -2118.3284
 -10045536.52748  -7806984.26345  22115116.4254   22115113.2224
       592.5634
  -5817988.09149  -4524969.67347  20302440.9644   20302438.4054
       613.0944
  -6754717.81148  -5258591.32944  22822030.4254   22822029.8314
       597.8594
 -12295602.17449  -9565720.90145  21843740.9094   21843738.3004
      3014.1414
 04  9 13 22 17 29.9990000  0  7G 3G 8G13G19G27G10G28
   1291678.15247   1012840.76143  23492216.5814   23492217.1714
     -1755.9534
 -12023209.20649  -9348862.21748  20340367.7304   20340365.8664
      1749.7974
   4402421.55449   3429542.58246  21160902.1054   21160899.7224
     -2125.0314
 -10054354.79949  -7813855.64946  22113438.0894   22113434.9444
       583.1094
  -5827158.48649  -4532115.44047  20300695.6204   20300693.1014
       609.6254
  -6763612.54248  -5265522.29444  22820338.0344   22820336.8394
       588.2194
 -12340775.10949  -9600920.57046  21835144.5974   21835141.7064
      3009.0004
 04  9 13 22 17 44.9990000  0  7G 3G 8G13G19G27G10G28
   1318077.12947   1033411.33242  23497240.2144   23497241.1474
     -1763.5624
 -12049426.49449  -9369291.27048  20335378.7064   20335376.2614
      1745.9224
   4434345.77849   3454418.56946  21166977.2224   21166974.7374
     -2131.4844
 -10063030.83549  -7820616.19946  22111787.1364   22111783.6364
       573.7664
  -5836276.64449  -4539220.51347  20298961.0654   20298957.8154
       606.3134
  -6772362.93448  -5272340.80644  22818672.8234   22818671.9804
       578.6414
 -12385871.33949  -9636060.47046  21826563.1284   21826560.0734
      3003.9384
 04  9 13 22 17 59.9990000  0  7G 3G 8G13G19G27G10G28
   1344588.22947   1054069.25742  23502284.3784   23502285.9874
     -1771.2504
 -12075585.19149  -9389674.67248  20330401.1594   20330398.5464
      1741.8754
   4466367.57549   3479370.58546  21173070.5654   21173068.4294
     -2138.1414
 -10071565.61848  -7827266.68946  22110162.9564   22110159.9994
       564.1254
  -5845343.79549  -4546285.83347  20297235.3624   20297232.4404
       602.6884
  -6780970.09148  -5279047.69044  22817035.2694   22817033.8314
       568.9064
 -12430892.02049  -9671141.49045  21817995.8624   21817992.9294
      2998.6564
 04  9 13 22 18 14.9990000  0  7G 3G 8G13G19G27G10G28
   1371212.00147   1074815.01042  23507351.0034   23507352.1874
     -1778.6724
 -12101684.65149  -9410011.91747  20325434.5654   20325432.0154
      1737.9224
   4498487.36549   3504398.96646  21179182.7764   21179180.7064
     -2144.5944
 -10079958.41847  -7833806.53646  22108565.6284   22108562.0384
       554.8594
  -5854359.11148  -4553310.76247  20295519.7694   20295517.2614
       599.3284
  -6789433.41048  -5285642.49944  22815424.6054   22815423.9094
       559.3914
 -12475836.39949  -9706163.07546  21809443.0584   21809440.5344
      2993.7194
 04  9 13 22 18 29.9990000  0  7G 3G 8G13G19G27G10G28
   1397949.85747   1095649.63042  23512439.2144   23512439.8474
     -1786.2974
 -12127723.21249  -9430301.70247  20320479.8864   20320477.4564
      1733.8594
   4530706.51649   3529504.76146  21185313.6984   21185311.7694
     -2151.2194
 -10088207.57848  -7840234.45746  22106996.1674   22106992.7104
       545.2814
  -5863320.91948  -4560293.99447  20293814.5264   20293812.0074
       595.6414
  -6797751.32748  -5292124.01444  22813841.6674   22813840.8944
       549.7034
 -12520702.65849  -9741123.76845  21800905.6364   21800902.9094
      2988.4534
 04  9 13 22 18 44.9990000  0  7G 3G 8G13G19G27G10G28
   1424800.56747   1116572.19542  23517548.9254   23517549.8904
     -1793.7974
 -12153701.50549  -9450544.52847  20315536.3234   20315533.9374
      1729.8914
   4563023.98849   3554687.17146  21191463.7374   21191461.5074
     -2157.7504
 -10096313.95348  -7846551.11546  22105453.5034   22105450.0384
       535.5634
  -5872230.01649  -4567236.16047  20292119.3394   20292116.7494
       592.1414
  -6805924.89448  -5298493.03144  22812286.4564   22812285.2494
       540.0634
 -12565491.65049  -9776024.26045  21792382.5894   21792379.6754
      2983.3134
 04  9 13 22 18 59.9990000  0  7G 3G 8G13G19G27G10G28
   1451763.03647   1137581.81742  23522679.6984   23522680.8704
     -1801.1724
 -12179620.28949  -9470740.98848  20310604.0734   20310601.5424
      1725.9384
   4595438.77649   3579945.41946  21197632.2534   21197630.0224
     -2164.1724
 -10104278.33649  -7852757.12246  22103938.1514   22103934.5154
       526.3134
  -5881087.19149  -4574137.85947  20290433.9014   20290431.1444
       588.8444
  -6813954.81448  -5304750.13044  22810758.1444   22810757.9644
       530.6414
 -12610203.97449  -9810865.01145  21783873.7224   21783871.3234
      2978.3134
 04  9 13 22 19 14.9990000  0  7G 3G 8G13G19G27G10G28
   1478837.21447   1158678.51643  23527831.6834   23527832.4404
     -1808.7194
 -12205479.59149  -9490891.09248  20305683.2304   20305680.6164
      1721.8914
   4627950.97949   3605279.56346  21203819.4644   21203816.8234
     -2170.7504
 -10112100.39449  -7858852.24146  22102449.2534   22102445.6054
       516.6564
  -5889892.05049  -4580998.79547  20288758.0974   20288755.5304
       585.1884
  -6821841.09148  -5310895.28244  22809257.3314   22809256.7414
       520.9384
 -12654839.37549  -9845645.83346  21775380.2924   21775377.3904
      2973.0634
 04  9 13 22 19 29.9990000  0  7G 3G 8G13G19G27G10G28
   1506024.31747   1179863.21442  23533005.1444   23533006.3554
     -1816.2814
 -12231277.43449  -9510993.31447  20300774.0504   20300771.5384
      1717.8134
   4660562.09549   3630690.78846  21210024.4014   21210022.3314
     -2177.3284
 -10119778.48449  -7864835.16446  22100987.9954   22100984.8124
       507.0944
  -5898643.07249  -4587817.78547  20287092.9404   20287090.3004
       581.6254
  -6829582.15548  -5316927.30344  22807784.0504   22807783.8084
       511.2194
 -12699396.14649  -9880365.37445  21766901.4564   21766898.6904
      2967.7814
 04  9 13 22 19 44.9990000  0  7G 3G 8G13G19G27G10G28
   1533322.76747   1201134.67142  23538200.0034   23538200.6714
     -1823.6254
 -12257015.11649  -9531048.64848  20295876.2454   20295874.2334
      1713.8284
   4693270.34749   3656177.70346  21216249.2614   21216246.9374
     -2183.7504
 -10127314.05248  -7870707.05346  22099554.6054   22099550.8084
       497.6254
  -5907341.56049  -4594595.82947  20285437.5654   20285435.1984
       578.1884
  -6837179.39647  -5322847.25344  22806338.8084   22806338.5694
       501.6724
 -12743875.55449  -9915024.62546  21758437.1364   21758434.8314
      2962.7194
 04  9 13 22 19 59.9990000  0  7G 3G 8G13G19G27G10G28
   1560733.16147   1222493.34642  23543415.8474   23543417.4254
     -1831.0944
 -12282691.80849  -9551056.45948  20290989.9094   20290987.6674
      1709.7194
   4726076.45249   3681740.86646  21222491.6364   21222489.8824
     -2190.3124
 -10134706.04848  -7876467.04946  22098147.6204   22098144.5344
       488.0474
  -5915986.36749  -4601332.04947  20283792.3864   20283789.8474
       574.5164
  -6844632.00748  -5328654.49044  22804920.5504   22804920.1634
       492.0784
 -12788276.54749  -9949622.78746  21749987.8944   21749985.3314
      2957.4224
 04  9 13 22 20 14.9990000  0  7G 3G 8G13G19G27G10G28
   1588254.60947   1243938.56142  23548653.3314   23548654.1404
     -1838.5164
 -12308308.08349  -9571017.19348  20286115.4404   20286113.1904
      1705.6254
   4758979.49749   3707379.57046  21228753.3314   21228750.4524
     -2196.8594
 -10141955.05649  -7882115.64145  22096768.4724   22096764.8784
       478.4384
  -5924578.26849  -4608027.04247  20282157.3314   20282154.7494
       570.9694
  -6851940.60148  -5334349.51444  22803529.9094   22803529.3864
       482.4534
 -12832599.63549  -9984160.24446  21741553.7224   21741551.2964
      2952.2034
 04  9 13 22 20 29.9990000  0  7G 3G 8G13G19G27G10G28
   1615886.40447   1265469.75542  23553910.8624   23553912.3084
     -1845.8124
 -12333864.07549  -9590930.95648  20281252.3624   20281249.8784
      1701.6724
   4791979.15949   3733093.56446  21235032.4564   21235030.7414
     -2203.2344
 -10149061.29148  -7887652.97145  22095415.9484   22095412.5074
       468.9844
  -5933117.41849  -4614680.94047  20280532.7224   20280530.2064
       567.5314
  -6859105.64948  -5339932.68444  22802166.3154   22802165.6904
       472.7974
 -12876845.00849 -10018637.13846  21733133.7144   21733131.6324
      2947.0474
 04  9 13 22 20 44.9990000  0  7G 3G 8G13G19G27G10G28
   1643629.29547   1287087.50542  23559190.2454   23559191.9254
     -1853.2034
 -12359359.01449  -9610797.14248  20276400.5814   20276398.2614
      1697.6414
   4825075.95649   3758883.23646  21241331.1364   21241328.5734
     -2209.5624
 -10156024.04948  -7893078.49045  22094091.0584   22094087.1284
       459.5004
  -5941602.80649  -4621292.93447  20278917.7694   20278915.3154
       564.0004
  -6866126.39448  -5345403.41744  22800830.3394   22800829.6834
       463.3594
 -12921011.88949 -10053052.87346  21724729.3234   21724726.8514
      2941.9064
 04  9 13 22 20 59.9990000  0  7G 3G 8G13G19G27G10G28
   1671482.89347   1308791.55342  23564491.4804   23564492.1794
     -1860.5164
 -12384792.76049  -9630615.64648  20271560.9334   20271558.5694
      1693.5784
   4858269.62849   3784748.39146  21247647.4404   21247645.1364
     -2216.1254
 -10162843.28049  -7898392.19746  22092793.5814   22092789.8124
       449.8754
  -5950034.62449  -4627863.18947  20277313.5894   20277311.1874
       560.3594
  -6873002.95048  -5350761.78844  22799522.1514   22799521.5154
       453.6094
 -12965100.18649 -10087407.37346  21716339.4094   21716336.7184
      2936.6884
 04  9 13 22 21 14.9990000  0  7G 3G 8G13G19G27G10G28
   1699447.38247   1330582.03842  23569813.0264   23569813.9174
     -1867.9694
 -12410164.77649  -9650386.04748  20266732.8084   20266730.8584
      1689.4844
   4891560.52549   3810689.31346  21253982.6904   21253980.3274
     -2222.5784
 -10169518.39948  -7903593.58546  22091523.1594   22091519.3664
       440.2344
  -5958412.18249  -4634391.16747  20275719.1674   20275716.4564
       556.7504
  -6879734.87448  -5356007.45944  22798240.4014   22798240.4804
       444.0474
 -13009109.37449 -10121700.22946  21707964.6754   21707962.2694
      2931.3594
 04  9 13 22 21 29.9990000  0  7G 3G 8G13G19G27G10G28
   1727521.25747   1352457.72042  23575154.9334   23575156.4444
     -1875.2344
 -12435476.09949  -9670109.15148  20261916.5114   20261913.8514
      1685.3914
   4924947.20849   3836704.87546  21260335.8234   21260333.4604
     -2229.0314
 -10176050.61048  -7908683.62745  22090280.3084   22090276.9604
       430.7034
  -5966736.72149  -4640877.82847  20274135.0264   20274132.5654
       553.1564
  -6886323.36348  -5361141.36044  22796986.8154   22796986.0934
       434.4224
 -13053040.44349 -10155932.21746  21699604.8784   21699602.2964
      2926.1414
 04  9 13 22 21 44.9990000  0  7G 3G 8G13G19G27G10G28
   1755704.13647   1374418.34942  23580518.2224   23580519.0854
     -1882.3754
 -12460726.88849  -9689785.09647  20257111.2844   20257108.4334
      1681.4534
   4958429.31249   3862794.80246  21266707.1754   21266705.1674
     -2235.2664
 -10182440.05849  -7913662.41845  22089063.9404   22089060.6084
       421.2814
  -5975008.20149  -4647323.14547  20272561.2224   20272558.4484
       549.7504
  -6892768.73648  -5366163.77144  22795760.5814   22795759.5624
       424.9534
 -13096893.38149 -10190103.31246  21691259.6124   21691257.3194
      2921.0784
 04  9 13 22 21 59.9990000  0  7G 3G 8G13G19G27G10G28
   1783993.83747   1396462.15942  23585901.3314   23585902.8394
     -1889.7034
 -12485919.14649  -9709415.42047  20252317.3784   20252314.9404
      1677.4064
   4992004.81749   3888957.48946  21273096.3944   21273094.5264
     -2241.6094
 -10188688.52248  -7918531.36246  22087875.3784   22087871.4874
       411.7664
  -5983228.42849  -4653728.52447  20270997.1364   20270994.0224
       546.1414
  -6899072.99348  -5371076.17344  22794560.7064   22794560.2304
       415.2974
 -13140670.00149 -10224214.95446  21682929.5504   21682926.9724
      2915.7504
 04  9 13 22 22 14.9990000  0  7G 3G 8G13G19G27G10G28
   1812392.30847   1418590.78142  23591305.5814   23591307.1404
     -1896.7504
 -12511050.47049  -9728998.27448  20247535.0194   20247532.4564
      1673.4694
   5025675.86049   3915194.62546  21279503.4804   21279501.5194
     -2247.8444
 -10194793.71749  -7923288.66346  22086713.3554   22086709.9954
       402.3444
  -5991395.01049  -4660092.10547  20269442.9644   20269440.4134
       542.7664
  -6905233.92248  -5375876.91144  22793388.7844   22793388.0264
       406.0944
 -13184367.98849 -10258265.30946  21674614.5034   21674611.6404
      2910.7194
 04  9 13 22 22 29.9990000  0  7G 3G 8G13G19G27G10G28
   1840900.47847   1440804.89242  23596730.5114   23596732.0654
     -1904.0624
 -12536119.47749  -9748532.56348  20242764.4644   20242761.8944
      1669.2034
   5059443.20849   3941506.80946  21285929.8944   21285927.6634
     -2254.2814
 -10200754.56148  -7927933.47746  22085579.4254   22085576.1244
       392.5314
  -5999506.93649  -4666413.10447  20267899.3554   20267896.5464
       538.9844
  -6911250.53548  -5380565.22944  22792243.5734   22792242.7574
       396.4694
 -13227986.04549 -10292253.39146  21666314.1364   21666311.1904
      2905.2664
 04  9 13 22 22 44.9990000  0  7G 3G 8G13G19G27G10G28
   1869515.17447   1463101.96242  23602176.1674   23602177.2654
     -1911.0474
 -12561128.94849  -9768020.45547  20238005.3554   20238002.8154
      1665.3914
   5093303.83149   3967891.67646  21292372.9014   21292370.8974
     -2260.3754
 -10206573.89149  -7932468.02646  22084471.8944   22084468.3194
       383.2814
  -6007566.90149  -4672693.59447  20266365.2374   20266362.6514
       535.7194
  -6917125.58748  -5385143.19444  22791125.4174   22791124.7334
       387.0474
 -13271527.01749 -10326181.39646  21658028.0734   21658025.7574
      2900.2194
 04  9 13 22 22 59.9990000  0  7G 3G 8G13G19G27G10G28
   1898238.53347   1485483.79042  23607641.9254   23607643.3514
     -1918.6724
 -12586076.39349  -9787460.03047  20233257.9334   20233255.8974
      1661.0474
   5127260.03349   3994351.00846  21298834.6834   21298833.0194
     -2266.9374
 -10212249.10349  -7936890.28046  22083392.1754   22083388.5584
       373.4844
  -6015572.40949  -4678931.67147  20264842.2224   20264839.6984
       531.9224
  -6922856.84548  -5389609.12944  22790034.4484   22790034.2844
       377.2344
 -13314988.33749 -10360047.35946  21649758.0584   21649755.5424
      2894.7034
 04  9 13 22 23 14.9990000  0  7G 3G 8G13G19G27G10G28
   1927070.32247   1507950.02842  23613128.6834   23613130.1984
     -1925.6564
 -12610961.57249  -9806851.08447  20228522.3704   20228519.8704
      1657.0164
   5161311.54849   4020884.61646  21305314.5894   21305312.6594
     -2273.1874
 -10217780.28049  -7941200.30246  22082338.7144   22082335.7264
       364.0164
  -6023523.36949  -4685127.24347  20263328.9804   20263326.4054
       528.3134
  -6928444.31148  -5393963.03544  22788971.8864   22788971.5544
       367.7664
 -13358369.92149 -10393851.18246  21641502.3474   21641500.1164
      2889.5164
 04  9 13 22 23 29.9990000  0  7G 3G 8G13G19G27G10G28
   1956009.04947   1530499.63742  23618634.7534   23618636.1634
     -1932.9534
 -12635786.06349  -9826194.83347  20223798.4254   20223795.9954
      1652.9224
   5195456.88848   4047491.33146  21311812.8554   21311810.3784
     -2279.5004
 -10223168.62248  -7945399.02345  22081314.1674   22081310.7924
       354.4224
  -6031420.87349  -4691281.14847  20261826.3084   20261823.3234
       524.6724
  -6933889.33047  -5398205.91344  22787935.6754   22787934.6084
       358.1564
 -13401672.83249 -10427593.69046  21633262.1834   21633259.8394
      2884.2664
 04  9 13 22 23 44.9990000  0  7G 3G 8G13G19G27G10G28
   1985055.26847   1553132.97842  23624161.5194   23624164.0194
     -1939.9694
 -12660548.62249  -9845490.33747  20219086.1284   20219084.0194
      1648.7814
   5229696.85348   4074171.79046  21318327.9334   21318325.8514
     -2285.7504
 -10228413.12948  -7949485.64845  22080315.6904   22080312.1284
       344.8914
  -6039264.04149  -4697392.71547  20260333.8234   20260331.0894
       521.0634
  -6939191.20548  -5402337.26343  22786927.2224   22786926.3904
       348.7504
 -13444896.10249 -10461274.13546  21625037.1674   21625034.7304
      2878.9384
 04  9 13 22 23 59.9990000  0  7G 3G 8G13G19G27G10G28
   2014208.01147   1575849.31442  23629709.6054   23629712.4404
     -1947.2034
 -12685249.91349  -9864738.10347  20214385.6444   20214383.4724
      1644.5474
   5264030.47649   4100925.21646  21324861.5584   21324859.1904
     -2292.1254
 -10233514.56548  -7953460.80545  22079345.2694   22079341.5934
       335.1724
  -6047053.58149  -4703462.51547  20258851.5654   20258848.5934
       517.3134
  -6944350.70948  -5406357.68744  22785944.8004   22785944.2654
       339.2034
 -13488040.48549 -10494893.12446  21616827.3704   21616824.6444
      2873.4534
 04  9 13 22 24 14.9990000  0  7G 3G 8G13G19G27G10G28
   2043468.01747   1598649.28742  23635278.0424   23635279.6674
     -1954.1724
 -12709888.91849  -9883937.31948  20209697.0114   20209694.4404
      1640.5164
   5298458.50249   4127752.20746  21331412.9804   21331410.5734
     -2298.3444
 -10238471.91549  -7957323.68946  22078402.1054   22078398.5424
       325.7504
  -6054788.34949  -4709489.60547  20257379.2614   20257377.2264
       513.8754
  -6949366.96848  -5410266.47044  22784990.4254   22784990.3234
       329.5474
 -13531104.79849 -10528449.71146  21608632.2374   21608629.5114
      2868.2504
 04  9 13 22 24 29.9990000  0  6G 8G13G19G27G10G28
 -12734466.03449  -9903088.32448  20205020.3474   20205018.1794
      1636.4064
   5332980.13748   4154652.14846  21337982.4174   21337980.1404
     -2304.5314
 -10243285.72849  -7961074.72246  22077485.6904   22077482.3314
       316.1254
  -6062468.78749  -4715474.38047  20255918.0114   20255915.1904
       510.2344
  -6954240.53948  -5414064.09844  22784063.0264   22784062.0734
       320.1094
 -13574089.46849 -10561944.24346  21600452.3944   21600450.0544
      2862.9224
 04  9 13 22 24 44.9990000  0  6G 8G13G19G27G10G28
 -12758982.15949  -9922191.79547  20200355.0734   20200352.8314
      1632.2974
   5367594.47848   4181624.32746  21344569.0194   21344567.0034
     -2310.7974
 -10247956.74049  -7964714.47646  22076597.0194   22076593.3904
       306.4844
  -6070095.52849  -4721417.29247  20254466.9484   20254464.3434
       506.5164
  -6958972.30048  -5417751.17544  22783162.4644   22783161.8394
       310.6414
 -13616995.25149 -10595377.30946  21592287.7374   21592285.4564
      2857.6094
 04  9 13 22 24 59.9980000  0  6G 8G13G19G27G10G28
 -12783431.64049  -9941243.34047  20195702.4434   20195700.7364
      1628.0164
   5402302.79148   4208669.72846  21351173.9044   21351172.0224
     -2317.2034
 -10252480.87449  -7968239.78045  22075736.2254   22075732.1744
       296.8594
  -6077664.45849  -4727315.16647  20253026.0924   20253023.7834
       502.7664
  -6963558.22648  -5421324.63744  22782289.8734   22782289.7254
       300.9064
 -13659815.40749 -10628743.65746  21584139.1784   21584136.8304
      2852.1414
 04  9 13 22 25 14.9980000  0  6G 8G13G19G27G10G28
 -12807820.32949  -9960247.51448  20191061.2954   20191059.0374
      1623.7664
   5437106.79848   4235789.68546  21357797.1004   21357795.0764
     -2323.3444
 -10256861.26848  -7971653.08646  22074902.8344   22074898.8504
       287.2034
  -6085178.98049  -4733170.64947  20251596.3034   20251593.7444
       499.1254
  -6968001.73448  -5424787.15744  22781444.6704   22781443.8424
       291.4224
 -13702558.09249 -10662049.62746  21576005.7094   21576002.8974
      2846.7504
 04  9 13 22 25 29.9980000  0  6G 8G13G19G27G10G28
 -12832145.36149  -9979202.08748  20186432.4284   20186430.4364
      1619.5164
   5472005.04848   4262983.08046  21364438.2174   21364435.5644
     -2329.7194
 -10261096.48248  -7974953.26145  22074096.6314   22074092.9204
       277.5004
  -6092637.36349  -4738982.39347  20250176.9514   20250174.6314
       495.3134
  -6972301.48047  -5428137.60544  22780626.1784   22780626.1784
       281.8754
 -13745219.30749 -10695292.12546  21567887.4904   21567884.9754
      2841.3444
 04  9 13 22 25 44.9980000  0  6G 8G13G19G27G10G28
 -12856407.16849  -9998107.38647  20181815.7564   20181813.5104
      1615.3444
   5506997.08548   4290249.56846  21371097.0844   21371094.6664
     -2335.8754
 -10265187.05348  -7978140.73145  22073318.0454   22073314.4364
       267.7974
  -6100039.99849  -4744750.68547  20248768.7254   20248765.7364
       491.6254
  -6976457.86048  -5431376.38644  22779835.7724   22779834.8614
       272.3914
 -13787799.30849 -10728471.32546  21559784.5764   21559782.0574
      2836.0004
 04  9 13 22 25 59.9980000  0  6G 8G13G19G27G10G28
 -12880605.81049 -10016963.46647  20177210.5684   20177208.7054
      1611.1414
   5542082.25849   4317588.63546  21377773.3504   21377771.1074
     -2342.1414
 -10269133.22448  -7981215.68146  22072567.3734   22072563.7914
       258.2034
  -6107387.04349  -4750475.65747  20247370.3814   20247367.6504
       487.9384
  -6980471.39948  -5434503.80844  22779071.5844   22779071.3854
       262.8444
 -13830298.29049 -10761587.39446  21551697.7324   21551695.0764
      2830.5474
 04  9 13 22 26 14.9980000  0  6G 8G13G19G27G10G28
 -12904741.41749 -10035770.43647  20172618.0374   20172615.4984
      1606.8134
   5577260.25149   4345000.00946  21384467.3814   21384465.3974
     -2348.3284
 -10272935.17649  -7984178.25346  22071844.0924   22071840.2484
       248.5314
  -6114678.71149  -4756157.48847  20245982.9434   20245980.4044
       484.1414
  -6984342.34948  -5437520.16344  22778334.9514   22778334.1664
       253.2344
 -13872716.47749 -10794640.51446  21543625.5294   21543623.3384
      2825.0314
 04  9 13 22 26 29.9980000  0  6G 8G13G19G27G10G28
 -12928813.59849 -10054527.97747  20168036.9364   20168034.9674
      1602.8134
   5612531.42749   4372484.00746  21391179.4044   21391177.3344
     -2354.4374
 -10276592.34448  -7987028.01146  22071147.7014   22071144.5024
       239.1094
  -6121914.31049  -4761795.63447  20244605.9044   20244603.3854
       480.6094
  -6988070.28548  -5440425.06744  22777625.5294   22777625.8544
       243.8594
 -13915053.24149 -10827630.18046  21535569.0844   21535566.5964
      2819.8284
 04  9 13 22 26 44.9980000  0  6G 8G13G19G27G10G28
 -12952824.01049 -10073237.39148  20163468.3264   20163466.4554
      1598.5944
   5647893.64549   4400038.95046  21397908.6394   21397906.5184
     -2360.5624
 -10280106.45849  -7989766.29546  22070479.0924   22070476.0644
       229.4694
  -6129095.55049  -4767391.41247  20243239.5764   20243236.9864
       476.9064
  -6991656.99748  -5443219.92544  22776943.2874   22776942.5454
       234.3444
 -13957310.16749 -10860557.65246  21527527.8974   21527525.3034
      2814.4224
 04  9 13 22 26 59.9980000  0  6G 8G13G19G27G10G28
 -12976771.44149 -10091897.72748  20158910.7954   20158909.1314
      1594.4064
   5683347.82048   4427665.52946  21404655.2404   21404653.1394
     -2366.7034
 -10283476.45749  -7992392.28446  22069837.8504   22069834.6864
       219.8594
  -6136221.34049  -4772943.99047  20241883.2404   20241881.0254
       473.1724
  -6995101.59248  -5445904.05744  22776287.4674   22776287.5684
       224.9384
 -13999486.10849 -10893422.00546  21519501.9824   21519499.6784
      2809.0634
 04  9 13 22 27 14.9980000  0  6G 8G13G19G27G10G28
 -13000655.11349 -10110508.38248  20154366.1394   20154363.9044
      1590.1884
   5718894.34048   4455364.07946  21411419.3974   21411417.6584
     -2372.8444
 -10286701.93149  -7994905.65546  22069224.2484   22069220.4474
       210.3284
  -6143291.02449  -4778452.84247  20240538.0764   20240535.7174
       469.5164
  -6998403.64948  -5448477.09744  22775659.1474   22775658.7954
       215.4064
 -14041580.46149 -10926222.77746  21511491.3894   21511489.0724
      2803.6254
 04  9 13 22 27 29.9980000  0  6G 8G13G19G27G10G28
 -13024477.11049 -10129070.99248  20149833.0064   20149830.7294
      1586.1094
   5754530.80648   4483132.70446  21418200.9824   21418198.8224
     -2378.8124
 -10289784.82649  -7997307.93146  22068637.3424   22068633.5684
       200.8284
  -6150306.69749  -4783919.61847  20239203.1934   20239200.1784
       465.8444
  -7001565.46948  -5450940.88644  22775057.4984   22775057.1864
       206.0474
 -14083595.23049 -10958961.54946  21503496.7254   21503494.1314
      2798.2814
 04  9 13 22 27 44.9980000  0  6G 8G13G19G27G10G28
 -13048236.20549 -10147584.57248  20145311.9594   20145309.3264
      1581.8134
   5790258.40048   4510972.35546  21424999.7174   21424997.6624
     -2384.8444
 -10292723.79849  -7999598.03946  22068078.3814   22068074.5684
       191.1254
  -6157266.73349  -4789343.02847  20237878.3504   20237875.9394
       462.1094
  -7004585.67348  -5453294.32944  22774482.8504   22774482.7914
       196.5474
 -14125528.89549 -10991637.12046  21495516.7564   21495514.1894
      2792.8134
 04  9 13 22 27 59.9980000  0  6G 8G13G19G27G10G28
 -13071931.20749 -10166048.22048  20140802.8734   20140800.2254
      1577.4844
   5826077.85448   4538883.57546  21431815.6704   21431813.5494
     -2391.0164
 -10295517.88149  -8001775.26446  22067546.4204   22067542.8774
       181.4384
  -6164170.20849  -4794722.38147  20236565.3344   20236562.6154
       458.3444
  -7007463.58548  -5455536.86444  22773935.2954   22773935.2444
       187.0784
 -14167380.49549 -11024248.75046  21487552.9284   21487550.4364
      2787.3914
 04  9 13 22 28 14.9980000  0  6G 8G13G19G27G10G28
 -13095562.62449 -10184462.30748  20136305.7094   20136303.2754
      1573.3914
   5861988.32648   4566865.70946  21438649.8184   21438647.5534
     -2397.0164
 -10298167.76848  -8003840.11146  22067042.3894   22067038.5964
       171.8914
  -6171017.71949  -4800058.12047  20235261.6784   20235259.6354
       454.6564
  -7010199.78148  -5457669.00744  22773414.5614   22773414.4204
       177.8134
 -14209150.55249 -11056796.82546  21479604.1624   21479601.5924
      2781.9844
 04  9 13 22 28 29.9980000  0  6G 8G13G19G27G10G28
 -13119131.47549 -10202827.64447  20131820.7254   20131818.7174
      1569.1254
   5897988.47949   4594917.74146  21445500.2094   21445497.7724
     -2403.0164
 -10300674.62849  -8005793.53546  22066565.4204   22066561.9394
       162.3284
  -6177810.29549  -4805351.03947  20233969.3114   20233966.5144
       450.9694
  -7012795.60248  -5459691.74744  22772920.3734   22772919.8734
       168.3444
 -14250840.26849 -11089282.30946  21471670.9284   21471668.0144
      2776.5314
 04  9 13 22 28 44.9980000  0  6G 8G13G19G27G10G28
 -13142636.53249 -10221143.28348  20127348.1784   20127345.4634
      1564.8594
   5934079.19348   4623040.33245  21452368.2794   21452366.0574
     -2409.1724
 -10303037.18349  -8007634.49146  22066115.8184   22066112.0224
       152.6884
  -6184546.66149  -4810600.16947  20232687.4984   20232685.0184
       447.2194
  -7015249.84348  -5461604.15244  22772453.5534   22772452.7294
       158.8914
 -14292448.24049 -11121704.09546  21463753.2324   21463750.7324
      2771.1564
 04  9 13 22 28 59.9980000  0  6G 8G13G19G27G10G28
 -13166078.43449 -10239409.71047  20122887.1154   20122884.5724
      1560.6564
   5970259.38248   4651232.64946  21459253.2954   21459250.9434
     -2414.9844
 -10305256.23249  -8009363.64746  22065693.6934   22065690.4324
       143.1724
  -6191227.47849  -4815806.02147  20231416.3424   20231413.8144
       443.5314
  -7017563.44248  -5463406.97644  22772013.3424   22772013.3344
       149.5784
 -14333975.08449 -11154062.65746  21455850.7484   21455848.3114
      2765.7664
 04  9 13 22 29 14.9980000  0  6G 8G13G19G27G10G28
 -13189457.12149 -10257626.86347  20118438.3264   20118435.7484
      1556.3914
   6006529.34548   4679494.90746  21466154.8814   21466153.3574
     -2421.0784
 -10307331.58649  -8010980.82146  22065298.7404   22065295.2364
       133.5314
  -6197852.52649  -4820968.40747  20230155.7094   20230152.9594
       439.7344
  -7019736.38348  -5465100.22944  22771599.9434   22771599.7724
       140.1414
 -14375420.53649 -11186357.81146  21447963.9434   21447961.2484
      2760.2664
 04  9 13 22 29 29.9980000  0  6G 8G13G19G27G10G28
 -13212772.47449 -10275794.67748  20114001.7724   20113999.4324
      1552.3134
   6042888.73349   4707826.85346  21473073.9284   21473071.9324
     -2426.8284
 -10309263.37249  -8012486.13246  22064930.5924   22064927.8184
       124.0944
  -6204421.68649  -4826087.24347  20228905.5924   20228903.0614
       436.1884
  -7021768.85548  -5466684.00544  22771213.3814   22771212.9244
       131.0474
 -14416784.58449 -11218589.52146  21440092.4904   21440090.2134
      2755.0164
 04  9 13 22 29 44.9980000  0  6G 8G13G19G27G10G28
 -13236024.61049 -10293913.23147  20109576.8424   20109574.4904
      1548.0164
   6079336.88948   4736227.96146  21480009.9514   21480007.6544
     -2432.9224
 -10311051.94249  -8013879.82946  22064590.2954   22064587.2994
       114.3914
  -6210935.30949  -4831162.80747  20227666.0374   20227663.3504
       432.3594
  -7023661.22548  -5468158.59644  22770853.0374   22770853.0334
       121.3754
 -14458067.49049 -11250758.01046  21432236.5924   21432233.8974
      2749.4224
 04  9 13 22 29 59.9980000  0  6G 8G13G19G27G10G28
 -13259213.42949 -10311982.43748  20105164.1704   20105161.7094
      1543.7034
   6115873.71649   4764698.18446  21486962.9434   21486960.8544
     -2438.7814
 -10312697.11149  -8015161.80346  22064277.4364   22064274.2484
       104.7814
  -6217393.14849  -4836194.90347  20226437.3424   20226434.6664
       428.5314
  -7025413.46448  -5469524.00644  22770519.3734   22770519.1784
       112.0634
 -14499269.04149 -11282863.09146  21424396.2014   21424393.5764
      2744.0314
 04  9 13 22 30 14.9980000  0  6G 8G13G19G27G10G28
 -13282339.11849 -10330002.46547  20100763.4044   20100761.4594
      1539.4844
   6152498.75748   4793237.13346  21493932.5614   21493930.2014
     -2444.7504
 -10314199.13249  -8016332.21646  22063991.3184   22063988.1784
        95.1564
  -6223795.33949  -4841183.63047  20225218.8974   20225216.2684
       424.7664
  -7027026.05948  -5470780.59644  22770212.7644   22770212.4124
       102.6414
 -14540389.41449 -11314904.93846  21416571.3504   21416568.7794
      2738.5004
 04  9 13 22 30 29.9980000  0  6G 8G13G19G27G10G28
 -13305399.46649 -10347971.57448  20096375.3734   20096372.6504
      1535.2814
   6189213.67648   4821846.12246  21500918.9434   21500916.7294
     -2450.5784
 -10315556.07549  -8017389.59646  22063733.3894   22063730.1894
        85.7504
  -6230139.99849  -4846127.53647  20224011.5764   20224008.7174
       421.1254
  -7028497.21748  -5471926.98544  22769932.9364   22769932.5884
        93.4534
 -14581426.66349 -11346882.00546  21408762.3264   21408759.3694
      2733.0944
 04  9 13 22 30 44.9980000  0  6G 8G13G19G27G10G28
 -13328396.27449 -10365891.16848  20091999.0064   20091996.8344
      1531.0164
   6226016.66949   4850523.73846  21507922.6474   21507920.3424
     -2456.4064
 -10316769.73349  -8018335.32246  22063502.9754   22063499.2954
        76.1884
  -6236428.63449  -4851027.78047  20222815.0144   20222812.3814
       417.4534
  -7029828.75948  -5472964.56544  22769679.2404   22769679.0534
        84.2194
 -14622382.35449 -11378795.52046  21400968.3184   21400966.0294
      2727.7344
 04  9 13 22 30 59.9980000  0  6G 8G13G19G27G10G28
 -13351330.38949 -10383761.91748  20087635.0224   20087632.3934
      1526.8594
   6262906.55349   4879269.04946  21514942.1934   21514940.4164
     -2462.1874
 -10317840.97949  -8019170.07646  22063298.5454   22063295.2874
        66.6564
  -6242662.01349  -4855884.97347  20221628.4674   20221626.3504
       413.6884
  -7031021.53148  -5473894.05844  22769452.5924   22769452.1004
        74.8134
 -14663257.19949 -11410646.04046  21393190.6704   21393187.9084
      2722.2814
 04  9 13 22 31 14.9980000  0  6G 8G13G19G27G10G28
 -13374201.30349 -10401583.41448  20083282.6934   20083280.0224
      1522.4224
   6299883.33749   4908082.08346  21521978.8574   21521976.6154
     -2468.1094
 -10318769.61749  -8019893.70546  22063121.8184   22063118.3464
        56.9534
  -6248839.90949  -4860698.92147  20220453.2644   20220450.4824
       409.8754
  -7032075.54648  -5474715.38144  22769252.2404   22769251.9204
        65.5164
 -14704050.94249 -11442433.35146  21385427.3424   21385425.2484
      2716.6884
 04  9 13 22 31 29.9980000  0  6G 8G13G19G27G10G28
 -13397006.53149 -10419353.72248  20078943.0294   20078940.6894
      1518.2664
   6336949.34649   4936964.64645  21529032.3344   21529030.0964
     -2473.8914
 -10319553.14748  -8020504.25946  22062972.9824   22062969.9864
        47.5944
  -6254959.67949  -4865467.59947  20219288.3974   20219285.5844
       406.2034
  -7032988.45648  -5475426.75044  22769078.3034   22769078.2724
        56.3134
 -14744761.01749 -11474155.47646  21377680.7014   21377678.4674
      2711.3594
 04  9 13 22 31 44.9980000  0  6G 8G13G19G27G10G28
 -13419748.49649 -10437074.73948  20074615.4434   20074612.7724
      1513.9534
   6374101.51449   4965914.34546  21536102.2404   21536100.2874
     -2479.6094
 -10320194.28949  -8021003.87146  22062851.3264   22062847.7134
        37.9534
  -6261023.95949  -4870193.01847  20218134.6624   20218131.9164
       402.3754
  -7033763.12448  -5476030.42244  22768931.3894   22768930.4594
        46.9694
 -14785390.02849 -11505814.44046  21369949.4434   21369946.6544
      2705.9384
 04  9 13 22 31 59.9980000  0  6G 8G13G19G27G10G28
 -13442427.39349 -10454746.61748  20070299.6394   20070297.3654
      1509.8444
   6411339.64948   4994931.02146  21543188.1234   21543186.0574
     -2485.3754
 -10320693.06449  -8021392.54446  22062755.7404   22062752.9714
        28.5314
  -6267032.70949  -4874875.17147  20216991.0224   20216988.4324
       398.7034
  -7034399.64748  -5476526.44344  22768810.3114   22768809.4434
        37.8444
 -14825938.04549 -11537410.27746  21362233.5454   21362230.8384
      2700.5004
 04  9 13 22 32 14.9980000  0  6G 8G13G19G27G10G28
 -13465040.18749 -10472366.98248  20065996.7404   20065994.8114
      1505.5004
   6448666.47349   5024016.81346  21550291.5374   21550289.4794
     -2491.1414
 -10321046.71448  -8021668.13246  22062688.3894   22062685.5294
        19.0164
  -6272982.96949  -4879511.75347  20215859.0064   20215856.2364
       394.9064
  -7034895.24148  -5476912.65144  22768715.7094   22768715.0804
        28.5634
 -14866401.96049 -11568940.60046  21354533.3344   21354530.9084
      2695.0314
 04  9 13 22 32 29.9980000  0  6G 8G13G19G27G10G28
 -13487589.21249 -10489937.66048  20061706.3034   20061703.4324
      1500.9844
   6486079.44149   5053169.73046  21557410.0614   21557409.6004
     -2497.1254
 -10321257.63749  -8021832.50146  22062648.3184   22062645.0844
         9.2814
  -6278877.05149  -4884104.55847  20214737.3034   20214734.7914
       391.0164
  -7035252.51348  -5477191.08844  22768647.4044   22768647.0294
        19.1564
 -14906784.06749 -11600407.16746  21346848.5224   21346846.3304
      2689.3914
 04  9 13 22 32 44.9980000  0  6G 8G13G19G27G10G28
 -13510073.12949 -10507457.59348  20057427.0294   20057424.7094
      1496.6564
   6523579.53049   5082390.53146  21564546.8654   21564545.5964
     -2503.0004
 -10321324.53449  -8021884.64846  22062635.7874   22062632.1624
        -0.3444
  -6284713.63649  -4888652.54747  20213626.8504   20213624.1974
       387.1564
  -7035470.34848  -5477360.84644  22768606.5064   22768605.8224
         9.8284
 -14947083.15449 -11631809.03646  21339179.6704   21339177.4364
      2683.8444
 04  9 13 22 32 59.9980000  0  6G 8G13G19G27G10G28
 -13532492.41349 -10524927.17348  20053160.7404   20053158.9084
      1492.4224
   6561165.80849   5111678.49246  21571699.7094   21571697.7404
     -2508.6564
 -10321247.98249  -8021825.00246  22062650.3184   22062647.3854
        -9.8754
  -6290493.01649  -4893155.97847  20212526.6474   20212523.9284
       383.3754
  -7035549.29548  -5477422.39144  22768591.2794   22768590.7994
         0.6094
 -14987299.63849 -11663146.54146  21331527.2484   21331524.2874
      2678.3134
 04  9 13 22 33 14.9980000  0  6G 8G13G19G27G10G28
 -13554847.00449 -10542346.34448  20048907.0144   20048904.7834
      1488.1724
   6598838.11349   5141033.49445  21578868.2644   21578866.4594
     -2514.4064
 -10321028.06049  -8021653.65546  22062692.5844   22062689.0764
       -19.4224
  -6296215.33749  -4897614.93947  20211437.7564   20211435.8934
       379.5784
  -7035489.61748  -5477375.92644  22768602.7174   22768602.0144
        -8.5164
 -15027433.44249 -11694419.62746  21323889.8114   21323887.0064
      2672.9224
 04  9 13 22 33 29.9980000  0  6G 8G13G19G27G10G28
 -13577136.42349 -10559714.72148  20044665.3184   20044662.7724
      1483.6884
   6636596.36548   5170455.46146  21586053.5614   21586051.6704
     -2520.0314
 -10320664.66748  -8021370.49646  22062761.4044   22062758.1744
       -29.0474
  -6301880.35849  -4902029.25547  20210359.3654   20210357.1584
       375.6884
  -7035291.32848  -5477221.45444  22768640.5844   22768640.2724
       -17.8594
 -15067484.38749 -11725628.14146  21316268.7094   21316266.1434
      2667.2814
 04  9 13 22 33 44.9980000  0  6G 8G13G19G27G10G28
 -13599363.03249 -10577034.15848  20040435.5374   20040433.2994
      1479.5784
   6674438.31249   5199942.64546  21593254.6474   21593252.9324
     -2525.6414
 -10320159.83149  -8020977.13346  22062857.5844   22062854.2364
       -38.3914
  -6307489.88149  -4906400.32647  20209292.2014   20209290.2604
       372.0474
  -7034956.57748  -5476960.62944  22768704.6544   22768703.6934
       -26.9374
 -15107454.44149 -11756773.63646  21308662.2484   21308659.8504
      2661.9844
 04  9 13 22 33 59.9980000  0  6G 8G13G19G27G10G28
 -13621524.43849 -10594302.79648  20036218.7564   20036216.7484
      1475.2034
   6712365.58548   5229496.32746  21600471.8734   21600470.2794
     -2531.4064
 -10319511.66649  -8020472.09246  22062980.9364   22062977.6894
       -48.0624
  -6313042.05249  -4910726.70347  20208235.9434   20208233.6354
       368.1564
  -7034483.70748  -5476592.18544  22768794.1004   22768794.0254
       -36.1874
 -15147341.55149 -11787854.49246  21301071.7954   21301069.5224
      2656.3134
 04  9 13 22 34 14.9980000  0  6G 8G13G19G27G10G28
 -13643621.41249 -10611521.21648  20032014.0684   20032011.9904
      1471.0164
   6750377.28448   5259115.78346  21607705.3814   21607703.1114
     -2536.9224
 -10318721.01149  -8019856.00446  22063131.1864   22063127.6624
       -57.5004
  -6318537.37649  -4915008.77747  20207190.0294   20207187.5574
       364.5004
  -7033873.53748  -5476116.75944  22768910.1234   22768909.9044
       -45.2344
 -15187146.43749 -11818871.27146  21293497.4044   21293494.6864
      2650.9224
 04  9 13 22 34 29.9980000  0  6G 8G13G19G27G10G28
 -13665655.01149 -10628690.26648  20027820.9364   20027818.7954
      1466.6564
   6788472.33448   5288800.18346  21614954.7724   21614952.6864
     -2542.5784
 -10317788.73949  -8019129.57846  22063308.3974   22063305.1234
       -67.0474
  -6323976.62149  -4919247.16147  20206154.8264   20206152.7404
       360.6254
  -7033126.94848  -5475535.03444  22769052.4284   22769051.4594
       -54.4534
 -15226869.79749 -11849824.53046  21285938.4204   21285935.4824
      2645.4534
 04  9 13 22 34 44.9980000  0  6G 8G13G19G27G10G28
 -13687622.94549 -10645808.13448  20023640.7174   20023638.5884
      1462.3754
   6826652.28848   5318550.75845  21622220.2564   21622218.2054
     -2548.0314
 -10316713.18849  -8018291.50346  22063513.5534   22063509.6664
       -76.4534
  -6329358.08349  -4923440.52247  20205131.2404   20205128.9244
       356.9384
  -7032242.46848  -5474845.85544  22769220.4514   22769219.9754
       -63.5004
 -15266509.97349 -11880712.96346  21278394.9204   21278392.1474
      2640.0004
 04  9 13 22 34 59.9980000  0  6G 8G13G19G27G10G28
 -13709525.32149 -10662874.92648  20019472.5924   20019470.3074
      1458.0314
   6864916.67948   5348367.11845  21629501.3574   21629499.6314
     -2553.7194
 -10315494.41949  -8017341.82946  22063745.7484   22063742.2324
       -85.9694
  -6334681.81749  -4927588.89347  20204117.9514   20204115.6934
       353.0474
  -7031220.30648  -5474049.39244  22769415.2324   22769414.8184
       -72.6094
 -15306066.84749 -11911536.49046  21270867.4594   21270865.3224
      2634.4534
 04  9 13 22 35 14.9980000  0  6G 8G13G19G27G10G28
 -13731364.45849 -10679892.43848  20015317.1394   20015314.6354
      1453.6564
   6903263.05748   5378247.37545  21636798.8184   21636797.0924
     -2559.3594
 -10314134.80949  -8016282.41046  22064004.1004   22064000.8184
       -95.5624
  -6339949.76449  -4931693.80847  20203115.3974   20203113.2444
       349.2194
  -7030062.87448  -5473147.52944  22769635.3184   22769634.9244
       -81.8124
 -15345542.60349 -11942296.81146  21263356.0144   21263353.3344
      2628.7974
 04  9 13 22 35 29.9980000  0  6G 8G13G19G27G10G28
 -13753136.53049 -10696857.68848  20011173.7324   20011171.5884
      1449.1724
   6941694.75448   5408194.09945  21644111.9514   21644110.4084
     -2564.9374
 -10312630.76048  -8015110.44046  22064290.5454   22064287.4904
      -105.1094
  -6345158.50949  -4935752.57747  20202124.3814   20202122.1474
       345.2664
  -7028766.85548  -5472137.68144  22769881.8264   22769881.5534
       -91.0314
 -15384933.66449 -11972991.13646  21255859.9984   21255857.2954
      2623.2194
 04  9 13 22 35 44.9980000  0  6G 8G13G19G27G10G28
 -13774842.43049 -10713771.39047  20007043.3974   20007041.1274
      1444.9064
   6980210.73048   5438206.49345  21651441.3974   21651439.6974
     -2570.4534
 -10310983.23749  -8013826.67946  22064603.9984   22064600.5104
      -114.5624
  -6350308.67749  -4939765.71247  20201144.2404   20201142.0884
       341.5004
  -7027333.20348  -5471020.58144  22770154.6394   22770154.1114
      -100.0314
 -15424240.72849 -12003620.00346  21248379.9514   21248377.3814
      2617.7664
 04  9 13 22 35 59.9980000  0  6G 8G13G19G27G10G28
 -13796483.60349 -10730634.63748  20002925.1394   20002922.7294
      1440.5474
   7018809.28048   5468283.24145  21658786.6624   21658784.9004
     -2575.9844
 -10309193.71049  -8012432.25746  22064944.3974   22064941.2914
      -124.1254
  -6355401.74349  -4943734.34547  20200174.9364   20200172.2294
       337.6254
  -7025763.44448  -5469797.39444  22770453.3034   22770453.2174
      -109.1874
 -15463465.12649 -12034184.46046  21240915.7254   21240913.2484
      2612.1884
 04  9 13 22 36 14.9980000  0  6G 8G13G19G27G10G28
 -13818059.06449 -10747446.69148  19998819.5144   19998817.4554
      1436.3134
   7057491.09348   5498424.87545  21666147.6704   21666145.6074
     -2581.4844
 -10307261.28849  -8010926.47746  22065312.4044   22065309.0684
      -133.5784
  -6360436.59249  -4947657.61547  20199216.9674   20199214.0334
       333.7814
  -7024056.92248  -5468467.67544  22770777.8344   22770778.0334
      -118.2344
 -15502605.99849 -12064683.83146  21233467.4984   21233464.7954
      2606.7504
 04  9 13 22 36 29.9980000  0  6G 8G13G19G27G10G28
 -13839569.01649 -10764207.69347  19994726.0764   19994724.1864
      1431.8914
   7096255.54948   5528630.88945  21673524.0764   21673522.2684
     -2586.9534
 -10305186.34149  -8009309.66846  22065706.7954   22065703.8114
      -142.9694
  -6365413.54149  -4951535.77547  20198270.0374   20198267.5764
       330.0004
  -7022214.13348  -5467031.77944  22771129.2404   22771128.6354
      -127.2194
 -15541663.62049 -12095118.33246  21226035.0684   21226032.6004
      2601.1414
 04  9 13 22 36 44.9980000  0  6G 8G13G19G27G10G28
 -13861012.83749 -10780917.17148  19990645.5764   19990643.5374
      1427.4694
   7135102.85148   5558901.46045  21680916.5924   21680914.8464
     -2592.4534
 -10302968.50349  -8007581.50346  22066129.4434   22066125.7754
      -152.6254
  -6370332.08349  -4955368.41347  20197333.9514   20197331.7724
       326.0164
  -7020234.72248  -5465489.40144  22771505.6544   22771505.5144
      -136.4534
 -15580637.55649 -12125487.62646  21218618.4284   21218615.8304
      2595.5634
 04  9 13 22 36 59.9980000  0  6G 8G13G19G27G10G28
 -13882390.31649 -10797574.94247  19986577.8184   19986575.5224
      1422.9384
   7174033.10048   5589236.67345  21688324.5684   21688323.3974
     -2598.1094
 -10300607.67749  -8005741.92245  22066578.1934   22066574.9634
      -162.0784
  -6375191.90049  -4959155.30547  20196408.9284   20196406.8384
       322.0634
  -7018118.74448  -5463840.62344  22771908.6704   22771908.7134
      -145.5784
 -15619527.39549 -12155791.38346  21211218.1234   21211215.8614
      2589.8754
 04  9 13 22 37 14.9980000  0  6G 8G13G19G27G10G28
 -13903701.20449 -10814180.83348  19982522.2564   19982520.5224
      1418.4384
   7213045.90848   5619636.20945  21695748.5534   21695746.9714
     -2603.6254
 -10298103.90549  -8003790.94646  22067054.8344   22067051.7324
      -171.7034
  -6379992.97449  -4962896.41347  20195495.7174   20195493.6584
       318.0944
  -7015866.31148  -5462085.53244  22772337.1624   22772337.5144
      -154.6874
 -15658333.15349 -12186029.62746  21203833.4204   21203831.1624
      2584.1884
 04  9 13 22 37 29.9980000  0  6G 8G13G19G27G10G28
 -13924947.15149 -10830736.12347  19978479.4674   19978476.9244
      1414.1254
   7252139.35548   5650098.59945  21703187.7644   21703186.4714
     -2608.9844
 -10295459.00848  -8001730.01646  22067558.3424   22067554.3734
      -181.1564
  -6384736.82149  -4966592.92347  20194593.3424   20194590.6194
       314.2344
  -7013479.30848  -5460225.54844  22772791.2014   22772791.1624
      -163.6564
 -15697056.53149 -12216203.68646  21196464.7794   21196461.7834
      2578.7344
 04  9 13 22 37 44.9980000  0  6G 8G13G19G27G10G28
 -13946127.24949 -10847240.10347  19974448.9044   19974446.7874
      1409.7034
   7291314.16448   5680624.37045  21710642.8114   21710641.4554
     -2614.3914
 -10292671.92348  -7999558.28046  22068089.1004   22068085.3384
      -190.6094
  -6389422.40649  -4970244.05147  20193701.3114   20193698.8424
       310.2974
  -7010956.81848  -5458260.00344  22773271.7014   22773271.5224
      -172.8444
 -15735696.29249 -12246312.58946  21189111.6004   21189109.1934
      2573.1254
 04  9 13 22 37 59.9980000  0  6G 8G13G19G27G10G28
 -13967241.06049 -10863692.42748  19970431.2564   19970428.8894
      1405.4384
   7330570.20048   5711213.45045  21718112.7174   21718111.0184
     -2619.6874
 -10289742.66448  -7997275.77546  22068646.2174   22068642.9754
      -199.9694
  -6394049.48049  -4973849.56847  20192821.0534   20192818.6624
       306.5634
  -7008298.97847  -5456188.98444  22773777.0374   22773777.0804
      -181.6094
 -15774252.25749 -12276356.18146  21181774.9824   21181772.0024
      2567.6564
 04  9 13 22 38 14.9980000  0  6G 8G13G19G27G10G28
 -13988287.54149 -10880092.27447  19966426.3654   19966423.7364
      1400.9534
   7369908.28348   5741866.44545  21725598.6864   21725597.1004
     -2625.1564
 -10286670.14048  -7994881.60946  22069230.9904   22069227.3034
      -209.5784
  -6398616.83349  -4977408.56247  20191951.8114   20191949.4244
       302.5314
  -7005504.81147  -5454011.75244  22774308.6474   22774308.7294
      -190.7034
 -15812723.41849 -12306333.69846  21174453.8654   21174451.3694
      2562.0004
 04  9 13 22 38 29.9980000  0  6G 8G13G19G27G10G28
 -14009268.24549 -10896440.88247  19962433.6314   19962431.0924
      1396.4064
   7409326.70548   5772582.04745  21733099.5614   21733098.4164
     -2630.6874
 -10283456.22148  -7992377.28246  22069842.4904   22069839.5104
      -219.1094
  -6403126.21849  -4980922.38247  20191093.5614   20191090.7874
       298.5634
  -7002576.19348  -5451729.73444  22774866.2254   22774866.4004
      -199.8444
 -15851111.37449 -12336246.38446  21167149.1234   21167146.3574
      2556.3284
 04  9 13 22 38 44.9980000  0  6G 8G13G19G27G10G28
 -14030183.17449 -10912738.23848  19958453.4044   19958451.1784
      1392.1724
   7448825.20548   5803360.06045  21740616.0764   21740614.3144
     -2635.7814
 -10280100.96949  -7989762.82846  22070480.5844   22070477.4824
      -228.4064
  -6407577.46449  -4984390.89847  20190246.4904   20190244.1504
       294.7504
  -6999513.42548  -5449343.18644  22775449.2794   22775449.1704
      -208.6564
 -15889416.11849 -12366094.22846  21159859.4754   21159857.0024
      2550.9534
 04  9 13 22 38 59.9980000  0  6G 8G13G19G27G10G28
 -14051032.14349 -10928984.19148  19954486.2724   19954483.3544
      1387.7664
   7488403.42848   5834200.18345  21748147.2324   21748145.7174
     -2641.2034
 -10276604.25448  -7987038.12946  22071146.5294   22071143.1194
      -237.7344
  -6411970.46849  -4987814.03647  20189410.5924   20189408.1894
       290.9694
  -6996316.52248  -5446852.14744  22776057.2254   22776057.3574
      -217.5624
 -15927637.43449 -12395877.07046  21152586.4364   21152584.1114
      2545.3594
 04  9 13 22 39 14.9980000  0  6G 8G13G19G27G10G28
 -14071814.69849 -10945178.39747  19950531.1864   19950529.1934
      1383.2344
   7528061.49648   5865102.53245  21755694.0844   21755692.7214
     -2646.5944
 -10272965.77448  -7984202.97246  22071838.9674   22071835.3974
      -247.3754
  -6416304.63249  -4991191.31947  20188585.9124   20188583.4434
       286.9384
  -6992985.13948  -5444256.27344  22776691.2404   22776691.5064
      -226.5784
 -15965774.82849 -12425594.51246  21145328.9754   21145326.5104
      2539.5784
 04  9 13 22 39 29.9980000  0  6G 8G13G19G27G10G28
 -14092529.45649 -10961319.75748  19946589.5614   19946587.4824
      1378.8754
   7567800.37048   5896067.83745  21763256.9824   21763254.6974
     -2651.7194
 -10269184.56548  -7981256.59146  22072558.3654   22072555.3034
      -256.6724
  -6420578.85049  -4994521.89247  20187772.4594   20187770.0414
       283.0634
  -6989518.38147  -5441554.96344  22777351.3264   22777351.9714
      -235.5624
 -16003827.10149 -12455245.62746  21138087.9674   21138085.8114
      2534.1564
 04  9 13 22 39 44.9980000  0  6G 8G13G19G27G10G28
 -14113179.39049 -10977410.62648  19942660.0374   19942657.6624
      1374.5314
   7607617.10048   5927093.81145  21770833.6624   21770831.8034
     -2656.9844
 -10265263.37648  -7978201.14545  22073304.2174   22073301.0614
      -266.0164
  -6424795.85049  -4997807.88347  20186970.0684   20186967.4124
       279.3914
  -6985919.32947  -5438750.50944  22778035.8974   22778036.0454
      -244.1874
 -16041797.09249 -12484832.61946  21130862.3654   21130859.6704
      2528.6094
 04  9 13 22 39 59.9980000  0  6G 8G13G19G27G10G28
 -14133762.94849 -10993449.77048  19938743.1074   19938740.4984
      1370.1254
   7647512.68248   5958181.22545  21778425.3114   21778423.8034
     -2662.3124
 -10261200.88948  -7975035.60445  22074077.1864   22074074.4324
      -275.5474
  -6428954.11849  -5001048.09947  20186178.8894   20186176.7054
       275.3134
  -6982186.74647  -5435842.05344  22778745.4434   22778746.0334
      -253.2194
 -16079683.28849 -12514354.32646  21123653.1934   21123650.2214
      2522.9694
 04  9 13 22 40 14.9980000  0  6G 8G13G19G27G10G28
 -14154279.29649 -11009436.53948  19934838.7724   19934836.6974
      1365.5314
   7687487.42948   5989330.32245  21786032.1004   21786030.7564
     -2667.6254
 -10256996.87148  -7971759.76245  22074877.5224   22074874.5254
      -285.0004
  -6433053.04349  -5004242.08747  20185398.7404   20185396.5144
       271.2664
  -6978320.31748  -5432829.27543  22779482.3504   22779481.7134
      -262.2194
 -16117485.14749 -12543810.31546  21116459.3814   21116456.9284
      2517.3594
 04  9 13 22 40 29.9980000  0  6G 8G13G19G27G10G28
 -14174730.57349 -11025372.60348  19930946.9514   19930944.8574
      1361.1414
   7727539.10448   6020539.37445  21793654.3034   21793652.6434
     -2672.7974
 -10252653.25648  -7968375.15145  22075704.1074   22075700.9824
      -294.2814
  -6437094.57149  -5007391.34047  20184629.7724   20184626.9164
       267.3914
  -6974322.13548  -5429713.83744  22780243.1474   22780242.9554
      -271.0004
 -16155204.57249 -12573202.06946  21109282.1624   21109279.5104
      2511.8594
 04  9 13 22 40 44.9980000  0  6G 8G13G19G27G10G28
 -14195113.08149 -11041255.09047  19927068.8504   19927066.8264
      1356.5314
   7767670.85348   6051810.81345  21801290.6544   21801288.7874
     -2678.0624
 -10248166.68248  -7964879.15145  22076558.0764   22076554.4244
      -303.8444
  -6441075.01549  -5010493.00347  20183872.3504   20183869.8934
       263.3134
  -6970188.94848  -5426493.20344  22781029.6004   22781029.2914
      -280.0004
 -16192838.06449 -12602526.86346  21102120.2324   21102117.5144
      2506.0784
 04  9 13 22 40 59.9980000  0  6G 8G13G19G27G10G28
 -14215427.54449 -11057084.54248  19923202.7094   19923200.8264
      1352.1564
   7807881.68948   6083143.88045  21808942.9204   21808940.8814
     -2683.3124
 -10243538.03949  -7961272.43646  22077438.7644   22077434.9794
      -313.2344
  -6444995.30449  -5013547.78247  20183125.9364   20183123.7014
       259.4384
  -6965921.88448  -5423168.24744  22781841.5144   22781841.4944
      -288.8284
 -16230386.44849 -12631785.33746  21094975.5064   21094972.5374
      2500.4844
 04  9 13 22 41 14.9980000  0  6G 8G13G19G27G10G28
 -14235675.24249 -11072861.98148  19919350.0144   19919347.1624
      1347.5784
   7848170.03348   6114537.33645  21816609.3034   21816607.6274
     -2688.4534
 -10238768.67648  -7957556.07346  22078345.9674   22078343.0024
      -322.6724
  -6448856.54049  -5016556.55347  20182391.8114   20182389.1864
       255.3754
  -6961522.46247  -5419740.16044  22782678.6314   22782678.9984
      -297.6874
 -16267850.94149 -12660978.43647  21087846.2404   21087843.1394
      2494.8594
 04  9 13 22 41 29.9980000  0  6G 8G13G19G27G10G28
 -14255854.40249 -11088586.00548  19915509.7724   19915507.5644
      1343.0164
   7888537.36748   6145992.35545  21824291.0534   21824289.6074
     -2693.7344
 -10233856.95048  -7953728.78246  22079280.3734   22079277.7954
      -332.1564
  -6452656.95549  -5019517.92947  20181668.4124   20181666.0684
       251.4064
  -6956989.00947  -5416207.64844  22783541.6784   22783541.4204
      -306.7034
 -16305229.72449 -12690104.75347  21080733.0374   21080730.6314
      2489.0634
 04  9 13 22 41 44.9980000  0  6G 8G13G19G27G10G28
 -14275965.94049 -11104257.33648  19911682.8894   19911680.4514
      1338.6254
   7928982.43248   6177507.93045  21831987.5064   21831986.5144
     -2698.7814
 -10228804.14348  -7949791.55046  22080242.8034   22080239.2724
      -341.4694
  -6456397.52049  -5022432.66447  20180956.4364   20180954.1314
       247.5314
  -6952322.93647  -5412571.77344  22784429.2794   22784429.5644
      -315.3754
 -16342523.86949 -12719165.11846  21073636.5764   21073633.6544
      2483.5944
 04  9 13 22 41 59.9980000  0  6G 8G13G19G27G10G28
 -14296010.23449 -11119876.27048  19907868.4124   19907865.9714
      1334.0004
   7969504.58248   6209083.57345  21839698.8574   21839697.1394
     -2704.1094
 -10223610.51448  -7945744.60145  22081230.8504   22081227.4864
      -351.0164
  -6460078.50849  -5025300.98847  20180256.3034   20180253.9674
       243.4064
  -6947524.67647  -5408832.90844  22785342.2094   22785342.6784
      -324.2974
 -16379733.70549 -12748159.78747  21066555.5844   21066552.5684
      2477.7664
 04  9 13 22 42 14.9980000  0  6G 8G13G19G27G10G28
 -14315985.19149 -11135441.18447  19904067.3264   19904064.8424
      1329.4064
   8010105.50448   6240720.59545  21847424.5614   21847422.9554
     -2709.3124
 -10218274.39749  -7941586.62345  22082246.2324   22082243.1194
      -360.4534
  -6463698.00549  -5028121.38847  20179567.2874   20179564.9864
       239.2344
  -6942592.52648  -5404989.70244  22786281.5144   22786281.1624
      -333.2504
 -16416857.25449 -12777087.22347  21059491.3894   21059488.5104
      2472.0164
 04  9 13 22 42 29.9980000  0  6G 8G13G19G27G10G28
 -14335893.75849 -11150954.35747  19900278.9514   19900276.3974
      1324.9694
   8050781.86748   6272416.42445  21855165.3264   21855163.9284
     -2714.2974
 -10212798.69848  -7937319.87646  22083288.2484   22083284.6114
      -369.7504
  -6467258.66649  -5030895.93347  20178889.7644   20178887.8384
       235.3594
  -6937529.54647  -5401044.55344  22787244.9674   22787244.4634
      -341.9224
 -16453897.31949 -12805949.60947  21052442.6314   21052439.8814
      2466.5314
 04  9 13 22 42 44.9980000  0  6G 8G13G19G27G10G28
 -14355735.09449 -11166415.14847  19896503.2174   19896500.8034
      1320.4384
   8091534.15748   6304171.40045  21862919.9754   21862919.0414
     -2719.3594
 -10207182.97348  -7932944.00646  22084356.8264   22084353.9434
      -379.1254
  -6470759.94749  -5033624.22447  20178223.3344   20178221.3974
       231.3594
  -6932335.39846  -5396997.20944  22788232.9904   22788233.2524
      -350.6564
 -16490853.24649 -12834746.42047  21045410.1394   21045407.5294
      2460.8914
 04  9 13 22 42 59.9980000  0  6G 8G13G19G27G10G28
 -14375508.04549 -11181822.65048  19892740.7874   19892738.2094
      1315.8594
   8132363.20148   6335986.18345  21870689.7254   21870688.3734
     -2724.4694
 -10201426.09248  -7928458.14545  22085452.4754   22085449.2404
      -388.5784
  -6474200.60049  -5036305.26847  20177568.6704   20177566.3304
       227.3284
  -6927009.07847  -5392846.85744  22789246.7254   22789246.7994
      -359.4694
 -16527723.89949 -12863476.79347  21038393.6704   21038391.0334
      2455.1884
 04  9 13 22 43 14.9980000  0  6G 8G13G19G27G10G28
 -14395212.30749 -11197176.61847  19888990.8734   19888988.7364
      1311.2814
   8173268.71748   6367860.54945  21878473.6704   21878472.7834
     -2729.6414
 -10195528.16148  -7923862.38946  22086574.5064   22086571.4204
      -397.9694
  -6477580.40149  -5038938.88547  20176925.6544   20176923.4904
       223.2194
  -6921550.80448  -5388593.68844  22790285.2174   22790285.4324
      -368.3444
 -16564509.14849 -12892140.61447  21031393.9514   21031391.1824
      2449.4064
 04  9 13 22 43 29.9980000  0  6G 8G13G19G27G10G28
 -14414848.10849 -11212477.25248  19885254.3264   19885252.1894
      1306.9534
   8214250.40048   6399794.26445  21886272.2174   21886271.5454
     -2734.3284
 -10189489.42149  -7919156.89946  22087723.7874   22087721.0614
      -407.0784
  -6480899.53949  -5041525.25147  20176293.8114   20176291.6044
       219.4694
  -6915961.01548  -5384238.03444  22791348.3574   22791349.0884
      -376.8284
 -16601209.23249 -12920738.07046  21024410.1074   21024407.2364
      2444.0164
 04  9 13 22 43 44.9980000  0  6G 8G13G19G27G10G28
 -14434416.27049 -11227725.17248  19881530.7094   19881528.4204
      1302.3284
   8255307.27848   6431786.58445  21894085.0064   21894084.1194
     -2739.5474
 -10183310.84249  -7914342.44645  22088899.6234   22088896.8574
      -416.4844
  -6484158.71149  -5044064.88447  20175673.6864   20175671.5414
       215.2974
  -6910240.66648  -5379780.65744  22792437.6544   22792437.9904
      -385.6564
 -16637824.82149 -12949269.69547  21017442.2254   21017439.3504
      2438.2814
 04  9 13 22 43 59.9980000  0  6G 8G13G19G27G10G28
 -14453916.45449 -11242920.13047  19877819.6784   19877817.5374
      1297.6884
   8296439.00848   6463837.22345  21901912.6314   21901911.2794
     -2744.7194
 -10176992.39748  -7909419.01445  22090101.8264   22090098.8774
      -425.9374
  -6487357.81549  -5046557.69947  20175065.1474   20175062.7294
       211.2194
  -6904389.94248  -5375221.67643  22793551.4044   22793551.0374
      -394.4374
 -16674355.78849 -12977735.37847  21010490.8184   21010488.0884
      2432.5004
 04  9 13 22 44 14.9980000  0  7G29G 8G13G19G27G10G28
   -167687.25157   -108707.90652  23706147.8574   23706148.8694
      3748.1884
 -14473348.41149 -11258061.91948  19874122.1544   19874119.7524
      1293.1884
   8337645.61847   6495946.21745  21909753.9754   21909752.4514
     -2749.5784
 -10170533.98648  -7904386.50845  22091330.9984   22091328.0684
      -435.1724
  -6490496.38249  -5049003.34747  20174467.5764   20174465.7324
       207.3134
  -6898408.74748  -5370561.04743  22794689.2014   22794689.5844
      -403.0474
 -16710801.92049 -13006134.95147  21003555.1154   21003552.6864
      2426.9534
 04  9 13 22 44 29.9980000  0  7G29G 8G13G19G27G10G28
   -223893.73347   -152505.14042  23695452.0844   23695452.5764
      3745.8754
 -14492713.66949 -11273151.73747  19870436.9904   19870434.5964
      1288.6564
   8378924.93648   6528111.86345  21917608.7324   21917607.9674
     -2754.4064
 -10163937.49348  -7899246.40745  22092586.3184   22092583.1504
      -444.4374
  -6493576.33349  -5051403.32947  20173881.8184   20173879.6194
       203.3444
  -6892299.07448  -5365800.29843  22795851.4904   22795851.6074
      -411.6874
 -16747164.94249 -13034469.76147  20996635.6474   20996633.1584
      2421.2814
 04  9 13 22 44 44.9980000  0  7G29G 8G13G19G27G10G28
   -280064.45147   -196274.51842  23684763.1784   23684763.8424
      3743.5164
 -14512010.81749 -11288188.48148  19866765.3574   19866762.5964
      1284.2664
   8420278.28448   6560335.18045  21925478.6154   21925477.0534
     -2759.3914
 -10157201.63748  -7893997.71945  22093868.1474   22093865.3424
      -453.6874
  -6496596.08149  -5053756.39047  20173307.3114   20173305.0884
       199.3594
  -6886059.69348  -5360938.49244  22797039.1074   22797039.0144
      -420.3124
 -16783443.31149 -13062738.61947  20989732.0844   20989729.0684
      2415.7664
 04  9 13 22 44 59.9980000  0  7G29G 8G13G19G27G10G28
   -336198.93147   -240015.62642  23674080.5064   23674081.9674
      3740.8594
 -14531239.57649 -11303171.93848  19863105.9204   19863103.7254
      1279.4224
   8461705.45047   6592616.03544  21933361.9754   21933360.5804
     -2764.4534
 -10150326.23048  -7888640.28345  22095176.4594   22095173.4244
      -463.2664
  -6499555.24749  -5056062.24047  20172743.9824   20172741.1354
       195.0314
  -6879690.61048  -5355975.59143  22798250.7954   22798251.2794
      -429.1254
 -16819636.84849 -13090941.36147  20982844.7874   20982842.0064
      2409.8754
 04  9 13 22 45 14.9980000  0  7G29G 8G13G19G27G10G28
   -392296.66547   -283728.11042  23663406.3654   23663407.1474
      3738.7194
 -14550399.72449 -11318101.92747  19859459.9514   19859456.9164
      1275.1414
   8503206.42648   6624954.38944  21941258.8974   21941257.9824
     -2769.0784
 -10143311.25548  -7883174.09345  22096511.3344   22096508.9044
      -472.2504
  -6502453.67649  -5058320.77947  20172192.5224   20172189.9394
       191.2194
  -6873192.05448  -5350911.82143  22799487.5294   22799488.0454
      -437.5164
 -16855745.41649 -13119077.90047  20975973.3264   20975970.4824
      2404.5004
 04  9 13 22 45 29.9980000  0  7G29G 8G13G19G27G10G28
   -448359.11347   -327413.08642  23652738.3504   23652738.7294
      3736.1884
 -14569492.98249 -11332979.79448  19855826.6784   19855824.5104
      1270.5944
   8544779.29848   6657348.77044  21949170.3734   21949168.9794
     -2773.9844
 -10136158.55348  -7877600.58346  22097872.9674   22097869.4864
      -481.5004
  -6505292.95149  -5060533.21147  20171652.0144   20171649.7954
       187.2344
  -6866565.79548  -5345748.54044  22800748.7874   22800748.9984
      -446.0944
 -16891770.56249 -13147149.44147  20969117.9044   20969115.2794
      2398.7974
 04  9 13 22 45 44.9980000  0  7G29G 8G13G19G27G10G28
   -504384.29247   -371069.05442  23642076.5764   23642077.3574
      3733.7974
 -14588517.46249 -11347804.07348  19852206.3424   19852204.1314
      1265.9844
   8586425.51348   6689800.29644  21957095.6394   21957094.6394
     -2778.8594
 -10128866.30648  -7871918.33446  22099260.3894   22099256.9904
      -490.7974
  -6508071.18049  -5062698.07347  20171123.6234   20171121.4434
       183.1724
  -6859810.19748  -5340484.47644  22802034.1004   22802034.5144
      -454.7344
 -16927710.52549 -13175154.59747  20962278.7484   20962275.8574
      2393.1094
 04  9 13 22 45 59.9980000  0  7G29G 8G13G19G27G10G28
   -560372.42447   -414696.12942  23631422.2644   23631422.9864
      3731.3444
 -14607473.67149 -11362575.15748  19848599.0454   19848597.1074
      1261.5004
   8628144.19548   6722308.30144  21965033.8654   21965033.3694
     -2783.7194
 -10121435.46948  -7866128.09646  22100674.4984   22100671.4284
      -500.0164
  -6510788.97249  -5064815.85247  20170606.3814   20170604.0614
       179.2034
  -6852926.26848  -5335120.41244  22803345.0224   22803344.2174
      -463.2034
 -16963565.87349 -13203093.83347  20955455.8034   20955453.6894
      2387.5004
 04  9 13 22 46 14.9980000  0  7G29G 8G13G19G27G10G28
   -616323.26247   -458294.13443  23620774.6234   23620776.1314
      3728.8444
 -14626361.21649 -11377292.73048  19845004.8974   19845002.3974
      1256.9844
   8669935.30048   6754872.72744  21972987.0224   21972985.8894
     -2788.3444
 -10113865.93048  -7860229.76546  22102114.6934   22102111.9204
      -509.1724
  -6513446.04849  -5066886.32047  20170100.6864   20170098.4554
       175.1884
  -6845913.95648  -5329656.29444  22804679.5614   22804679.2214
      -471.6564
 -16999336.41749 -13230966.96847  20948648.7564   20948646.3814
      2381.9694
 04  9 13 22 46 29.9980000  0  7G29G 8G13G19G27G10G28
   -672239.42647   -501865.12042  23610134.5454   23610135.7994
      3726.6094
 -14645183.30249 -11391959.30148  19841423.3114   19841420.7994
      1252.6254
   8711795.40047   6787490.92444  21980952.7724   21980951.3694
     -2793.0004
 -10106160.97748  -7854225.94545  22103581.3974   22103578.6154
      -518.2194
  -6516045.51649  -5068911.89347  20169606.1234   20169603.9084
       171.3594
  -6838776.64848  -5324094.79744  22806037.1154   22806037.5254
      -479.9694
 -17035025.30449 -13258776.49247  20941857.7174   20941854.9004
      2376.4534
 04  9 13 22 46 44.9980000  0  7G29G 8G13G19G27G10G28
   -728118.21347   -545407.00142  23599501.0454   23599501.9864
      3724.0164
 -14663937.10549 -11406572.65648  19837854.3504   19837852.4394
      1247.9844
   8753726.77347   6820164.66444  21988931.5224   21988930.5844
     -2797.8284
 -10098318.04748  -7848114.59645  22105073.7174   22105069.9944
      -527.4844
  -6518584.63249  -5070890.44047  20169122.9984   20169120.4084
       167.2034
  -6831512.02748  -5318434.09244  22807419.4434   22807419.8544
      -488.5784
 -17070629.89049 -13286520.30747  20935082.3814   20935079.7644
      2370.8134
 04  9 13 22 46 59.9980000  0  7G29G 8G13G19G27G10G28
   -783957.94346   -588918.40342  23588874.2954   23588876.2754
      3721.3754
 -14682621.28849 -11421131.77548  19834298.9674   19834297.0024
      1243.3594
   8795730.60647   6852894.85544  21996925.2174   21996924.1394
     -2802.6254
 -10090335.98448  -7841894.82345  22106592.4364   22106589.1584
      -536.6724
  -6521061.95149  -5072820.82947  20168651.4204   20168649.2324
       163.1884
  -6824118.95748  -5312673.29043  22808826.4514   22808826.4864
      -497.0474
 -17106148.68149 -13314197.28547  20928323.3974   20928320.7094
      2365.1414
 04  9 13 22 47 14.9980000  0  7G29G 8G13G19G27G10G28
   -839759.88847   -632400.39942  23578256.3264   23578257.3974
      3718.7504
 -14701237.59249 -11435637.99247  19830756.1934   19830754.5374
      1238.6564
   8837804.71547   6885679.82144  22004931.0294   22004930.1864
     -2807.4224
 -10082216.62148  -7835568.07045  22108137.5454   22108134.4714
      -546.0944
  -6523479.22849  -5074704.43847  20168191.4674   20168189.4674
       158.9694
  -6816599.40848  -5306813.93844  22810256.9044   22810257.3224
      -505.6564
 -17141583.48849 -13341808.81747  20921580.2874   20921577.5534
      2359.3754
 04  9 13 22 47 29.9980000  0  7G29G 8G13G19G27G10G28
   -895523.09247   -675852.20742  23567644.4124   23567646.1394
      3716.2664
 -14719784.87249 -11450090.42948  19827227.2724   19827225.3074
      1234.1564
   8879949.95447   6918520.20744  22012951.9364   22012950.6894
     -2812.0624
 -10073959.10048  -7829133.66245  22109708.5844   22109705.9634
      -555.1094
  -6525835.29349  -5076540.35047  20167743.3184   20167741.0884
       155.0004
  -6808952.57948  -5300855.40844  22811712.7014   22811712.2254
      -514.0164
 -17176933.29949 -13369354.11247  20914853.2724   20914850.6584
      2353.8594
 04  9 13 22 47 44.9980000  0  7G29G 8G13G19G27G10G28
   -951247.59847   -719273.85742  23557040.6624   23557041.8544
      3713.7194
 -14738263.68649 -11464489.51448  19823710.6544   19823708.2524
      1229.7344
   8922165.40847   6951415.28944  22020984.7014   22020983.9324
     -2816.6094
 -10065564.06948  -7822592.11245  22111306.7094   22111303.2404
      -564.2194
  -6528130.70849  -5078328.99847  20167306.1864   20167303.7684
       151.0474
  -6801179.32948  -5294798.36744  22813191.5294   22813191.3384
      -522.3914
 -17212198.73649 -13396833.66147  20908142.7954   20908139.8814
      2348.3444
 04  9 13 22 47 59.9980000  0  7G29G 8G13G19G27G10G28
  -1006932.95347   -762664.99242  23546444.0684   23546445.4904
      3710.9064
 -14756673.29749 -11478834.66148  19820207.1784   19820205.0844
      1224.9694
   8964451.16247   6984365.16744  22029031.5614   22029030.5104
     -2821.5164
 -10057031.35948  -7815943.26345  22112930.1234   22112926.8854
      -573.5164
  -6530365.13349  -5080070.12447  20166881.3424   20166879.1274
       146.8594
  -6793279.61848  -5288642.78044  22814695.2644   22814695.2174
      -530.9844
 -17247379.33649 -13424247.11447  20901447.7484   20901445.2444
      2342.5004
 04  9 13 22 48 14.9980000  0  7G29G 8G13G19G27G10G28
  -1062577.79747   -806024.55642  23535855.3734   23535856.0764
      3708.2664
 -14775012.82349 -11493125.21848  19816717.3114   19816715.2754
      1220.4534
   9006807.88947   7017370.34744  22037091.8264   22037090.6974
     -2826.0784
 -10048360.16148  -7809186.51345  22114580.2324   22114576.9474
      -582.5624
  -6532537.33449  -5081762.76847  20166468.0764   20166465.6744
       142.8134
  -6785252.70248  -5282388.09644  22816222.9434   22816222.5724
      -539.2504
 -17282474.05249 -13451593.63947  20894769.6784   20894766.7364
      2336.9384
 04  9 13 22 48 29.9980000  0  7G29G 8G13G19G27G10G28
  -1118183.01147   -849353.24042  23525274.1314   23525274.9754
      3705.5634
 -14793283.31849 -11507361.97247  19813240.8114   19813238.6394
      1215.7194
   9049234.18648   7050429.75544  22045165.7174   22045164.4084
     -2830.8444
 -10039551.68348  -7802322.78045  22116256.5534   22116253.6474
      -591.8444
  -6534648.46949  -5083407.82147  20166066.0374   20166063.7794
       138.7034
  -6777099.80748  -5276035.21144  22817774.1394   22817773.7484
      -547.7664
 -17317483.91749 -13478874.04447  20888107.6934   20888104.7444
      2331.1094
 04  9 13 22 48 44.9980000  0  7G29G 8G13G19G27G10G28
  -1173749.23047   -892651.53742  23514700.1314   23514700.7484
      3703.0314
 -14811485.72549 -11521545.67648  19809776.8894   19809774.4984
      1211.2974
   9091728.78648   7083542.35944  22053252.4514   22053251.3574
     -2835.2814
 -10030607.05448  -7795352.96845  22117958.8114   22117955.6864
      -600.8594
  -6536699.28349  -5085005.87847  20165675.6234   20165673.7094
       134.7344
  -6768822.00548  -5269585.02144  22819349.1624   22819349.1114
      -555.8914
 -17352409.92449 -13506089.10947  20881460.9594   20881458.3734
      2325.6414
 04  9 13 22 48 59.9980000  0  7G29G 8G13G19G27G10G28
  -1229275.86047   -935918.97742  23504133.9204   23504134.2404
      3700.5004
 -14829619.41449 -11535675.83648  19806326.0064   19806324.0644
      1206.6564
   9134292.00147   7116708.43444  22061351.8504   22061350.7604
     -2839.8284
 -10021526.05748  -7788276.88445  22119686.6704   22119683.7834
      -609.9064
  -6538689.44949  -5086556.67047  20165296.9204   20165294.9944
       130.6564
  -6760419.28148  -5263037.48543  22820948.3114   22820948.5414
      -564.3914
 -17387251.80549 -13533238.61247  20874831.0454   20874828.2754
      2320.0474
 04  9 13 22 49 14.9980000  0  7G29G 8G13G19G27G10G28
  -1284759.86747   -979153.21242  23493575.0924   23493576.1234
      3697.4694
 -14847681.87749 -11549750.47848  19802889.0064   19802886.8854
      1201.6724
   9176926.00848   7149929.67144  22069464.7724   22069463.2444
     -2844.6254
 -10012306.19448  -7781092.61045  22121441.1784   22121438.3114
      -619.3754
  -6540616.22749  -5088058.07747  20164930.3734   20164928.0614
       126.2814
  -6751889.37648  -5256390.84543  22822571.2254   22822571.7444
      -573.0164
 -17422006.82349 -13560320.44647  20868217.3264   20868214.6314
      2314.0004
 04  9 13 22 49 29.9980000  0  7G29G 8G13G19G27G10G28
  -1340200.91447  -1022353.97242  23483025.2954   23483025.8814
      3694.6414
 -14865672.77249 -11563769.36948  19799465.2724   19799463.0414
      1197.0944
   9219630.88947   7183206.13244  22077591.0844   22077590.4674
     -2849.2664
 -10002947.31348  -7773799.99145  22123222.1314   22123219.4244
      -628.5004
  -6542479.40649  -5089509.91647  20164576.2014   20164573.8114
       122.1884
  -6743232.27548  -5249645.09044  22824218.8504   22824219.2014
      -581.2814
 -17456674.84849 -13587334.47947  20861620.2874   20861617.1434
      2308.4384
 04  9 13 22 49 44.9980000  0  7G29G 8G13G19G27G10G28
  -1395599.70247  -1065521.81742  23472483.4984   23472483.9514
      3691.8914
 -14883592.97549 -11577733.17148  19796055.3574   19796052.7444
      1192.3444
   9262405.12147   7216536.63544  22085730.5224   22085729.7324
     -2853.7974
  -9993450.69048  -7766400.06145  22125029.2874   22125026.2444
      -637.6564
  -6544279.87549  -5090912.89447  20164233.6934   20164231.2874
       117.9534
  -6734449.26048  -5242801.23444  22825890.2014   22825890.0764
      -589.6874
 -17491256.81449 -13614281.45047  20855039.4434   20855036.9594
      2302.5944
 04  9 13 22 49 59.9980000  0  7G29G 8G13G19G27G10G28
  -1450957.66847  -1108657.82342  23461948.5454   23461949.1504
      3689.0004
 -14901444.11949 -11591643.15548  19792658.4044   19792656.2174
      1187.6254
   9305246.78047   7249919.69344  22093883.9984   22093882.1974
     -2858.4694
  -9983817.98248  -7758894.06445  22126862.0374   22126859.3694
      -646.8594
  -6546019.29749  -5092268.29847  20163902.4204   20163899.8464
       113.7344
  -6725542.31648  -5235860.80443  22827585.2564   22827585.1474
      -598.0164
 -17525754.34749 -13641162.63547  20848474.9284   20848472.0104
      2296.8914
 04  9 13 22 50 14.9980000  0  7G29G 8G13G19G27G10G28
  -1506274.24347  -1151761.61742  23451422.3424   23451422.8264
      3686.3284
 -14919225.79049 -11605499.00847  19789274.5454   19789272.8224
      1183.1414
   9348155.89247   7283355.28844  22102048.8814   22102047.7834
     -2862.8284
  -9974049.18848  -7751282.04645  22128721.5294   22128718.5494
      -655.7664
  -6547697.27349  -5093575.83847  20163583.3654   20163581.0104
       109.8284
  -6716511.33148  -5228823.71543  22829304.1934   22829304.1114
      -606.2194
 -17560167.13549 -13667977.79647  20841926.4754   20841923.7174
      2291.3284
 04  9 13 22 50 29.9980000  0  7G29G 8G13G19G27G10G28
  -1561549.11547  -1194832.87342  23440904.2724   23440904.2644
      3683.5634
 -14936937.98149 -11619300.71448  19785903.9284   19785902.1434
      1178.3754
   9391132.18047   7316843.24444  22110227.1474   22110225.6824
     -2867.3284
  -9964144.48248  -7743564.12145  22130605.9364   22130603.2214
      -664.9224
  -6549313.81749  -5094835.49547  20163275.4594   20163273.3694
       105.6254
  -6707356.57047  -5221690.18243  22831045.6934   22831046.4634
      -614.4374
 -17594495.29749 -13694726.99047  20835393.5454   20835391.1894
      2285.6564
 04  9 13 22 50 44.9980000  0  7G29G 8G13G19G27G10G28
  -1616780.24447  -1237870.09342  23430393.6074   23430394.1274
      3680.7504
 -14954578.69249 -11633046.73448  19782547.1784   19782545.1114
      1173.7504
   9434177.12647   7350384.69044  22118418.3894   22118417.2484
     -2871.9224
  -9954102.28547  -7735739.05845  22132517.3974   22132514.2724
      -674.0164
  -6550867.02249  -5096045.79347  20162979.7404   20162977.4554
       101.4534
  -6698076.51447  -5214459.00343  22832811.6784   22832812.0224
      -622.7974
 -17628737.04049 -13721408.86447  20828877.7564   20828875.1624
      2279.9224
 04  9 13 22 50 59.9980000  0  7G29G 8G13G19G27G10G28
  -1671968.61747  -1280873.96242  23419892.2874   23419892.4394
      3677.9694
 -14972149.33249 -11646738.14648  19779203.7724   19779201.5374
      1169.0314
   9477289.34547   7383978.55044  22126622.0454   22126621.3614
     -2876.3754
  -9943923.92947  -7727807.90045  22134454.1784   22134450.6894
      -683.0784
  -6552358.04449  -5097207.64547  20162696.5144   20162693.9674
        97.3594
  -6688672.72046  -5207131.40843  22834600.9824   22834601.9824
      -631.0164
 -17662893.48149 -13748024.26047  20822378.1234   20822375.4904
      2274.2664
 04  9 13 22 51 14.9980000  0  7G29G 8G13G19G27G10G28
  -1727113.64647  -1323844.04142  23409396.7874   23409397.8114
      3674.8754
 -14989649.48449 -11660374.63048  19775873.6474   19775871.2524
      1164.3284
   9520468.70348   7417624.74044  22134839.1074   22134838.5414
     -2880.9224
  -9933609.27648  -7719770.52845  22136416.6624   22136413.9864
      -692.2194
  -6553786.51849  -5098320.75147  20162424.1864   20162422.3144
        93.0944
  -6679145.08346  -5199707.32543  22836414.6474   22836414.8894
      -639.2504
 -17696964.30149 -13774572.94547  20815894.5844   20815891.8304
      2268.5164
 04  9 13 22 51 29.9980000  0  7G29G 8G13G19G27G10G28
  -1782214.50047  -1366779.78142  23398912.8114   23398913.0254
      3671.9064
 -15007078.69449 -11673955.83348  19772556.9754   19772554.4754
      1159.5784
   9563715.27047   7451323.29344  22143068.6704   22143068.0614
     -2885.3124
  -9923158.07148  -7711626.76045  22138405.7644   22138402.8074
      -701.2974
  -6555151.95249  -5099384.74347  20162164.2404   20162162.1194
        88.9534
  -6669493.48547  -5192186.65244  22838251.2404   22838251.5614
      -647.5164
 -17730949.17049 -13801054.65747  20809427.4984   20809424.9714
      2262.7814
 04  9 13 22 51 44.9980000  0  7G29G 8G13G19G27G10G28
  -1837270.89347  -1409680.79042  23388434.7954   23388436.1664
      3669.1094
 -15024436.55749 -11687481.45347  19769253.6784   19769251.6314
      1154.9064
   9607029.08247   7485074.24944  22151310.9674   22151310.4824
     -2889.6414
  -9912570.18848  -7703376.49145  22140420.6474   22140417.8074
      -710.3444
  -6556454.05149  -5100399.39547  20161916.9824   20161914.3224
        84.8134
  -6659717.98847  -5184569.42143  22840111.4044   22840111.3694
      -655.6724
 -17764847.73249 -13827469.11347  20802976.6704   20802974.2134
      2257.1094
 04  9 13 22 51 59.9980000  0  7G29G 8G13G19G27G10G28
  -1892282.93247  -1452547.29943  23377967.4364   23377967.8854
      3665.9224
 -15041723.43349 -11700951.75048  19765964.1624   19765962.2834
      1150.0164
   9650409.34447   7518876.97344  22159565.6074   22159565.0104
     -2894.3754
  -9901846.31948  -7695020.26445  22142461.0844   22142458.2994
      -719.5474
  -6557693.23449  -5101364.99947  20161681.0224   20161678.6394
        80.4224
  -6649819.36047  -5176856.25143  22841994.9284   22841994.9244
      -664.0624
 -17798660.72149 -13853816.88447  20796542.1314   20796539.6784
      2251.2814
 04  9 13 22 52 14.9980000  0  7G29G 8G13G19G27G10G28
  -1947250.05947  -1495378.76843  23367507.5684   23367507.8654
      3662.9224
 -15058938.86149 -11714366.38048  19762688.1074   19762685.7994
      1145.3594
   9693856.11847   7552731.53644  22167833.7254   22167833.3854
     -2898.6094
  -9890986.36348  -7686557.98645  22144527.7014   22144524.8144
      -728.5164
  -6558869.12249  -5102281.29947  20161456.9514   20161454.8854
        76.3444
  -6639797.45547  -5169047.01743  22843902.3034   22843902.6624
      -672.2504
 -17832387.60449 -13880097.57247  20790124.2794   20790121.3974
      2245.6254
 04  9 13 22 52 29.9980000  0  7G29G 8G13G19G27G10G28
  -2002172.12347  -1538175.14543  23357054.9124   23357056.5184
      3659.8594
 -15076083.17049 -11727725.57747  19759425.8034   19759423.3574
      1140.5474
   9737368.97247   7586637.58944  22176114.2174   22176113.2444
     -2903.0474
  -9879990.60948  -7677989.90445  22146620.0224   22146617.3694
      -737.5784
  -6559981.82348  -5103148.34047  20161245.5294   20161243.2644
        72.0164
  -6629652.69647  -5161142.04343  22845832.6624   22845832.8304
      -680.4534
 -17866028.50849 -13906311.25247  20783722.8574   20783719.8264
      2239.8444
 04  9 13 22 52 44.9980000  0  7G29G 8G13G19G27G10G28
  -2057047.81047  -1580935.38843  23346613.2174   23346613.7564
      3656.7344
 -15093155.16649 -11741028.44347  19756176.9824   19756174.9554
      1135.6094
   9780948.39247   7620595.51044  22184406.7794   22184406.3424
     -2907.4844
  -9868858.27748  -7669315.39045  22148738.3894   22148735.6314
      -746.8754
  -6561030.34649  -5103965.39047  20161046.1864   20161043.8544
        67.7194
  -6619384.48547  -5153140.89543  22847786.7094   22847786.8464
      -688.6564
 -17899582.54049 -13932457.25147  20777337.5144   20777334.9124
      2233.9384
 04  9 13 22 52 59.9980000  0  7G29G 8G13G19G27G10G28
  -2111878.19547  -1623660.32443  23336179.5614   23336179.7834
      3653.8444
 -15110155.89849 -11754275.76547  19752941.8734   19752939.8894
      1130.9534
   9824593.03847   7654604.25444  22192712.6074   22192711.8814
     -2911.8594
  -9857590.59048  -7660535.39145  22150882.7954   22150879.7524
      -755.6724
  -6562015.79549  -5104733.28347  20160858.4434   20160856.6974
        63.5634
  -6608994.26347  -5145044.65543  22849763.8344   22849764.0024
      -696.7974
 -17933050.87949 -13958536.46047  20770968.9284   20770965.8264
      2228.3284
 04  9 13 22 53 14.9980000  0  7G29G 8G13G19G27G10G28
  -2166663.55247  -1666350.18843  23325754.1474   23325755.0254
      3651.1414
 -15127085.87949 -11767467.96447  19749720.3814   19749718.1974
      1126.4844
   9868302.01947   7688663.12344  22201030.0684   22201028.8184
     -2915.9064
  -9846188.44648  -7651650.64745  22153052.5534   22153050.0374
      -764.5164
  -6562938.68349  -5105452.43447  20160682.7644   20160680.5924
        59.6094
  -6598482.80647  -5136853.94943  22851764.2874   22851764.5614
      -704.6564
 -17966434.12949 -13984549.37347  20764616.1544   20764612.8544
      2222.8754
 04  9 13 22 53 29.9980000  0  7G29G 8G13G19G27G10G28
  -2221402.88047  -1709004.15743  23315337.3114   23315337.9284
      3647.7504
 -15143944.59049 -11780604.63548  19746512.1544   19746510.1624
      1121.4694
   9912075.63248   7722772.36744  22209359.6704   22209358.9434
     -2920.3754
  -9834651.39348  -7642660.76245  22155247.9044   22155245.0414
      -773.6724
  -6563798.21049  -5106122.21147  20160519.5224   20160516.9244
        55.1724
  -6587849.82346  -5128568.56543  22853787.6154   22853788.1074
      -712.9374
 -17999731.62849 -14010495.47447  20758279.7564   20758276.8934
      2216.9064
 04  9 13 22 53 44.9980000  0  7G29G 8G13G19G27G10G28
  -2276094.98848  -1751621.37342  23304930.1864   23304930.1584
      3644.5314
 -15160730.92449 -11793684.89748  19743317.6784   19743315.2684
      1116.6564
   9955914.76147   7756932.66244  22217702.2874   22217701.2254
     -2924.7814
  -9822978.54748  -7633565.07545  22157469.4364   22157466.4324
      -782.7664
  -6564593.43249  -5106741.87347  20160368.2094   20160365.7644
        50.8914
  -6577094.63347  -5120187.91743  22855833.8424   22855834.7724
      -721.1724
 -18032942.42649 -14036374.00347  20751959.8894   20751957.4714
      2211.2034
